[[{"header":{"parameterUnit":"m.s-1","parameterCategory":1,"la1":30.6,"la2":29.2853,"lo1":-89.7004,"lo2":-87.6739,"dy":0.0162,"dx":0.0183,"nx":112,"ny":82,"refTime":"2025-07-06T12:00:00:Z","depth":0,"parameterNumber":2,"parameterNumberName":"U-component_of_WINDS"},"data":[0.0,0.0,0.0,0.0,0.0,0.0,0.0,0.0,0.0,0.0,0.0,0.0,0.0,0.0,0.0,0.0,0.0,0.0,0.0,0.0,0.0,0.0,0.0,0.0,0.0,0.0,0.0,0.0,0.0,0.0,0.0,0.0,0.0,0.0,0.0,0.0,0.0,0.0,0.0,0.0,0.0,0.0,0.0,0.0,0.0,0.0,0.0,0.0,0.0,0.0,0.0,0.0,0.0,0.0,0.0,0.0,0.0,0.0,0.0,0.0,0.0,0.0,0.0,0.0,0.0,0.0,0.0,0.0,0.0,0.0,0.0,0.0,0.0,0.0,0.0,0.0,0.0,0.0,0.0,0.0,0.0,0.0,0.0,0.0,0.0,0.0,0.0,0.0,0.0,0.0,0.0,-0.8433,-0.9835,-1.0737,-1.0773,-1.043,-0.9703,-0.8429,0.0,0.0,0.0,0.0,0.0,0.0,0.0,0.0,0.0,0.0,0.0,0.0,0.0,0.0,0.0,0.0,0.0,0.0,0.0,0.0,0.0,0.0,0.0,0.0,0.0,0.0,0.0,0.0,0.0,0.0,0.0,0.0,0.0,0.0,0.0,0.0,0.0,0.0,0.0,0.0,0.0,0.0,0.0,0.0,0.0,0.0,0.0,0.0,0.0,0.0,0.0,0.0,0.0,0.0,0.0,0.0,0.0,0.0,0.0,0.0,0.0,0.0,0.0,0.0,0.0,0.0,0.0,0.0,0.0,0.0,0.0,0.0,0.0,0.0,0.0,0.0,0.0,0.0,0.0,0.0,0.0,0.0,0.0,0.0,0.0,0.0,0.0,0.0,0.0,0.0,0.0,0.0,0.0,0.0,0.0,0.0,0.0,0.0,0.0,0.0,0.0,0.0,0.0,0.0,-0.7539,-0.9456,-1.0274,-1.0773,-1.1033,-1.037,-0.9588,-0.8704,0.0,0.0,0.0,0.0,0.0,0.0,0.0,0.0,0.0,0.0,0.0,0.0,0.0,0.0,0.0,0.0,0.0,0.0,0.0,0.0,0.0,0.0,0.0,0.0,0.0,0.0,0.0,0.0,0.0,0.0,0.0,0.0,0.0,0.0,0.0,0.0,0.0,0.0,0.0,0.0,0.0,0.0,0.0,0.0,0.0,0.0,0.0,0.0,0.0,0.0,0.0,0.0,0.0,0.0,0.0,0.0,0.0,0.0,0.0,0.0,0.0,0.0,0.0,0.0,0.0,0.0,0.0,0.0,0.0,0.0,0.0,0.0,0.0,0.0,0.0,0.0,0.0,0.0,0.0,0.0,0.0,0.0,0.0,0.0,0.0,0.0,0.0,0.0,0.0,0.0,0.0,0.0,0.0,0.0,0.0,0.0,0.0,0.0,0.0,0.0,0.0,0.0,0.0,-0.7397,-0.8582,-0.9967,-1.0587,-1.0979,-1.1099,-1.0485,-0.9682,-0.8593,-0.7587,0.0,0.0,0.0,0.0,0.0,0.0,0.0,0.0,0.0,0.0,0.0,0.0,0.0,0.0,0.0,0.0,0.0,0.0,0.0,0.0,0.0,0.0,0.0,0.0,0.0,0.0,0.0,0.0,0.0,0.0,0.0,0.0,0.0,0.0,0.0,0.0,0.0,0.0,0.0,0.0,0.0,0.0,0.0,0.0,0.0,0.0,0.0,0.0,0.0,0.0,0.0,0.0,0.0,0.0,0.0,0.0,0.0,0.0,0.0,0.0,0.0,0.0,0.0,0.0,0.0,0.0,0.0,0.0,0.0,0.0,0.0,0.0,0.0,0.0,0.0,0.0,0.0,0.0,0.0,0.0,0.0,0.0,0.0,0.0,0.0,0.0,0.0,0.0,0.0,0.0,0.0,0.0,0.0,0.0,0.0,0.0,0.0,0.0,0.0,0.0,0.0,0.0,-0.858,-0.9504,-1.0304,-1.0834,-1.1111,-1.1111,-1.0485,-0.961,-0.8474,-0.7289,0.0,0.0,0.0,0.0,0.0,0.0,0.0,0.0,0.0,0.0,0.0,0.0,0.0,0.0,0.0,0.0,0.0,0.0,0.0,0.0,0.0,0.0,0.0,0.0,0.0,0.0,0.0,0.0,0.0,0.0,0.0,0.0,0.0,0.0,0.0,0.0,0.0,0.0,0.0,0.0,0.0,0.0,0.0,0.0,0.0,0.0,0.0,0.0,0.0,0.0,0.0,0.0,0.0,0.0,0.0,0.0,0.0,0.0,0.0,0.0,0.0,0.0,0.0,0.0,0.0,0.0,0.0,0.0,0.0,0.0,0.0,0.0,0.0,0.0,0.0,0.0,0.0,0.0,0.0,0.0,0.0,0.0,0.0,0.0,0.0,0.0,0.0,0.0,0.0,0.0,0.0,0.0,0.0,0.0,0.0,0.0,0.0,0.0,0.0,0.0,0.0,0.0,-0.8687,-0.9787,-1.0575,-1.0942,-1.1111,-1.1111,-1.0148,-0.9229,-0.8451,-0.6802,0.0,0.0,0.0,0.0,0.0,0.0,0.0,0.0,0.0,0.0,0.0,0.0,0.0,0.0,0.0,0.0,0.0,0.0,0.0,0.0,0.0,0.0,0.0,0.0,0.0,0.0,0.0,0.0,0.0,0.0,0.0,0.0,0.0,0.0,0.0,0.0,0.0,0.0,0.0,0.0,0.0,0.0,0.0,0.0,0.0,0.0,0.0,0.0,0.0,0.0,0.0,0.0,0.0,0.0,0.0,0.0,0.0,0.0,0.0,0.0,0.0,0.0,0.0,0.0,0.0,0.0,0.0,0.0,0.0,0.0,0.0,0.0,0.0,0.0,0.0,0.0,0.0,0.0,0.0,0.0,0.0,0.0,0.0,0.0,0.0,0.0,0.0,0.0,0.0,0.0,0.0,0.0,0.0,0.0,0.0,0.0,0.0,0.0,0.0,0.0,0.0,0.0,-0.8639,-0.9817,0.0,-1.0954,-1.1111,-1.1111,-1.0412,-0.95,-0.829,0.0,0.0,0.0,0.0,0.0,0.0,0.0,0.0,0.0,0.0,0.0,0.0,0.0,0.0,0.0,0.0,0.0,0.0,0.0,0.0,0.0,0.0,0.0,0.0,0.0,0.0,0.0,0.0,0.0,0.0,0.0,0.0,0.0,0.0,0.0,0.0,0.0,0.0,0.0,0.0,0.0,0.0,0.0,0.0,0.0,0.0,0.0,0.0,0.0,0.0,0.0,0.0,0.0,0.0,0.0,0.0,0.0,0.0,0.0,0.0,0.0,0.0,0.0,0.0,0.0,0.0,0.0,0.0,0.0,0.0,0.0,0.0,0.0,0.0,0.0,0.0,0.0,0.0,0.0,0.0,0.0,0.0,0.0,0.0,0.0,0.0,0.0,0.0,0.0,0.0,0.0,0.0,0.0,0.0,0.0,0.0,0.0,0.0,0.0,0.0,0.0,0.0,-0.7355,-0.8779,-0.9943,0.0,-1.1003,-1.1111,-1.1111,-1.0442,-0.9503,-0.8177,0.0,0.0,0.0,0.0,0.0,0.0,0.0,0.0,0.0,0.0,0.0,0.0,0.0,0.0,0.0,0.0,0.0,0.0,0.0,0.0,0.0,0.0,0.0,0.0,0.0,0.0,0.0,0.0,0.0,0.0,0.0,0.0,0.0,0.0,0.0,0.0,0.0,0.0,0.0,0.0,0.0,0.0,0.0,0.0,0.0,0.0,0.0,0.0,0.0,0.0,0.0,0.0,0.0,0.0,0.0,0.0,0.0,0.0,0.0,0.0,0.0,0.0,0.0,0.0,0.0,0.0,0.0,0.0,0.0,0.0,0.0,0.0,0.0,0.0,0.0,0.0,0.0,0.0,0.0,0.0,0.0,0.0,0.0,0.0,0.0,0.0,0.0,0.0,0.0,0.0,0.0,0.0,0.0,0.0,0.0,0.0,0.0,0.0,0.0,0.0,0.0,0.0,-0.7897,-0.916,-1.0208,-1.1027,-1.1111,-1.1111,-1.1111,-1.0124,-0.9105,0.0,0.0,0.0,0.0,0.0,0.0,0.0,0.0,0.0,0.0,0.0,0.0,0.0,0.0,0.0,0.0,0.0,0.0,0.0,0.0,0.0,0.0,0.0,0.0,0.0,0.0,0.0,0.0,0.0,0.0,0.0,0.0,0.0,0.0,0.0,0.0,0.0,0.0,0.0,0.0,0.0,0.0,0.0,0.0,0.0,0.0,0.0,0.0,0.0,0.0,0.0,0.0,0.0,0.0,0.0,0.0,0.0,0.0,0.0,0.0,0.0,0.0,0.0,0.0,0.0,0.0,0.0,0.0,0.0,0.0,0.0,0.0,0.0,0.0,0.0,0.0,0.0,0.0,0.0,0.0,0.0,0.0,0.0,0.0,0.0,0.0,0.0,0.0,0.0,0.0,0.0,0.0,0.0,0.0,0.0,0.0,0.0,0.0,0.0,0.0,0.0,0.0,0.0,-0.7925,-0.9312,-1.0406,-1.1045,-1.1111,-1.1111,-1.1111,-1.0454,-0.9515,-0.8177,0.0,0.0,0.0,0.0,0.0,0.0,0.0,0.0,0.0,0.0,0.0,0.0,0.0,0.0,0.0,0.0,0.0,0.0,0.0,0.0,0.0,0.0,0.0,0.0,0.0,0.0,0.0,0.0,0.0,0.0,0.0,0.0,0.0,0.0,0.0,0.0,0.0,0.0,0.0,0.0,0.0,0.0,0.0,0.0,0.0,0.0,0.0,0.0,0.0,0.0,0.0,0.0,0.0,0.0,0.0,0.0,0.0,0.0,0.0,0.0,0.0,0.0,0.0,0.0,0.0,0.0,0.0,0.0,0.0,0.0,0.0,0.0,0.0,0.0,0.0,0.0,0.0,0.0,0.0,0.0,0.0,0.0,0.0,0.0,0.0,0.0,0.0,0.0,0.0,0.0,0.0,0.0,0.0,0.0,0.0,0.0,0.0,0.0,0.0,0.0,0.0,0.0,-0.7942,-0.9376,-1.0539,-1.117,-1.1178,-1.1154,-1.123,-1.0755,-0.9862,-0.848,0.0,0.0,0.0,0.0,0.0,0.0,0.0,0.0,0.0,0.0,0.0,0.0,0.0,0.0,0.0,0.0,0.0,0.0,0.0,0.0,0.0,0.0,0.0,0.0,0.0,0.0,0.0,0.0,0.0,0.0,0.0,0.0,0.0,0.0,0.0,0.0,0.0,0.0,0.0,0.0,0.0,0.0,0.0,0.0,0.0,0.0,0.0,0.0,0.0,0.0,0.0,0.0,0.0,0.0,0.0,0.0,0.0,0.0,0.0,0.0,0.0,0.0,0.0,0.0,0.0,0.0,0.0,0.0,0.0,0.0,0.0,0.0,0.0,0.0,0.0,0.0,0.0,0.0,0.0,0.0,0.0,0.0,0.0,0.0,0.0,0.0,0.0,0.0,0.0,0.0,0.0,0.0,0.0,0.0,0.0,0.0,0.0,0.0,0.0,0.0,0.0,0.0,-0.7968,-0.9435,-1.0659,-1.1411,-1.1285,-1.1242,-1.1471,-1.102,-1.0199,-0.8924,0.0,0.0,0.0,0.0,0.0,0.0,0.0,0.0,0.0,0.0,0.0,0.0,0.0,0.0,0.0,0.0,0.0,0.0,0.0,0.0,0.0,0.0,0.0,0.0,0.0,0.0,0.0,0.0,0.0,0.0,0.0,0.0,0.0,0.0,0.0,0.0,0.0,0.0,0.0,0.0,0.0,0.0,0.0,0.0,0.0,0.0,0.0,0.0,0.0,0.0,0.0,0.0,0.0,0.0,0.0,0.0,0.0,0.0,0.0,0.0,-0.7105,0.0,0.0,0.0,0.0,0.0,0.0,0.0,0.0,0.0,0.0,0.0,0.0,0.0,0.0,0.0,0.0,0.0,0.0,0.0,0.0,0.0,0.0,0.0,0.0,0.0,0.0,0.0,0.0,0.0,0.0,0.0,0.0,0.0,0.0,0.0,0.0,0.0,0.0,0.0,0.0,0.0,-0.8201,-0.9856,-1.1093,-1.1453,-1.1621,-1.1651,-1.1507,-1.1182,-1.0474,-0.9204,0.0,0.0,0.0,0.0,0.0,0.0,0.0,0.0,0.0,0.0,0.0,0.0,0.0,0.0,0.0,0.0,0.0,0.0,0.0,0.0,0.0,0.0,0.0,0.0,0.0,0.0,0.0,0.0,0.0,0.0,0.0,0.0,0.0,0.0,0.0,0.0,0.0,0.0,0.0,0.0,0.0,0.0,0.0,0.0,0.0,0.0,0.0,0.0,0.0,0.0,0.0,0.0,0.0,0.0,0.0,0.0,0.0,0.0,0.0,0.0,0.0,-0.832,0.0,0.0,0.0,0.0,0.0,0.0,0.0,0.0,0.0,0.0,0.0,0.0,0.0,0.0,0.0,0.0,0.0,0.0,0.0,0.0,0.0,0.0,0.0,0.0,0.0,0.0,0.0,0.0,0.0,0.0,0.0,0.0,0.0,0.0,0.0,0.0,0.0,0.0,0.0,0.0,-0.8443,-1.0061,-1.1317,-1.1814,-1.1874,-1.192,-1.1908,-1.1501,-1.0893,-0.9993,-0.9115,0.0,0.0,0.0,0.0,0.0,0.0,0.0,0.0,0.0,0.0,0.0,0.0,0.0,0.0,0.0,0.0,0.0,0.0,0.0,0.0,0.0,0.0,0.0,0.0,0.0,0.0,0.0,0.0,0.0,0.0,0.0,0.0,0.0,0.0,0.0,0.0,0.0,0.0,0.0,0.0,0.0,0.0,0.0,0.0,0.0,0.0,0.0,0.0,0.0,0.0,0.0,0.0,0.0,-0.9718,-1.0076,-1.0441,-1.0692,-1.1308,-1.2057,-1.0897,-1.0735,-1.122,0.0,0.0,0.0,0.0,0.0,0.0,0.0,0.0,0.0,0.0,0.0,0.0,0.0,0.0,0.0,0.0,0.0,0.0,0.0,0.0,0.0,0.0,0.0,0.0,0.0,-0.9242,-0.9613,0.0,0.0,0.0,0.0,0.0,0.0,0.0,0.0,0.0,0.0,0.0,0.0,-0.8873,-1.0354,-1.1576,-1.224,-1.2161,-1.2125,-1.23,-1.1832,-1.1327,-1.0785,-0.9894,-0.9084,0.0,0.0,0.0,0.0,0.0,0.0,0.0,0.0,0.0,0.0,0.0,0.0,0.0,0.0,0.0,0.0,0.0,0.0,0.0,0.0,0.0,0.0,0.0,0.0,0.0,0.0,0.0,0.0,0.0,0.0,0.0,0.0,-0.604,-0.6821,0.0,0.0,0.0,0.0,0.0,0.0,0.0,0.0,0.0,0.0,0.0,0.0,0.0,-0.8936,-0.8971,-1.0422,-1.1136,-1.1085,-1.3009,-1.3874,-1.3701,-1.4207,-1.4506,-1.4629,-1.4429,0.0,-1.208,-1.1173,0.0,0.0,0.0,0.0,0.0,0.0,0.0,0.0,0.0,0.0,0.0,0.0,0.0,0.0,0.0,0.0,0.0,0.0,0.0,0.0,0.0,0.0,-1.1651,-1.1112,-1.1655,-1.2063,0.0,-0.9522,-0.7909,-0.7517,-0.7203,0.0,0.0,0.0,0.0,0.0,0.0,0.0,-0.9633,-1.1162,-1.2198,-1.23,-1.2487,-1.2524,-1.233,-1.2,-1.1603,-1.1093,-1.0503,-0.9904,-0.9342,-0.845,0.0,0.0,0.0,0.0,0.0,0.0,0.0,0.0,0.0,0.0,0.0,0.0,0.0,0.0,0.0,0.0,0.0,0.0,0.0,0.0,0.0,0.0,0.0,0.0,0.0,0.0,0.0,0.0,0.0,-0.6046,-0.7008,-0.7336,-0.7501,-0.741,0.0,0.0,0.0,0.0,0.0,0.0,0.0,0.0,0.0,-1.018,-1.0798,-1.1419,-1.2037,-1.2883,-1.3385,-1.3478,-1.4451,-1.4871,-1.4763,-1.4998,-1.5107,-1.5107,-1.5107,-1.4642,-1.3821,-1.2851,-1.2082,-1.1385,0.0,0.0,0.0,0.0,-1.0223,-1.0445,-1.1276,-1.1596,0.0,0.0,0.0,0.0,0.0,0.0,0.0,0.0,0.0,0.0,0.0,0.0,0.0,-1.1931,-1.2405,-1.262,-1.2232,-1.1278,-1.0263,0.0,-0.912,-0.8663,-0.7192,0.0,0.0,0.0,0.0,0.0,-1.0454,-1.1566,-1.2367,-1.2518,-1.2638,-1.2656,-1.2542,-1.2294,-1.198,-1.1549,-1.1063,-1.0581,-1.0172,-0.9353,-0.8585,0.0,0.0,0.0,0.0,0.0,0.0,0.0,0.0,0.0,0.0,0.0,0.0,0.0,0.0,0.0,0.0,0.0,0.0,0.0,0.0,0.0,0.0,0.0,0.0,0.0,0.0,0.0,0.0,-0.7055,-0.7967,-0.7922,-0.8539,-0.8707,0.0,0.0,0.0,0.0,0.0,0.0,-0.9733,-1.025,-1.0966,-1.2072,-1.2835,-1.3672,-1.4497,-1.4708,-1.4914,-1.5107,-1.5179,-1.5209,-1.5209,-1.5276,-1.5306,-1.5306,-1.5306,-1.5306,-1.5234,-1.4232,-1.3455,-1.286,-1.2157,-1.1659,-1.1381,-1.167,-1.181,-1.2017,-1.2997,-1.3362,-1.32,-1.2411,0.0,-1.1053,-0.9393,0.0,0.0,0.0,0.0,-0.9959,-1.0727,-1.1261,-1.183,-1.2498,-1.296,-1.314,-1.2945,-1.2769,-1.2294,0.0,-1.0928,-1.0489,-0.8711,0.0,0.0,0.0,0.0,-1.0547,-1.1229,-1.1961,-1.2487,-1.2687,-1.2705,-1.2705,-1.2705,-1.2463,-1.2204,-1.1938,-1.1441,-1.1099,-1.0791,-1.0166,-0.9548,-0.8997,0.0,0.0,0.0,0.0,0.0,0.0,0.0,0.0,0.0,0.0,0.0,0.0,0.0,0.0,0.0,0.0,0.0,0.0,0.0,0.0,0.0,0.0,0.0,0.0,0.0,0.0,0.0,0.0,0.0,-0.9004,-0.9955,0.0,0.0,0.0,0.0,-0.9793,-0.9765,-1.0453,-1.2053,-1.2087,-1.2828,-1.4472,-1.4815,-1.5022,-1.5065,-1.5083,-1.5095,-1.5113,-1.536,-1.5481,-1.5487,-1.5734,-1.5849,-1.5849,-1.5849,-1.5849,-1.5789,-1.4986,-1.4642,-1.4539,-1.4232,-1.41,-1.4094,-1.4118,-1.4298,-1.4539,-1.4587,-1.4605,-1.45,-1.3973,-1.2509,-1.0915,-1.037,-1.0245,0.0,0.0,-1.1243,-1.2016,-1.2258,-1.285,-1.3392,-1.342,-1.3859,-1.4196,-1.4232,-1.38,-1.3235,0.0,-1.2086,-1.1718,-1.1023,0.0,-1.0518,-1.0215,-1.0663,-1.1259,-1.1786,-1.2319,-1.2693,-1.2705,-1.2705,-1.2705,-1.2705,-1.2463,-1.2204,-1.1938,-1.1621,-1.1345,-1.1105,-1.0791,-1.026,-0.9465,-0.8734,0.0,0.0,0.0,0.0,0.0,0.0,0.0,0.0,0.0,0.0,0.0,0.0,0.0,0.0,0.0,0.0,0.0,0.0,0.0,0.0,0.0,0.0,0.0,0.0,0.0,0.0,0.0,0.0,-1.0363,-1.1196,0.0,0.0,-1.1385,-1.1696,-1.1958,-1.2281,-1.2833,-1.3784,-1.4003,-1.4315,-1.4962,-1.5221,-1.5439,-1.5608,-1.5777,-1.5952,-1.6133,-1.6229,-1.6272,-1.6278,-1.6368,-1.641,-1.641,-1.641,-1.641,-1.6386,-1.6109,-1.5686,-1.5191,-1.4926,-1.4817,-1.4817,-1.4817,-1.4883,-1.4968,-1.4968,-1.4968,-1.4867,-1.4352,-1.3452,-1.2585,-1.2389,-1.2272,-1.223,-1.231,-1.2442,-1.2623,-1.2991,-1.3321,-1.3588,-1.3919,-1.4154,-1.4298,-1.4298,-1.4154,-1.3933,-1.3649,-1.3147,-1.2499,-1.1741,-1.1952,-1.2058,-1.142,-1.1922,-1.2523,-1.2867,-1.3109,-1.3224,-1.3224,-1.3079,-1.2976,-1.2976,-1.2572,-1.2204,-1.1938,-1.151,-1.1104,-1.0833,-1.0575,-1.0233,-0.9779,-0.9328,-0.8557,0.0,0.0,0.0,0.0,0.0,0.0,0.0,0.0,0.0,0.0,0.0,0.0,0.0,0.0,0.0,0.0,0.0,0.0,0.0,0.0,0.0,0.0,0.0,0.0,0.0,0.0,-1.096,-1.1347,-1.2174,-1.2614,-1.2313,-1.2723,-1.3169,-1.3628,-1.4063,-1.4509,-1.4956,-1.5149,-1.5318,-1.5499,-1.5674,-1.5891,-1.6163,-1.6338,-1.6513,-1.67,-1.67,-1.67,-1.67,-1.67,-1.67,-1.67,-1.67,-1.67,-1.67,-1.67,-1.6386,-1.5891,-1.571,-1.5644,-1.5632,-1.5535,-1.5505,-1.5499,-1.5403,-1.5312,-1.5137,-1.4613,-1.414,-1.376,-1.3556,-1.3554,-1.3585,-1.3585,-1.3568,-1.3626,-1.3834,-1.3914,-1.3988,-1.4226,-1.4298,-1.4298,-1.4298,-1.4298,-1.4298,-1.4298,-1.3868,-1.3316,-1.2677,-1.3013,-1.3147,-1.2525,-1.2893,-1.332,-1.3495,-1.3513,-1.3513,-1.3513,-1.3357,-1.3218,-1.3133,-1.2705,-1.233,-1.203,-1.1546,-1.1178,-1.0966,-1.0617,-1.0304,-1.0039,-0.96,-0.9029,-0.8291,0.0,0.0,0.0,0.0,0.0,0.0,0.0,0.0,0.0,0.0,0.0,0.0,0.0,0.0,0.0,0.0,0.0,0.0,0.0,0.0,0.0,0.0,0.0,-0.9588,-1.0936,-1.1922,-1.194,-1.2873,-1.3453,-1.32,-1.387,-1.4437,-1.4721,-1.498,-1.524,-1.5511,-1.5523,-1.5759,-1.6278,-1.6296,-1.6429,-1.6712,-1.6712,-1.6718,-1.6724,-1.6724,-1.6724,-1.6724,-1.6724,-1.6724,-1.6724,-1.6724,-1.6724,-1.6724,-1.6724,-1.6724,-1.6724,-1.6706,-1.67,-1.667,-1.6392,-1.6308,-1.6278,-1.6,-1.5734,-1.5413,-1.4931,-1.455,-1.4248,-1.3731,-1.3936,-1.4344,-1.4344,-1.47,-1.5046,-1.4793,-1.4733,-1.466,-1.4377,-1.431,-1.4304,-1.4298,-1.4298,-1.4298,-1.4298,-1.4298,-1.4214,-1.396,-1.3918,-1.3833,-1.3574,-1.3538,0.0,-1.3538,-1.3538,-1.3538,-1.3538,-1.3532,-1.3423,-1.3169,-1.2874,-1.2596,-1.233,-1.1772,-1.1477,-1.1477,-1.0966,-1.0563,-1.031,-0.9546,-0.9137,-0.9125,0.0,0.0,0.0,0.0,0.0,0.0,0.0,0.0,0.0,0.0,0.0,0.0,0.0,0.0,0.0,0.0,0.0,0.0,0.0,0.0,0.0,0.0,-1.123,-1.123,-1.2109,-1.2891,-1.3314,-1.3966,-1.4358,-1.4286,-1.4648,-1.4992,-1.5264,-1.5354,-1.559,-1.6042,-1.6066,-1.6223,-1.6573,-1.6585,-1.6712,-1.6984,-1.6984,-1.708,-1.7267,-1.7267,-1.7267,-1.7267,-1.7267,-1.7267,-1.7267,-1.7267,-1.7267,-1.7267,-1.7267,-1.7267,-1.7231,-1.6851,-1.67,-1.6688,-1.6616,-1.6585,-1.6555,-1.6272,-1.6127,-1.6036,-1.5677,-1.5517,-1.5405,-1.5299,-1.5222,-1.5184,-1.5184,-1.5149,-1.5089,-1.5022,-1.4998,-1.4932,-1.4666,-1.46,-1.4545,-1.434,-1.4298,-1.4298,-1.4298,-1.4298,-1.4274,-1.4201,-1.4189,-1.4165,-1.4093,-1.4081,0.0,-1.4081,-1.4081,-1.4081,-1.4081,-1.3912,-1.3767,-1.3701,-1.3085,-1.2596,-1.233,-1.1591,-1.1226,-1.1226,-1.0863,-1.0653,-1.0575,-1.0358,-1.0063,0.0,0.0,0.0,0.0,0.0,0.0,0.0,0.0,0.0,0.0,0.0,0.0,0.0,0.0,0.0,0.0,0.0,0.0,0.0,0.0,0.0,0.0,-1.1736,-1.2464,-1.2723,-1.3157,-1.3646,-1.4183,-1.4527,-1.4805,-1.5022,-1.5185,-1.5384,-1.5644,-1.5765,-1.5958,-1.6266,-1.6392,-1.6579,-1.6857,-1.6863,-1.699,-1.7249,-1.7255,-1.7334,-1.7485,-1.7485,-1.7539,-1.7648,-1.7648,-1.7648,0.0,-1.7648,-1.7581,-1.7485,-1.7485,-1.7485,0.0,0.0,0.0,0.0,0.0,-1.6797,-1.6676,-1.6513,-1.6453,-1.6435,-1.6278,-1.6151,-1.6054,-1.6054,-1.5867,-1.5662,-1.5662,-1.5553,-1.5409,-1.53,-1.527,-1.5203,-1.4944,-1.4799,-1.4672,-1.4509,-1.4383,-1.4298,-1.4298,-1.4298,0.0,-1.4298,-1.4298,-1.4298,-1.4298,-1.4298,-1.4298,-1.4298,-1.4298,-1.4298,-1.4298,-1.4159,-1.4026,-1.3918,-1.3375,0.0,0.0,0.0,-1.1516,-1.1298,-1.1104,0.0,0.0,0.0,0.0,0.0,0.0,0.0,0.0,-1.0486,-1.0396,0.0,0.0,0.0,0.0,0.0,0.0,0.0,0.0,0.0,0.0,0.0,0.0,0.0,0.0,0.0,0.0,-1.2856,-1.3399,-1.3924,-1.3996,-1.4177,-1.466,-1.4769,-1.4986,-1.5451,-1.5553,-1.5686,-1.5916,-1.6181,-1.6344,-1.6374,0.0,0.0,0.0,0.0,-1.7261,-1.7527,-1.7527,-1.7539,-1.7575,-1.7575,-1.7696,-1.7919,-1.7919,-1.7919,-1.7919,-1.7919,-1.7787,-1.7569,-1.7539,-1.7509,-1.7485,-1.7485,-1.7485,-1.7455,-1.7219,-1.699,-1.6785,-1.6754,0.0,0.0,-1.6712,-1.6531,-1.632,-1.629,-1.6115,-1.5928,-1.5897,-1.5891,-1.5837,-1.5602,-1.5547,-1.5475,-1.5215,-1.4974,-1.4799,-1.4769,-1.4539,-1.4346,-1.4346,-1.4322,-1.4298,-1.4298,-1.4298,-1.4298,-1.4298,-1.4298,-1.4298,-1.4298,-1.4298,-1.4298,-1.4298,0.0,0.0,-1.3972,-1.3713,-1.3447,-1.3143,-1.2687,-1.2198,-1.1688,-1.17,-1.1706,-1.167,-1.1928,-1.2318,-1.2753,-1.3031,-1.3137,-1.3175,-1.1676,-1.1528,0.0,0.0,0.0,0.0,0.0,0.0,0.0,0.0,0.0,0.0,0.0,0.0,0.0,0.0,0.0,-1.28,-1.3411,-1.3942,-1.4485,-1.4564,-1.46,-1.4702,-1.5089,-1.539,-1.5487,-1.5879,-1.6151,-1.6205,-1.6459,-1.6712,-1.6923,-1.699,0.0,-1.74,-1.7406,-1.7533,-1.7793,-1.7799,-1.7913,-1.8137,0.0,0.0,-1.8215,-1.8215,-1.8215,-1.8215,-1.8215,-1.8185,-1.8118,-1.7889,-1.7678,-1.7485,-1.7485,-1.7485,-1.7473,-1.7424,-1.7376,-1.7298,-1.7086,-1.7014,-1.6984,-1.6767,-1.6664,-1.6579,-1.635,-1.6241,0.0,-1.5946,-1.5891,-1.5879,-1.5831,-1.5813,-1.5753,-1.5487,-1.5384,-1.5288,-1.5077,-1.4823,-1.4636,-1.4636,-1.4455,-1.4298,-1.4298,-1.4298,-1.4298,-1.4298,-1.4298,-1.4298,-1.4298,-1.4298,-1.4298,-1.4298,-1.4298,-1.428,-1.4226,-1.3978,-1.3719,-1.3459,-1.3139,-1.2879,-1.2776,-1.3019,-1.2987,-1.2776,-1.3029,-1.3157,-1.2999,-1.3308,-1.355,-1.3743,-1.3218,-1.297,0.0,0.0,0.0,0.0,0.0,0.0,0.0,0.0,0.0,0.0,0.0,-1.105,0.0,0.0,-1.2934,-1.3604,-1.4051,-1.4407,-1.4678,-1.4944,-1.5107,-1.5107,-1.5342,-1.5553,-1.568,-1.6048,-1.6278,-1.6278,-1.6664,-1.6954,-1.7086,-1.7213,-1.7406,-1.7672,-1.7678,-1.7811,-1.8082,-1.8082,-1.8155,-1.8294,-1.8294,-1.836,-1.8487,-1.8487,-1.8487,-1.8487,-1.8487,-1.8414,-1.8281,-1.8143,-1.8004,-1.7877,-1.7732,-1.7599,-1.7485,-1.7485,-1.7485,-1.7461,-1.7334,-1.7286,-1.7267,-1.7135,-1.7002,-1.6869,-1.673,-1.6598,-1.6435,-1.6163,-1.6085,-1.6054,-1.5922,-1.5891,-1.5855,-1.5728,-1.5596,-1.5463,-1.533,-1.5101,-1.4871,-1.4745,-1.4606,-1.4461,-1.4322,-1.4298,-1.4298,-1.4298,-1.4298,-1.4298,-1.4298,-1.4298,-1.4298,-1.4298,-1.4298,-1.4298,-1.4298,-1.4057,-1.3851,-1.3719,-1.3465,-1.332,-1.332,-1.3447,-1.3453,-1.3276,-1.3574,-1.3646,-1.3513,-1.3779,-1.3972,-1.4099,-1.3966,-1.3839,0.0,0.0,0.0,0.0,0.0,0.0,0.0,0.0,-1.0527,-1.1104,-1.1615,-1.2145,-1.2819,-1.3163,-1.3574,-1.4268,-1.457,-1.4751,-1.4853,-1.5234,-1.5517,-1.5565,-1.5572,-1.568,-1.594,-1.6205,-1.6386,-1.6435,-1.6893,-1.7165,-1.7165,-1.7418,-1.7654,-1.7865,-1.7925,-1.8088,-1.8366,-1.8366,-1.8396,-1.8444,-1.8444,-1.8559,-1.8758,-1.8758,-1.8758,-1.8758,-1.8758,-1.8613,-1.8366,-1.8366,-1.8342,-1.8269,-1.8046,-1.7829,-1.763,-1.7521,-1.7485,-1.7485,-1.7485,-1.7485,-1.7485,-1.7485,-1.734,-1.7159,-1.7111,-1.6948,-1.6718,-1.6441,-1.632,-1.6229,-1.6018,-1.5928,-1.5891,-1.5891,-1.5728,-1.5572,-1.5572,-1.5366,-1.5119,-1.4908,-1.4829,-1.4702,-1.4425,-1.4377,-1.4358,-1.4304,-1.4298,-1.4298,-1.4298,-1.4298,-1.4298,-1.4298,-1.4298,-1.4298,-1.4298,-1.4105,-1.3978,-1.3978,-1.3779,-1.367,-1.367,-1.367,-1.367,-1.367,-1.3876,-1.3978,-1.3978,-1.4189,-1.4298,-1.4298,-1.4298,-1.4298,-1.1651,-1.202,0.0,-1.1938,-1.1968,-1.222,0.0,0.0,-1.227,-1.3043,-1.3435,-1.367,-1.3755,-1.3984,-1.4274,-1.4612,-1.4696,-1.4877,-1.5348,-1.5463,-1.559,-1.5819,-1.5849,-1.5946,-1.6211,-1.6489,-1.6748,-1.6984,-1.7274,-1.7443,-1.7443,-1.769,-1.7847,-1.7871,-1.8118,-1.8372,-1.8638,-1.8644,-1.8758,-1.8988,-1.8988,-1.9006,-1.9036,-1.9036,-1.9036,-1.9036,-1.9036,-1.8885,-1.8644,-1.8644,-1.8505,-1.8294,-1.8257,-1.8227,-1.8143,-1.766,-1.7485,-1.7485,-1.7485,-1.7485,-1.7485,-1.7485,-1.7461,-1.7394,-1.7165,-1.7074,-1.6996,-1.6724,-1.6477,-1.6272,-1.6241,-1.6066,-1.5891,-1.5891,-1.5867,-1.5849,-1.5849,-1.5638,-1.5445,-1.5421,-1.5221,-1.498,-1.4714,-1.4666,-1.4582,-1.4334,-1.4298,-1.4298,-1.4298,-1.4298,-1.4298,-1.4298,-1.4298,-1.4298,-1.4298,-1.4268,-1.4256,-1.4256,-1.4226,-1.4208,-1.4208,-1.4208,-1.4208,-1.4208,-1.4238,-1.4256,-1.4256,-1.4286,-1.4298,-1.4298,-1.4298,-1.4298,-1.448,0.0,0.0,0.0,-1.4083,-1.4008,-1.357,-1.3343,-1.3378,-1.3875,-1.4048,-1.4135,-1.4135,-1.422,-1.4389,0.0,-1.4841,-1.5077,-1.5445,-1.5499,-1.5535,-1.565,-1.5662,-1.5765,-1.6024,-1.6447,-1.6748,-1.6857,-1.7249,-1.7545,-1.7702,-1.7817,-1.8022,-1.8336,-1.8463,-1.8644,-1.8909,-1.8915,-1.8969,-1.9078,-1.9078,-1.9078,-1.9078,-1.9078,-1.9078,-1.9078,-1.9078,-1.9012,-1.8915,-1.8915,-1.8849,-1.8734,-1.8577,-1.8523,-1.8475,-1.8094,-1.7853,-1.7708,-1.7708,-1.7612,-1.7485,-1.7485,-1.7485,-1.7461,-1.7352,-1.7322,-1.7267,-1.7002,-1.6845,-1.6682,-1.6362,-1.6199,-1.6079,-1.5928,-1.5891,-1.5891,-1.5891,-1.5807,-1.568,-1.5529,-1.5409,-1.5252,-1.4992,-1.4944,-1.4853,-1.4582,-1.4401,-1.4298,-1.4298,-1.4298,-1.4298,-1.4298,-1.4298,-1.4298,-1.4298,-1.4298,-1.4298,-1.4298,-1.4298,-1.4298,-1.4298,-1.4298,-1.4298,-1.4298,-1.4298,-1.4298,-1.4298,-1.4298,-1.4298,-1.4298,-1.4467,-1.4539,-1.5617,0.0,0.0,-1.5349,-1.5502,-1.5399,-1.4195,-1.4045,-1.4167,-1.4359,-1.4361,-1.4298,-1.4298,-1.4298,0.0,-1.4769,-1.4986,-1.5228,-1.5559,-1.5547,-1.5523,-1.5596,-1.5547,-1.5602,-1.5861,-1.6314,-1.6646,-1.6797,-1.7231,-1.7599,-1.7859,-1.8016,-1.8281,-1.8674,-1.8758,-1.8885,-1.9072,-1.9078,-1.9078,-1.9078,-1.9078,-1.9078,-1.9078,-1.9078,-1.9078,-1.9078,-1.9078,-1.9078,-1.9078,-1.9078,-1.9078,-1.9054,-1.8867,-1.8794,-1.877,-1.8577,-1.8287,-1.7992,-1.7992,-1.7817,-1.7587,-1.7587,-1.7539,-1.7485,-1.7485,-1.7485,-1.7443,-1.7249,-1.7147,-1.7002,-1.6604,-1.6447,-1.6326,-1.606,-1.6,-1.5976,-1.5903,-1.5891,-1.5831,-1.5644,-1.5608,-1.5523,-1.5264,-1.5215,-1.5125,-1.4865,-1.4648,-1.4467,-1.4316,-1.4298,-1.4298,-1.4298,-1.4298,-1.4298,-1.4298,-1.4298,-1.4298,-1.4298,-1.4298,-1.4298,-1.4298,-1.4298,-1.4298,-1.4298,-1.4298,-1.4334,-1.4413,-1.4413,-1.4449,-1.4527,-1.4733,-1.4823,0.0,0.0,-1.5757,-1.5241,-1.569,-1.6049,-1.5246,-1.4848,-1.4669,-1.4675,-1.449,-1.4298,-1.4298,-1.4298,-1.4473,-1.501,-1.5101,-1.5288,-1.5807,-1.5656,-1.5596,-1.5849,-1.565,-1.5602,0.0,-1.6133,-1.6513,-1.7038,-1.7328,-1.7599,-1.7859,-1.8372,-1.8668,-1.8686,-1.8933,-1.9066,-1.9078,-1.9078,-1.9078,-1.9078,-1.9078,-1.9078,-1.9078,-1.9078,-1.9078,-1.9078,-1.9078,-1.9078,-1.9078,-1.9078,-1.9078,-1.9078,-1.9066,-1.906,-1.906,-1.9054,-1.8722,-1.8281,-1.8281,-1.8094,-1.7859,-1.7859,-1.769,-1.7485,-1.7485,-1.7485,-1.7479,-1.7473,-1.7286,-1.7086,-1.7074,-1.6881,-1.6616,-1.6338,-1.6266,-1.6199,-1.5946,-1.5891,-1.5885,-1.5879,-1.5879,-1.5795,-1.5529,-1.5487,-1.5396,-1.5137,-1.5089,-1.4896,-1.4364,-1.4298,-1.4298,-1.4298,-1.4298,-1.4298,-1.4298,-1.4298,-1.4298,-1.4298,-1.4298,-1.4298,-1.4298,-1.4298,-1.4298,-1.4298,-1.4298,-1.4431,-1.4702,-1.4702,-1.4835,-1.5083,-1.5089,-1.5095,0.0,0.0,-1.6584,-1.6467,-1.636,-1.6225,-1.5954,-1.5544,-1.5154,-1.5019,-1.445,-1.4039,-1.4039,-1.4039,-1.4214,-1.4763,-1.4992,-1.5288,-1.5813,-1.5813,-1.5728,-1.5644,-1.5704,0.0,0.0,0.0,0.0,-1.6803,-1.7237,-1.7678,-1.8131,-1.8493,-1.8764,-1.8939,-1.903,-1.9078,-1.9078,-1.9078,-1.9078,-1.9078,-1.9078,-1.9078,-1.9078,-1.9078,-1.9078,-1.9078,-1.9078,-1.9078,-1.9078,-1.9078,-1.9078,-1.9078,-1.9078,-1.9078,-1.9078,-1.9078,-1.8963,-1.8788,-1.8613,-1.8378,-1.8125,-1.7937,-1.7817,-1.7708,-1.7533,-1.7485,-1.7485,-1.7485,-1.7418,-1.731,-1.7135,-1.7026,-1.6893,-1.6622,-1.6416,-1.626,-1.6169,-1.6012,-1.5891,-1.5891,-1.5891,-1.5861,-1.5771,-1.5759,-1.5668,-1.5409,-1.5215,-1.498,-1.4618,-1.4576,-1.4503,-1.4316,-1.4298,-1.4298,-1.4298,-1.4298,-1.4298,-1.4298,-1.4473,-1.4576,-1.4576,-1.4745,-1.4835,-1.4835,-1.4835,-1.4883,-1.498,-1.498,-1.5022,-1.5113,-1.5288,-1.5366,0.0,-1.7702,-1.7213,-1.7471,-1.7002,-1.64,-1.6195,-1.5833,-1.5388,-1.4918,-1.4235,-1.3737,-1.3646,-1.3544,-1.3713,-1.4449,-1.4708,-1.5101,-1.5916,-1.5946,-1.5897,-1.5928,-1.5994,0.0,0.0,0.0,0.0,-1.6821,-1.7328,-1.7817,-1.8269,-1.8632,-1.8903,-1.9066,-1.9078,-1.9078,-1.9078,-1.9078,-1.9078,-1.9078,-1.9078,-1.9078,-1.9078,-1.9078,-1.9078,-1.9078,-1.9078,-1.9078,-1.9078,-1.9078,-1.9078,-1.9078,-1.9078,-1.9078,-1.9078,-1.9078,-1.9078,-1.9054,-1.8885,-1.865,-1.8402,-1.8221,-1.81,-1.7974,-1.7702,-1.7624,-1.7605,-1.7509,-1.7485,-1.7443,-1.7274,-1.7231,-1.7165,-1.6905,-1.67,-1.6519,-1.632,-1.6145,-1.6,-1.591,-1.5891,-1.5891,-1.5891,-1.5891,-1.5831,-1.5662,-1.5493,-1.5258,-1.4902,-1.4859,-1.4787,-1.4606,-1.4588,-1.4588,-1.4588,-1.4588,-1.4588,-1.4588,-1.4757,-1.4859,-1.4859,-1.5022,-1.5107,-1.5107,-1.5107,-1.5155,-1.5246,-1.5246,-1.5294,-1.539,-1.5559,-1.5638,-1.9048,-1.8333,-1.7662,-1.8275,-1.7555,-1.6584,-1.6052,-1.568,-1.5263,-1.4406,-1.3829,-1.3363,0.0,0.0,-1.3043,-1.4069,-1.4292,-1.4793,-1.6097,-1.6079,-1.6127,0.0,0.0,0.0,0.0,0.0,0.0,-1.7135,0.0,-1.8004,-1.83,-1.8801,-1.9078,-1.9078,-1.9078,-1.9078,-1.9078,-1.9078,-1.9078,-1.9078,-1.9078,-1.9078,-1.9078,-1.9078,-1.9078,-1.9078,-1.9078,-1.9078,-1.9078,-1.9078,-1.9078,-1.9078,-1.9078,-1.9078,-1.9078,-1.9078,-1.9078,-1.9078,-1.9078,-1.8915,-1.8704,-1.8686,-1.8517,-1.8263,-1.798,-1.7883,-1.7823,-1.7575,-1.7491,-1.7485,-1.7485,-1.7485,-1.7418,-1.7171,-1.7098,-1.6948,-1.6435,-1.6314,-1.6223,-1.5964,-1.5897,-1.5891,-1.5891,-1.5891,-1.5891,-1.5891,-1.5891,-1.5704,-1.5191,-1.5125,-1.5125,-1.5107,-1.5107,-1.5107,-1.5107,-1.5107,-1.5107,-1.5107,-1.5119,-1.5125,-1.5125,-1.5143,-1.5149,-1.5149,-1.5149,-1.527,-1.5517,-1.5517,-1.5644,-1.5891,-1.5891,-1.5897,-1.9557,-1.9151,-1.8746,-1.8728,-1.771,-1.6587,-1.6271,-1.5686,-1.4921,-1.3916,-1.3114,-1.2415,0.0,0.0,0.0,-1.3344,-1.4256,0.0,-1.6169,-1.641,0.0,0.0,0.0,-1.7286,-1.7545,-1.7575,0.0,0.0,-1.7919,-1.8082,-1.8559,-1.8897,-1.9078,-1.9078,-1.9078,-1.9078,-1.9078,-1.9078,-1.9078,-1.9078,-1.9078,-1.9078,-1.9078,-1.9078,-1.9078,-1.9078,-1.9078,-1.9078,-1.9078,-1.9078,-1.9078,-1.9078,-1.9078,-1.9078,-1.9078,-1.9078,-1.9078,-1.9078,-1.9078,-1.9036,-1.8945,-1.8746,-1.8638,-1.8535,-1.8269,-1.804,-1.7859,-1.7793,-1.763,-1.7485,-1.7485,-1.7485,-1.7467,-1.74,-1.7237,-1.705,-1.6911,-1.673,-1.6513,-1.6235,-1.6024,-1.5891,-1.5891,-1.5891,-1.5891,-1.5891,-1.5891,-1.5771,-1.5439,-1.5396,-1.5324,-1.5125,-1.5107,-1.5107,-1.5107,-1.5107,-1.5107,-1.5107,-1.5288,-1.5396,-1.5396,-1.559,-1.5692,-1.5692,-1.5692,-1.5722,-1.5789,-1.5789,-1.5825,-1.5891,-1.5891,-1.5994,-2.0881,-2.0397,-1.9697,-1.9694,-1.8564,-1.7148,-1.6002,-1.5216,-1.428,-1.2858,-1.2148,0.0,0.0,0.0,0.0,0.0,0.0,0.0,-1.6139,-1.6531,-1.6881,0.0,-1.7563,0.0,-1.8034,-1.8058,-1.8173,0.0,-1.8318,-1.8366,-1.8668,-1.8933,-1.9078,-1.9078,-1.9078,-1.9078,-1.9078,-1.9078,-1.9078,-1.9078,-1.9078,-1.9078,-1.9078,-1.9078,-1.9078,-1.9078,0.0,-1.9078,-1.9078,-1.9078,-1.9078,-1.9078,-1.9078,-1.9078,-1.9078,-1.9078,-1.9078,-1.9078,-1.9078,-1.9078,-1.9054,-1.8903,-1.8855,-1.8807,-1.8547,-1.8275,-1.8034,-1.7907,-1.7684,-1.7485,-1.7485,-1.7485,-1.7485,-1.7485,-1.737,-1.7231,-1.7117,-1.6978,-1.6791,-1.6519,-1.6247,-1.606,-1.606,-1.5964,-1.5891,-1.5891,-1.5891,-1.5837,-1.5686,-1.5674,-1.5614,-1.5469,-1.5451,-1.5451,-1.5451,-1.5451,-1.5451,-1.5451,-1.559,-1.5674,-1.5674,-1.5813,-1.5891,-1.5891,-1.5891,-1.5891,-1.5891,-1.5891,-1.5946,-1.606,-1.606,-1.6205,-2.2263,-2.1613,-2.0516,-2.0581,-1.9474,-1.7796,-1.5444,-1.4508,-1.3571,-1.1695,0.0,0.0,-0.9907,0.0,-1.1057,-1.2095,0.0,-1.4461,-1.6054,-1.6495,-1.6966,-1.7829,-1.7925,-1.8052,-1.8366,-1.8396,-1.8493,-1.8722,-1.8734,-1.8734,-1.8734,-1.8951,-1.9078,-1.9078,-1.9078,-1.9078,-1.9078,-1.9078,-1.9078,-1.9078,-1.9078,-1.9078,-1.9078,-1.9078,-1.9078,-1.9078,0.0,0.0,-1.9078,-1.9078,-1.9078,-1.9078,-1.9078,-1.9078,-1.9078,-1.9078,-1.9078,-1.9078,-1.9078,-1.9078,-1.9078,-1.9078,-1.9078,-1.9036,-1.8807,-1.8529,-1.8239,-1.7998,-1.7714,-1.7485,-1.7485,-1.7485,-1.7485,-1.7485,-1.7485,-1.7418,-1.7195,-1.7117,-1.7026,-1.6797,-1.6525,-1.6326,-1.629,-1.6091,-1.5928,-1.5897,-1.5891,-1.5891,-1.5891,-1.5891,-1.5891,-1.5891,-1.5891,-1.5891,-1.5891,-1.5891,-1.5891,-1.5891,-1.5891,-1.5891,-1.5891,-1.5891,-1.5891,-1.5891,-1.5922,-1.594,-1.594,-1.5982,-1.6115,-1.6338,-1.6338,-1.6483,-2.1656,-2.1613,-2.1205,-1.9578,-1.8799,-1.7728,-1.5245,-1.4033,0.0,0.0,0.0,-0.9841,-0.9253,0.0,0.0,-1.1814,0.0,0.0,0.0,0.0,0.0,0.0,0.0,0.0,0.0,0.0,0.0,0.0,0.0,0.0,-1.9006,-1.9048,-1.9078,-1.9078,-1.9078,-1.9078,-1.9078,-1.9078,-1.9078,-1.9078,-1.9078,-1.9078,-1.9078,-1.9078,-1.9078,-1.9078,-1.9078,0.0,-1.9078,-1.9078,-1.9078,-1.9078,-1.9078,-1.9078,-1.9078,-1.9078,-1.9078,-1.9078,-1.9078,-1.9078,-1.9078,-1.9078,-1.9078,-1.9066,-1.9018,-1.8674,-1.8281,-1.8233,-1.7865,-1.7485,-1.7485,-1.7485,-1.7485,-1.7485,-1.7485,-1.7473,-1.7424,-1.7243,-1.708,-1.7032,-1.6809,-1.6555,-1.632,-1.6241,-1.6139,-1.5922,-1.5891,-1.5891,-1.5891,-1.5891,-1.5891,-1.5891,-1.5891,-1.5891,-1.5891,-1.5891,-1.5891,-1.5891,-1.5891,-1.5891,-1.5891,-1.5891,-1.5891,-1.5891,-1.6103,-1.6211,-1.6211,-1.6447,-1.6585,-1.6628,-1.6628,-1.6767,-2.1384,-2.1359,-2.0978,-1.9244,-1.8386,-1.7215,-1.4566,0.0,0.0,0.0,0.0,-0.9036,-0.8514,0.0,0.0,0.0,0.0,0.0,0.0,0.0,0.0,0.0,0.0,0.0,0.0,0.0,0.0,0.0,0.0,0.0,-1.9078,-1.9078,-1.9078,-1.9078,-1.9078,-1.9078,-1.9078,-1.9078,-1.9078,-1.9078,-1.9078,-1.9078,-1.9078,-1.9078,-1.9078,-1.9078,-1.9078,0.0,-1.9078,-1.9078,-1.9078,-1.9078,-1.9078,-1.9078,-1.9078,-1.9078,-1.9078,-1.9078,-1.9078,-1.9078,-1.9078,-1.9078,-1.9078,-1.9078,-1.9078,-1.871,-1.8294,-1.8294,-1.7901,-1.7485,-1.7485,-1.7485,-1.7485,-1.7485,-1.7485,-1.7485,-1.7485,-1.7382,-1.7292,-1.7292,-1.708,-1.6863,-1.6724,-1.6471,-1.6241,-1.6109,-1.5976,-1.5891,-1.5891,-1.5891,-1.5891,-1.5891,-1.5891,-1.5891,-1.5891,-1.5891,-1.5891,-1.5891,-1.5891,-1.5891,-1.5891,-1.5891,-1.5958,-1.6091,-1.6217,-1.635,-1.6501,-1.6634,-1.6773,-1.6905,-1.6905,-1.7044,-2.077,-2.0892,-2.0686,-1.8831,-1.7965,-1.6839,-1.3955,-1.2466,0.0,0.0,0.0,0.0,-0.8118,0.0,0.0,0.0,0.0,0.0,0.0,0.0,0.0,0.0,0.0,0.0,0.0,0.0,0.0,0.0,0.0,0.0,-1.9078,-1.9078,-1.9078,-1.9078,-1.9078,-1.9078,-1.9078,-1.9078,-1.9078,-1.9078,-1.9078,-1.9078,-1.9078,-1.9078,-1.9078,-1.9078,-1.9078,0.0,0.0,-1.9078,-1.9078,-1.9078,-1.9078,-1.9078,-1.9078,-1.9078,-1.9078,-1.9078,-1.9078,-1.9078,-1.9078,-1.9078,-1.9078,-1.9078,-1.9078,-1.8752,-1.8366,-1.8312,-1.7943,-1.7551,-1.7497,-1.7485,-1.7485,-1.7485,-1.7485,-1.7485,-1.7485,-1.7485,-1.7485,-1.7485,-1.7316,-1.7159,-1.7098,-1.6736,-1.6435,-1.6374,-1.6145,-1.5976,-1.5976,-1.5928,-1.5891,-1.5891,-1.5891,-1.5891,-1.5891,-1.5891,-1.5891,-1.5891,-1.5891,-1.5916,-1.597,-1.5976,-1.6097,-1.6362,-1.6429,-1.6561,-1.6785,-1.6839,-1.6972,-1.7177,-1.7177,-1.7286,-1.9041,-2.0114,-2.1007,-1.7703,-1.7373,-1.6976,-1.3681,0.0,0.0,0.0,-0.867,-0.83,-0.849,0.0,0.0,0.0,0.0,0.0,0.0,0.0,0.0,0.0,0.0,0.0,0.0,0.0,0.0,0.0,0.0,0.0,0.0,-1.9078,-1.9078,-1.9078,-1.9078,-1.9078,-1.9078,-1.9078,-1.9078,-1.9078,-1.9078,-1.9078,-1.9078,-1.9078,-1.9078,-1.9078,-1.9078,0.0,0.0,-1.9078,-1.9078,-1.9078,-1.9078,-1.9078,-1.9078,-1.9078,-1.9078,-1.9078,-1.9078,-1.9078,-1.9078,-1.9078,-1.9078,-1.9078,-1.9078,-1.8879,-1.8601,-1.836,-1.8076,-1.7781,-1.7545,-1.7485,-1.7485,-1.7485,-1.7485,-1.7485,-1.7485,-1.7485,-1.7485,-1.7485,-1.7461,-1.737,-1.7135,-1.705,-1.6936,-1.67,-1.6423,-1.6241,-1.6241,-1.6036,-1.5891,-1.5891,-1.5891,-1.5891,-1.5891,-1.5891,-1.5891,-1.5891,-1.5891,-1.6,-1.6235,-1.6241,-1.6374,-1.6658,-1.6893,-1.7032,-1.7056,-1.7292,-1.7424,-1.7449,-1.7449,-1.7461,-1.8003,-1.8704,-1.9219,-1.6796,-1.6223,-1.5558,-1.3091,0.0,0.0,-0.9215,-0.8428,-0.8039,-0.8148,-0.8323,0.0,0.0,0.0,0.0,0.0,0.0,0.0,0.0,0.0,0.0,0.0,0.0,0.0,0.0,0.0,0.0,0.0,-1.9078,-1.9078,-1.9078,-1.9078,-1.9078,-1.9078,-1.9078,-1.9078,-1.9078,-1.9078,-1.9078,-1.9078,-1.9078,-1.9078,-1.9078,-1.9078,0.0,0.0,-1.9078,-1.9078,-1.9078,-1.9078,-1.9078,-1.9078,-1.9078,-1.9078,-1.9078,-1.9078,-1.9078,-1.9078,-1.9078,-1.9078,-1.9078,-1.9078,-1.8891,-1.8632,-1.8366,-1.8088,-1.7811,-1.7551,-1.7485,-1.7485,-1.7485,-1.7485,-1.7485,-1.7485,-1.7485,-1.7485,-1.7485,-1.7485,-1.7449,-1.7346,-1.7195,-1.7056,-1.6954,-1.6706,-1.6531,-1.6531,-1.6296,-1.6127,-1.6127,-1.5982,-1.5891,-1.5891,-1.6036,-1.6127,-1.6127,-1.6284,-1.6423,-1.6531,-1.6531,-1.6658,-1.693,-1.7038,-1.7171,-1.7328,-1.743,-1.7485,-1.7485,-1.7485,-1.7485,-1.6786,-1.7289,-1.7622,-1.6146,-1.5332,-1.4385,0.0,0.0,-1.0182,-0.8872,-0.8207,-0.7901,-0.7901,-0.8051,-0.8369,0.0,0.0,0.0,0.0,0.0,0.0,0.0,0.0,0.0,0.0,0.0,0.0,0.0,0.0,0.0,0.0,-1.9078,-1.9078,-1.9078,-1.9078,-1.9078,-1.9078,-1.9078,-1.9078,-1.9078,-1.9078,-1.9078,-1.9078,-1.9078,-1.9078,-1.9078,0.0,0.0,0.0,-1.9078,-1.9078,-1.9078,-1.9078,-1.9078,-1.9078,-1.9078,-1.9078,-1.9078,-1.9078,-1.9078,-1.9078,-1.9078,-1.9078,-1.9078,-1.9078,-1.8945,-1.8728,-1.839,-1.8034,-1.7714,-1.7533,-1.7485,-1.7485,-1.7485,-1.7485,-1.7485,-1.7485,-1.7485,-1.7485,-1.7485,-1.7485,-1.7485,-1.7485,-1.7328,-1.7207,-1.7207,-1.6984,-1.6815,-1.6815,-1.6573,-1.6404,-1.6404,-1.6241,-1.6097,-1.6012,-1.6247,-1.6404,-1.6404,-1.6592,-1.6736,-1.6815,-1.6815,-1.6936,-1.7201,-1.7207,-1.7298,-1.7485,-1.7485,-1.7485,-1.7485,-1.7485,-1.7485,-1.5201,-1.5964,-1.6692,-1.5761,-1.4907,-1.3912,0.0,-1.106,-0.9936,-0.857,-0.8087,-0.7901,-0.7901,-0.7907,-0.8159,-0.8969,0.0,0.0,0.0,0.0,0.0,0.0,0.0,0.0,0.0,0.0,0.0,0.0,0.0,0.0,0.0,-1.9078,-1.9078,-1.9078,-1.9078,-1.9078,-1.9078,-1.9078,-1.9078,-1.9078,-1.9078,-1.9078,-1.9078,-1.9078,-1.9078,0.0,0.0,0.0,0.0,-1.9078,-1.9078,-1.9078,-1.9078,-1.9078,-1.9078,-1.9078,-1.9078,-1.9078,-1.9078,-1.9078,-1.9078,-1.9078,-1.9078,-1.9078,-1.9078,-1.9072,-1.8963,-1.8438,-1.7907,-1.7485,-1.7485,-1.7485,-1.7485,-1.7485,-1.7485,-1.7485,-1.7485,-1.7485,-1.7485,-1.7485,-1.7485,-1.7485,-1.7485,-1.7479,-1.7479,-1.7479,-1.7255,-1.7086,-1.7086,-1.6857,-1.67,-1.67,-1.6694,-1.6579,-1.6302,-1.6537,-1.67,-1.67,-1.67,-1.6821,-1.7074,-1.7086,-1.7213,-1.7473,-1.7479,-1.7479,-1.7485,-1.7485,-1.7485,-1.7485,-1.7485,-1.7485,-1.2876,-1.35,-1.3933,-1.3227,-1.2792,-1.2202,-1.0938,-1.0205,-0.9485,-0.8499,-0.8081,-0.7901,-0.7901,-0.7901,-0.8279,-0.9462,-0.9793,0.0,0.0,0.0,0.0,0.0,0.0,0.0,0.0,0.0,0.0,0.0,0.0,0.0,0.0,-1.9078,-1.9078,-1.9078,-1.9078,-1.9078,-1.9078,-1.9078,-1.9078,-1.9078,-1.9078,-1.9078,-1.9078,-1.9078,0.0,0.0,0.0,0.0,0.0,-1.9078,-1.9078,-1.9078,-1.9078,-1.9078,-1.9078,-1.9078,-1.9078,-1.9078,-1.9078,-1.9078,-1.9078,-1.9078,-1.9078,-1.9078,-1.9078,-1.9078,-1.8963,-1.8438,-1.8034,-1.7708,-1.7527,-1.7485,-1.7485,-1.7485,-1.7485,-1.7485,-1.7485,-1.7485,-1.7485,-1.7485,-1.7485,-1.7485,-1.7485,-1.7485,-1.7485,-1.7485,-1.7412,-1.7358,-1.7358,-1.7129,-1.6966,-1.6966,-1.6966,-1.6857,-1.6592,-1.6815,-1.6966,-1.6966,-1.7135,-1.7267,-1.7358,-1.7358,-1.74,-1.7485,-1.7485,-1.7485,-1.7485,-1.7485,-1.7485,-1.7485,-1.7485,-1.7485,0.0,-1.1798,-1.2063,-1.1701,-1.1371,-1.0955,-1.0074,-0.9532,-0.9017,-0.8285,-0.8015,-0.7901,-0.7901,-0.7901,-0.8237,-0.9287,-0.9709,0.0,0.0,0.0,0.0,0.0,0.0,0.0,0.0,0.0,0.0,0.0,0.0,0.0,0.0,0.0,-1.9078,-1.9078,-1.9078,-1.9078,-1.9078,-1.9078,-1.9078,-1.9078,-1.9078,-1.9078,-1.9078,-1.9078,0.0,0.0,0.0,0.0,0.0,-1.9078,-1.9078,-1.9078,-1.9078,-1.9078,-1.9078,-1.9078,-1.9078,-1.9078,-1.9078,-1.9078,-1.9078,-1.9078,-1.9078,-1.9078,-1.9078,-1.9006,-1.8843,-1.8414,-1.8088,-1.7811,-1.7551,-1.7485,-1.7485,-1.7485,-1.7485,-1.7485,-1.7485,-1.7485,-1.7485,-1.7485,-1.7485,-1.7485,-1.7485,-1.7485,-1.7485,-1.7485,-1.7485,-1.7485,-1.7485,-1.734,-1.7237,-1.7237,-1.7237,-1.7171,-1.7008,-1.7141,-1.7237,-1.7237,-1.7394,-1.7485,-1.7485,-1.7485,-1.7485,-1.7485,-1.7485,-1.7485,-1.7485,-1.7485,-1.7485,-1.7485,-1.7485,-1.7485,0.0,-1.0754,-1.093,-1.0906,-1.0532,-1.0055,-0.9516,-0.9029,0.0,-0.8003,-0.7901,-0.7925,-0.8003,-0.7979,-0.8165,-0.883,0.0,0.0,0.0,0.0,0.0,0.0,0.0,0.0,0.0,0.0,0.0,0.0,0.0,0.0,0.0,0.0,-1.9078,-1.9078,-1.9078,-1.9078,-1.9078,-1.9078,-1.9078,-1.9078,-1.9078,-1.9078,-1.9078,-1.9078,0.0,0.0,0.0,0.0,0.0,-1.9078,-1.9078,-1.9078,-1.9078,-1.9078,-1.9078,-1.9078,-1.9078,-1.9078,-1.9078,-1.9078,-1.9078,-1.9078,-1.9078,-1.9078,-1.9078,-1.8909,-1.8656,-1.8372,-1.8106,-1.7835,-1.7551,-1.7485,-1.7485,-1.7485,-1.7485,-1.7485,-1.7485,-1.7485,-1.7485,-1.7485,-1.7485,-1.7485,-1.7485,-1.7485,-1.7485,-1.7485,-1.7485,-1.7485,-1.7485,-1.7485,-1.7485,-1.7485,-1.7485,-1.7485,-1.7485,-1.7485,-1.7485,-1.7485,-1.7485,-1.7485,-1.7485,-1.7485,-1.7485,-1.7485,-1.7485,-1.7485,-1.7485,-1.7485,-1.7485,-1.7485,-1.7485,-1.7485,-0.8423,0.0,-0.9282,-0.9072,-0.9015,-0.8903,0.0,-0.844,-0.8291,0.0,0.0,0.0,0.0,-0.8806,0.0,0.0,0.0,0.0,0.0,0.0,0.0,0.0,0.0,0.0,0.0,0.0,0.0,0.0,0.0,0.0,0.0,0.0,-1.9078,-1.9078,-1.9078,-1.9078,-1.9078,-1.9078,-1.9078,-1.9078,-1.9078,-1.9078,-1.9078,-1.9078,0.0,0.0,0.0,0.0,-1.9078,-1.9078,-1.9078,-1.9078,-1.9078,-1.9078,-1.9078,-1.9078,-1.9078,-1.9078,-1.9078,-1.9078,-1.9078,-1.9078,-1.9078,-1.9078,-1.9078,-1.9036,-1.8885,-1.8426,-1.8245,-1.8088,-1.7605,-1.7485,-1.7485,-1.7485,-1.7485,-1.7485,-1.7485,-1.7485,-1.7485,-1.7485,-1.7485,-1.7485,-1.7485,-1.7485,-1.7485,-1.7485,-1.7485,-1.7485,-1.7485,-1.7485,-1.7485,-1.7485,-1.7485,-1.7485,-1.7485,-1.7485,-1.7485,-1.7485,-1.7485,-1.7485,-1.7485,-1.7485,-1.7485,-1.7485,-1.7485,-1.7485,-1.7485,-1.7485,-1.7485,-1.7485,-1.7485,-1.7485,-0.7753,-0.8276,-0.8713,-0.8565,-0.8589,-0.86,-0.8459,0.0,0.0,0.0,0.0,0.0,0.0,0.0,0.0,0.0,0.0,0.0,0.0,0.0,0.0,0.0,0.0,0.0,0.0,0.0,0.0,0.0,0.0,0.0,0.0,0.0,-1.9078,-1.9078,-1.9078,-1.9078,-1.9078,-1.9078,-1.9078,-1.9078,-1.9078,-1.9078,-1.9078,-1.9078,-1.9078,0.0,0.0,0.0,-1.9078,-1.9078,-1.9078,-1.9078,-1.9078,-1.9078,-1.9078,-1.9078,-1.9078,-1.9078,-1.9078,-1.9078,-1.9078,-1.9078,-1.9078,-1.9078,-1.9078,-1.9078,-1.8963,-1.8438,-1.8294,-1.8167,-1.7624,-1.7485,-1.7485,-1.7485,-1.7485,-1.7485,-1.7485,-1.7485,-1.7485,-1.7485,-1.7485,-1.7485,-1.7485,-1.7485,-1.7485,-1.7485,-1.7485,-1.7485,-1.7485,-1.7485,-1.7485,-1.7485,-1.7485,-1.7485,-1.7485,-1.7485,-1.7485,-1.7485,-1.7485,-1.7485,-1.7485,-1.7485,-1.7485,-1.7485,-1.7485,-1.7485,-1.7485,-1.7485,-1.7485,-1.7485,-1.7485,-1.7485,-0.7728,-0.8309,-0.88,-0.868,-0.871,-0.8758,-0.8716,0.0,0.0,0.0,0.0,0.0,0.0,0.0,0.0,0.0,0.0,0.0,0.0,0.0,0.0,0.0,0.0,0.0,0.0,0.0,0.0,0.0,0.0,0.0,0.0,0.0,-1.9078,-1.9078,-1.9078,-1.9078,-1.9078,-1.9078,-1.9078,-1.9078,-1.9078,-1.9078,-1.9078,-1.9078,-1.9078,0.0,0.0,0.0,-1.9078,-1.9078,-1.9078,-1.9078,-1.9078,-1.9078,-1.9078,-1.9078,-1.9078,-1.9078,-1.9078,-1.9078,-1.9078,-1.9078,-1.9078,-1.9078,-1.9078,-1.9048,-1.8915,-1.8432,-1.8294,-1.8167,-1.7624,-1.7485,-1.7485,-1.7485,-1.7485,-1.7485,-1.7485,-1.7485,-1.7485,-1.7485,-1.7485,-1.7485,-1.7485,-1.7485,-1.7485,-1.7485,-1.7485,-1.7485,-1.7485,-1.7485,-1.7485,-1.7485,-1.7485,-1.7485,-1.7485,-1.7485,-1.7485,-1.7485,-1.7485,-1.7485,-1.7485,-1.7485,-1.7485,-1.7485,-1.7485,-1.7485,-1.7485,-1.7485,-1.7485,-1.7485,-1.7485,-1.7485,-0.7695,-0.8614,-0.9227,-0.8519,-0.871,-0.8981,0.0,0.0,0.0,0.0,0.0,0.0,0.0,0.0,0.0,0.0,0.0,0.0,0.0,0.0,0.0,0.0,0.0,0.0,0.0,0.0,0.0,0.0,0.0,0.0,0.0,0.0,-1.9078,-1.9078,-1.9078,-1.9078,-1.9078,-1.9078,-1.9078,-1.9078,-1.9078,-1.9078,-1.9078,-1.9078,-1.9078,0.0,0.0,-1.9078,-1.9078,-1.9078,-1.9078,-1.9078,-1.9078,-1.9078,-1.9078,-1.9078,-1.9078,-1.9078,-1.9078,-1.9078,-1.9078,-1.9078,-1.9078,-1.9078,-1.9078,-1.8921,-1.868,-1.8378,-1.8294,-1.8167,-1.7624,-1.7485,-1.7485,-1.7485,-1.7485,-1.7485,-1.7485,-1.7485,-1.7485,-1.7485,-1.7485,-1.7485,-1.7485,-1.7485,-1.7485,-1.7485,-1.7485,-1.7485,-1.7485,-1.7485,-1.7485,-1.7485,-1.7485,-1.7485,-1.7485,-1.7485,-1.7485,-1.7485,-1.7485,-1.7485,-1.7485,-1.7485,-1.7485,-1.7485,-1.7485,-1.7485,-1.7485,-1.7485,-1.7485,-1.7485,-1.7485,-1.7485,-0.7345,-0.8066,-0.8675,-0.8884,-0.957,-1.0136,0.0,0.0,0.0,0.0,0.0,0.0,0.0,0.0,0.0,0.0,0.0,0.0,0.0,0.0,0.0,0.0,0.0,0.0,0.0,0.0,0.0,0.0,0.0,0.0,0.0,0.0,-1.9078,-1.9078,-1.9078,-1.9078,-1.9078,-1.9078,-1.9078,-1.9078,-1.9078,-1.9078,-1.9078,-1.9078,-1.9078,-1.9078,0.0,-1.9078,-1.9078,-1.9078,-1.9078,-1.9136,-1.9705,-1.989,-1.989,-1.989,-1.989,-1.9826,-1.9264,-1.9078,-1.9078,-1.9078,-1.9078,-1.9078,-1.9078,-1.8988,-1.8813,-1.8408,-1.8185,-1.7974,-1.7581,-1.7485,-1.7485,-1.7485,-1.7485,-1.7485,-1.7485,-1.7485,-1.7485,-1.7485,-1.7485,-1.7485,-1.7485,-1.7485,-1.7485,-1.7485,-1.7485,-1.7485,-1.7485,-1.7485,-1.7485,-1.7485,-1.7485,-1.7485,-1.7485,-1.7485,-1.7485,-1.7485,-1.7485,-1.7485,-1.7485,-1.7485,-1.7485,-1.7485,-1.7485,-1.7485,-1.7485,-1.7485,-1.7485,-1.7485,-1.7485,-1.7485,-0.7206,-0.7657,-0.8219,-0.9185,0.0,0.0,0.0,0.0,0.0,0.0,0.0,0.0,0.0,0.0,0.0,0.0,0.0,0.0,0.0,0.0,0.0,0.0,0.0,0.0,0.0,0.0,0.0,0.0,0.0,0.0,0.0,0.0,-1.9078,-1.9078,-1.9078,-1.9078,-1.9078,-1.9078,-1.9078,-1.9078,-1.9078,-1.9078,-1.9078,-1.9078,-1.9078,-1.9078,-1.9078,-1.9078,-1.9078,-1.9078,-1.9078,-1.92,-1.9954,-2.0386,-2.0576,-2.0576,-2.0766,-2.0836,-2.0087,-1.9641,-1.945,-1.945,-1.9264,-1.9078,-1.9078,-1.9036,-1.8885,-1.8426,-1.8088,-1.7811,-1.7551,-1.7485,-1.7485,-1.7485,-1.7485,-1.7485,-1.7485,-1.7485,-1.7485,-1.7485,-1.7485,-1.7485,-1.7485,-1.7485,-1.7485,-1.7485,-1.7485,-1.7485,-1.7485,-1.7485,-1.7485,-1.7485,-1.7485,-1.7485,-1.7485,-1.7485,-1.7485,-1.7485,-1.7485,-1.7485,-1.7485,-1.7485,-1.7485,-1.7485,-1.7485,-1.7485,-1.7485,-1.7485,-1.7485,-1.7485,-1.7485,-1.7485,-0.7657,-0.8045,-0.8399,-0.8987,0.0,0.0,0.0,0.0,0.0,0.0,0.0,0.0,0.0,0.0,0.0,0.0,0.0,0.0,0.0,0.0,0.0,0.0,0.0,0.0,0.0,0.0,0.0,0.0,0.0,0.0,0.0,0.0,0.0,-1.9078,-1.9078,-1.9078,-1.9078,-1.9078,-1.9078,-1.9078,-1.9078,-1.9078,-1.9078,-1.9078,-1.9078,-1.9078,-1.9078,-1.9078,-1.9078,-1.9078,-1.9078,-1.9142,-1.92,-1.9763,-2.0576,-2.0576,-2.1215,-2.1978,-2.1922,-2.1278,-2.0513,-2.0513,-1.989,-1.9078,-1.9078,-1.8909,-1.8656,-1.8372,-1.8088,-1.7811,-1.7551,-1.7485,-1.7485,-1.7485,-1.7485,-1.7485,-1.7485,-1.7485,-1.7485,-1.7485,-1.7485,-1.7485,-1.7485,-1.7485,-1.7485,-1.7485,-1.7485,-1.7485,-1.7485,-1.7485,-1.7485,-1.7485,-1.7485,-1.7485,-1.7485,-1.7485,-1.7485,-1.7485,-1.7485,-1.7485,-1.7485,-1.7485,-1.7485,-1.7485,-1.7485,-1.7485,-1.7485,-1.7485,-1.7485,-1.7485,-1.7485,-1.7485,-0.7352,-0.7862,-0.8459,-0.9185,0.0,0.0,0.0,0.0,0.0,0.0,0.0,0.0,0.0,0.0,0.0,0.0,0.0,0.0,0.0,0.0,0.0,0.0,0.0,0.0,0.0,0.0,0.0,0.0,0.0,0.0,0.0,0.0,0.0,-1.8589,-1.8589,-1.8668,-1.8831,-1.8831,-1.8915,-1.9078,-1.9078,-1.9078,-1.9078,-1.9078,-1.9078,-1.9078,-1.9078,-1.9078,-1.9078,-1.9078,-1.945,-2.0138,-2.1405,-2.216,-2.2473,-2.2473,-2.1908,-2.1152,-2.1152,-2.0526,-1.9641,-1.9641,-1.9392,-1.9078,-1.9078,-1.8891,-1.8632,-1.8366,-1.8088,-1.7811,-1.7551,-1.7485,-1.7485,-1.7485,-1.7485,-1.7485,-1.7485,-1.7485,-1.7485,-1.7485,-1.7485,-1.7485,-1.7485,-1.7485,-1.7485,-1.7485,-1.7485,-1.7485,-1.7485,-1.7485,-1.7485,-1.7485,-1.7485,-1.7485,-1.7485,-1.7485,-1.7485,-1.7485,-1.7485,-1.7485,-1.7485,-1.7485,-1.7485,-1.7485,-1.7485,-1.7485,-1.7485,-1.7485,-1.7485,-1.7485,-1.7485,-1.7485,-0.7297,-0.7798,0.0,0.0,0.0,0.0,0.0,0.0,0.0,0.0,0.0,0.0,0.0,0.0,0.0,0.0,0.0,0.0,0.0,0.0,0.0,0.0,0.0,0.0,0.0,0.0,0.0,0.0,0.0,0.0,0.0,0.0,0.0,0.0,-1.8294,-1.8378,-1.8559,-1.8559,-1.865,-1.8831,-1.8831,-1.8915,-1.9078,-1.9078,-1.9078,-1.9136,-1.9456,-1.9577,-1.9577,-1.9896,-2.0462,-2.1215,-2.2606,-2.3293,-2.3549,-2.323,-2.2661,-2.1964,-2.165,-2.1089,-2.0462,-2.0151,-1.9833,-1.9514,-1.92,-1.8891,-1.8632,-1.8366,-1.8088,-1.7811,-1.7551,-1.7485,-1.7485,-1.7485,-1.7485,-1.7485,-1.7485,-1.7485,-1.7485,-1.7485,-1.7485,-1.7485,-1.7485,-1.7485,-1.7485,-1.7485,-1.7485,-1.7485,-1.7485,-1.7485,-1.7485,-1.7485,-1.7485,-1.7485,-1.7485,-1.7485,-1.7485,-1.7485,-1.7485,-1.7485,-1.7485,-1.7485,-1.7485,-1.7485,-1.7485,-1.7485,-1.7485,-1.7485,-1.7485,-1.7485,-1.7485,-1.7485,-0.7642,0.0,0.0,0.0,0.0,0.0,0.0,0.0,0.0,0.0,0.0,0.0,0.0,0.0,0.0,0.0,0.0,0.0,0.0,0.0,0.0,0.0,0.0,0.0,0.0,0.0,0.0,0.0,0.0,0.0,0.0,0.0,0.0,0.0,-1.8287,-1.8287,-1.8294,-1.8294,-1.8294,-1.8294,-1.8294,-1.8571,-1.9072,-1.9136,-1.9136,-1.9142,-2.0138,-2.0639,-2.0703,-2.1727,-2.2104,-2.2111,-2.2111,-2.2738,-2.3487,-2.248,-2.3362,-2.4919,-2.3922,-2.3611,-2.3425,-2.2425,-2.1411,-2.0392,-1.9386,-1.8891,-1.8625,-1.8366,-1.8088,-1.7811,-1.7551,-1.7485,-1.7485,-1.7485,-1.7485,-1.7485,-1.7485,-1.7485,-1.7485,-1.7485,-1.7485,-1.7485,-1.7485,-1.7485,-1.7485,-1.7485,-1.7485,-1.7485,-1.7485,-1.7485,-1.7485,-1.7485,-1.7485,-1.7485,-1.7485,-1.7485,-1.7485,-1.7485,-1.7485,-1.7485,-1.7485,-1.7485,-1.7485,-1.7485,-1.7485,-1.7485,-1.7485,-1.7485,-1.7485,-1.7485,-1.7485,-1.7485,-0.7388,0.0,0.0,0.0,0.0,0.0,0.0,0.0,0.0,0.0,0.0,0.0,0.0,0.0,0.0,0.0,0.0,0.0,0.0,0.0,0.0,0.0,0.0,0.0,0.0,0.0,0.0,0.0,0.0,0.0,0.0,0.0,0.0,0.0,-1.772,-1.7811,-1.7998,-1.7998,-1.8452,-1.9309,-1.9309,-1.913,-1.8864,-1.9537,-1.9587,-1.92,-2.0906,-2.1278,-2.0703,-2.2473,-2.3175,-2.3238,-2.3922,-2.3984,-2.3673,-2.4046,-2.3673,-2.2918,-2.2668,-2.2097,-2.1335,-2.0335,-1.9769,-1.9514,-1.92,-1.8764,-1.8396,-1.8318,-1.7956,-1.7581,-1.7503,-1.7485,-1.7485,-1.7485,-1.7485,-1.7485,-1.7485,-1.7485,-1.7485,-1.7485,-1.7485,-1.7485,-1.7485,-1.7485,-1.7485,-1.7485,-1.7485,-1.7485,-1.7485,-1.7485,-1.7485,-1.7485,-1.7485,-1.7485,-1.7485,-1.7485,-1.7485,-1.7485,-1.7485,-1.7485,-1.7485,-1.7485,-1.7485,-1.7485,-1.7485,-1.7485,-1.7485,-1.7485,-1.7485,-1.7485,-1.7485,-1.7485,0.0,0.0,0.0,0.0,0.0,0.0,0.0,0.0,0.0,0.0,0.0,0.0,0.0,0.0,0.0,0.0,0.0,0.0,0.0,0.0,0.0,0.0,0.0,0.0,0.0,0.0,0.0,0.0,0.0,0.0,0.0,0.0,0.0,0.0,-1.7485,-1.7557,-1.7714,-1.7714,-1.827,-1.9389,-1.9389,-1.9419,-1.9459,-2.0176,-2.0259,-1.9938,-2.1609,-2.2342,-2.2458,-2.3833,-2.4507,-2.4767,-2.5529,-2.5464,-2.4964,-2.5202,-2.4764,-2.3961,-2.3278,-2.2716,-2.195,-2.0716,-2.0017,-1.9641,-1.92,-1.871,-1.8294,-1.8294,-1.7901,-1.7485,-1.7485,-1.7485,-1.7485,-1.7485,-1.7485,-1.7485,-1.7485,-1.7485,-1.7485,-1.7485,-1.7485,-1.7485,-1.7485,-1.7485,-1.7485,-1.7485,-1.7485,-1.7485,-1.7485,-1.7485,-1.7485,-1.7485,-1.7485,-1.7485,-1.7485,-1.7485,-1.7485,-1.7485,-1.7485,-1.7485,-1.7485,-1.7485,-1.7485,-1.7485,-1.7485,-1.7485,-1.7485,-1.7485,-1.7485,-1.7485,-1.7485,-1.7485,0.0,0.0,0.0,0.0,0.0,0.0,0.0,0.0,0.0,0.0,0.0,0.0,0.0,0.0,0.0,0.0,0.0,0.0,0.0,0.0,0.0,0.0,0.0,0.0,0.0,0.0,0.0,0.0,0.0,0.0,0.0,0.0,0.0,-1.7772,-1.7655,-1.7655,-1.7772,-1.7655,-1.8181,0.0,-1.9216,-1.9815,-2.097,-2.1044,-2.1198,-2.1399,-2.2364,-2.3626,-2.5077,-2.5459,-2.5889,-2.6397,-2.679,-2.6944,-2.6823,-2.5956,-2.6225,-2.6744,-2.5071,-2.451,-2.4201,-2.248,-2.1265,-2.0353,-1.9419,-1.8736,-1.8319,-1.8257,-1.7883,-1.7485,-1.7485,-1.7485,-1.7485,-1.7485,-1.7485,-1.7485,-1.7485,-1.7485,-1.7485,-1.7485,-1.7485,-1.7485,-1.7485,-1.7485,-1.7485,-1.7485,-1.7485,-1.7485,-1.7485,-1.7485,-1.7485,-1.7485,-1.7485,-1.7485,-1.7485,-1.7485,-1.7485,-1.7485,-1.7485,-1.7485,-1.7485,-1.7485,-1.7485,-1.7485,-1.7485,-1.7543,-1.7543,-1.7543,-1.7543,-1.7596,-1.7543,-1.7543,0.0,0.0,0.0,0.0,0.0,0.0,0.0,0.0,0.0,0.0,0.0,0.0,0.0,0.0,0.0,0.0,0.0,0.0,0.0,0.0,0.0,0.0,0.0,0.0,0.0,0.0,0.0,0.0,0.0,0.0,0.0,0.0,0.0,-1.9693,-1.8991,-1.8933,-1.9693,-1.8997,-1.9673,0.0,-2.1722,-2.2498,-2.3835,-2.2536,-2.2782,-2.4156,-2.4015,-2.4551,-2.5635,-2.5711,-2.5804,-2.5954,-2.6389,-2.6534,-2.6568,-2.6626,-2.6805,-2.6684,-2.4571,-2.3822,-2.345,-2.1229,-2.0269,-1.9776,-1.933,-1.8828,-1.8335,-1.8088,-1.7732,-1.7485,-1.7485,-1.7485,-1.7485,-1.7485,-1.7485,-1.7485,-1.7485,-1.7485,-1.7485,-1.7485,-1.7485,-1.7485,-1.7485,-1.7485,-1.7485,-1.7485,-1.7485,-1.7485,-1.7485,-1.7485,-1.7485,-1.7485,-1.7485,-1.7485,-1.7485,-1.7485,-1.7485,-1.7485,-1.7485,-1.7485,-1.7485,-1.7485,-1.7485,-1.7485,-1.7485,-1.7602,-1.7908,-1.7908,-1.8018,-1.8188,-1.796,-1.7908,0.0,0.0,0.0,0.0,0.0,0.0,0.0,0.0,0.0,0.0,0.0,0.0,0.0,0.0,0.0,0.0,0.0,0.0,0.0,0.0,0.0,0.0,0.0,0.0,0.0,0.0,0.0,0.0,0.0,0.0,0.0,-1.9899,-1.9836,-2.0039,-1.9797,-2.0031,-2.0702,-2.0465,-2.1259,-2.291,-2.291,-2.3592,-2.4787,-2.3852,-2.3991,-2.4865,-2.4678,-2.502,-2.5791,-2.5974,-2.6224,-2.6496,-2.6933,-2.7075,-2.711,-2.7323,-2.7393,-2.7116,-2.5169,-2.4123,-2.3389,-2.1326,-2.0184,-1.9668,-1.9329,-1.8928,-1.8542,-1.8357,-1.8158,-1.7954,-1.7954,-1.7954,-1.7954,-1.7954,-1.7719,-1.7485,-1.7485,-1.7485,-1.7485,-1.7485,-1.7485,-1.7485,-1.7485,-1.7485,-1.7485,-1.7485,-1.7485,-1.7485,-1.7485,-1.7485,-1.7485,-1.7485,-1.7485,-1.7485,-1.7485,-1.7485,-1.7485,-1.7485,-1.7485,-1.7485,-1.7485,-1.7485,-1.7485,-1.7485,-1.7667,-1.7843,-1.7972,-1.8142,-1.8252,-1.8421,-1.8252,-1.8194,0.0,0.0,0.0,0.0,0.0,0.0,0.0,0.0,0.0,0.0,0.0,0.0,0.0,0.0,0.0,0.0,0.0,0.0,0.0,0.0,0.0,0.0,0.0,0.0,0.0,0.0,0.0,0.0,0.0,0.0,-2.0685,-2.0179,-1.9941,-2.0206,-2.063,-2.1082,-2.1534,-2.1918,-2.2687,-2.3725,-2.3847,-2.4381,-2.5119,-2.5119,-2.5064,-2.4953,-2.5064,-2.5404,-2.5879,-2.6192,-2.6669,-2.7114,-2.7564,-2.7721,-2.7673,-2.7794,-2.7822,-2.7573,-2.5763,-2.4607,-2.358,-2.168,-2.0445,-1.9626,-1.9309,-1.9041,-1.8818,-1.8758,-1.8593,-1.8421,-1.8421,-1.8421,-1.8421,-1.8421,-1.8012,-1.7661,-1.7661,-1.7661,-1.7661,-1.7661,-1.7661,-1.7661,-1.7661,-1.7661,-1.7655,-1.7596,-1.7602,-1.7596,-1.7485,-1.7485,-1.7485,-1.7485,-1.7485,-1.7543,-1.7602,-1.7543,-1.7543,-1.7602,-1.7543,-1.7543,-1.7602,-1.7602,-1.7602,-1.7661,-1.7908,-1.8031,-1.8083,-1.8363,-1.8538,-1.8596,-1.8538,-1.848,0.0,0.0,0.0,0.0,0.0,0.0,0.0,0.0,0.0,0.0,0.0,0.0,0.0,0.0,0.0,0.0,0.0,0.0,0.0,0.0,0.0,0.0,0.0,0.0,0.0,0.0,0.0,0.0,0.0,0.0,-2.1309,-2.1967,-2.2312,-2.236,-2.2113,-2.2398,-2.3285,-2.2909,-2.3447,-2.4867,-2.5746,-2.6245,-2.6364,-2.6364,-2.6081,-2.5624,-2.6136,-2.6418,-2.6482,-2.6537,-2.661,-2.671,-2.7105,-2.726,-2.7297,-2.7693,-2.7822,-2.747,-2.5052,-2.4129,-2.3598,-2.1115,-2.006,-1.9728,-1.937,-1.9102,-1.8816,-1.8531,-1.8447,-1.8421,-1.8421,-1.8421,-1.8421,-1.8421,-1.8363,-1.8305,-1.8305,-1.8305,-1.8305,-1.8305,-1.8305,-1.8305,-1.8305,-1.8305,-1.8246,-1.8071,-1.8012,-1.7895,-1.7543,-1.7485,-1.7485,-1.7485,-1.7485,-1.7608,-1.7908,-1.7667,-1.7608,-1.7908,-1.7667,-1.7602,-1.7908,-1.7908,-1.8018,-1.8305,-1.8083,-1.8083,-1.8363,-1.8648,-1.9004,-1.9249,-1.8946,-1.8823,0.0,0.0,0.0,0.0,0.0,0.0,0.0,0.0,0.0,0.0,0.0,0.0,0.0,0.0,0.0,0.0,0.0,0.0,0.0,0.0,0.0,0.0,0.0,0.0,0.0,0.0,0.0,0.0,0.0,-2.2016,-2.2016,-2.2431,-2.2728,-2.2938,-2.3087,-2.3443,-2.4096,-2.4191,-2.4703,-2.5594,-2.6044,-2.6362,-2.6591,-2.6591,-2.6473,-2.619,-2.6473,-2.6591,-2.6591,-2.6591,-2.6591,-2.6609,-2.6784,-2.6848,-2.6866,-2.704,-2.7105,-2.6909,-2.5269,-2.4235,-2.3364,-2.1566,-2.0422,-1.9766,-1.9423,-1.9277,-1.9127,-1.901,-1.8952,-1.8952,-1.8952,-1.8952,-1.8952,-1.8952,-1.8952,-1.8952,-1.8952,-1.8655,-1.8421,-1.8421,-1.8421,-1.8421,-1.8421,-1.8305,-1.8188,-1.8129,-1.7889,-1.7713,-1.7537,-1.7778,-1.7954,-1.783,-1.7948,-1.8071,-1.8194,-1.8071,-1.8071,-1.8194,-1.8071,-1.8071,-1.8194,-1.8194,-1.8311,-1.8421,-1.848,-1.8538,-1.8706,-1.9004,-1.9243,-1.9424,-1.9243,-1.9178,0.0,0.0,0.0,0.0,0.0,0.0,0.0,0.0,0.0,0.0,0.0,0.0,0.0,0.0,0.0,0.0,0.0,0.0,0.0,0.0,0.0,0.0,0.0,0.0,0.0,0.0,0.0,0.0,0.0,-2.2476,-2.2476,-2.2627,-2.2866,-2.316,-2.3679,-2.4128,-2.4414,-2.4954,-2.547,-2.5865,-2.5865,-2.6076,-2.6435,-2.6435,-2.649,-2.6591,-2.6591,-2.6591,-2.6591,-2.6591,-2.6591,-2.6591,-2.6591,-2.6591,-2.6591,-2.6591,-2.6591,-2.6464,-2.544,-2.4333,-2.3069,-2.1873,-2.0665,-1.9646,-1.9432,-1.9424,-1.9424,-1.9424,-1.9424,-1.9424,-1.9424,-1.9424,-1.9424,-1.9424,-1.9424,-1.9424,-1.9424,-1.901,-1.8655,-1.8655,-1.8655,-1.8655,-1.8655,-1.8538,-1.8421,-1.8421,-1.8188,-1.7954,-1.7954,-1.8246,-1.8357,-1.8246,-1.8421,-1.848,-1.8532,-1.848,-1.8421,-1.8532,-1.848,-1.8415,-1.8532,-1.8532,-1.8596,-1.8655,-1.8887,-1.8997,-1.8874,-1.9243,-1.9424,-1.9424,-1.9424,-1.9424,0.0,0.0,0.0,0.0,0.0,0.0,0.0,0.0,0.0,0.0,0.0,0.0,0.0,0.0,0.0,0.0,0.0,0.0,0.0,0.0,0.0,0.0,0.0,0.0,0.0,0.0,0.0,0.0,0.0,-2.2476,-2.2476,-2.2979,-2.3288,-2.3306,-2.3872,-2.4189,-2.4216,-2.4611,-2.5014,-2.5451,-2.5451,-2.5663,-2.6039,-2.6039,-2.6269,-2.6591,-2.6591,-2.6591,-2.6591,-2.6591,-2.6591,-2.6591,-2.6591,-2.6591,-2.6591,-2.6591,-2.6591,-2.6418,-2.5255,-2.4016,-2.2837,-2.1596,-2.0413,-1.9444,-1.943,-1.9424,-1.9424,-1.9424,-1.9424,-1.9424,-1.9424,-1.9424,-1.9424,-1.9424,-1.9424,-1.9424,-1.9424,-1.9366,-1.9366,-1.9366,-1.9366,-1.9366,-1.9366,-1.9366,-1.9307,-1.9307,-1.9307,-1.9307,-1.9307,-1.8777,-1.848,-1.8655,-1.8655,-1.8771,-1.8881,-1.859,-1.8538,-1.8881,-1.859,-1.8532,-1.8881,-1.8874,-1.9004,-1.9366,-1.9366,-1.9243,-1.8874,-1.9243,-1.9424,-1.9424,-1.9424,-1.9424,0.0,0.0,0.0,0.0,0.0,0.0,0.0,0.0,0.0,0.0,0.0,0.0,0.0,0.0,0.0,0.0,0.0,0.0,0.0,0.0,0.0,0.0,0.0,0.0,0.0,0.0,0.0,0.0,0.0,0.0,-2.3153,-2.3309,-2.3573,-2.3886,-2.4102,-2.4202,-2.4202,-2.4358,-2.4633,-2.4986,-2.4986,-2.5249,-2.5635,-2.5635,-2.5855,-2.6188,-2.6188,-2.6334,-2.6591,-2.6591,-2.6591,-2.6591,-2.6591,-2.6591,-2.6591,-2.6591,-2.6591,-2.6537,-2.6136,-2.5174,-2.4103,-2.3656,-2.2191,-2.0558,-2.0558,-1.9989,-1.9424,-1.9424,-1.9424,-1.9424,-1.9424,-1.9424,-1.9424,-1.9424,-1.9424,-1.9424,-1.9424,-1.9424,-1.9424,-1.9424,-1.9424,-1.9424,-1.9424,-1.9424,-1.9424,-1.9424,-1.9424,-1.9307,-1.901,-1.901,-1.9004,-1.8823,-1.901,-1.9185,-1.9243,-1.9127,-1.9068,-1.9185,-1.9127,-1.9068,-1.9243,-1.9243,-1.9301,-1.9424,-1.9424,-1.9366,-1.9243,-1.9366,-1.9424,-1.9424,-1.9424,-1.9424,0.0,0.0,0.0,0.0,0.0,0.0,0.0,0.0,0.0,0.0,0.0,0.0,0.0,0.0,0.0,0.0,0.0,0.0,0.0,0.0,0.0,0.0,0.0,0.0,0.0,0.0,0.0,0.0,0.0,0.0,-2.3279,-2.3297,-2.348,-2.3932,-2.395,-2.4064,-2.4202,-2.4202,-2.4339,-2.4624,-2.4624,-2.4785,-2.5221,-2.5221,-2.5442,-2.5819,-2.5819,-2.6078,-2.6591,-2.6591,-2.6591,-2.6591,-2.6591,-2.6591,-2.6591,-2.6591,-2.6591,-2.6591,-2.6591,-2.5798,-2.4778,-2.4778,-2.3424,-2.1794,-2.1794,-2.0952,-1.9989,-1.9989,-1.9707,-1.9424,-1.9424,-1.9424,-1.9424,-1.9424,-1.9424,-1.9424,-1.9424,-1.9424,-1.9424,-1.9424,-1.9424,-1.9424,-1.9424,-1.9424,-1.9424,-1.9424,-1.9424,-1.9307,-1.901,-1.9191,-1.9307,-1.912,-1.9243,-1.9424,-1.9424,-1.9424,-1.9424,-1.9424,-1.9424,-1.9424,-1.9424,-1.9424,-1.9424,-1.9424,-1.9424,-1.9424,-1.9424,-1.9424,-1.9424,-1.9424,-1.9424,-1.9424,0.0,0.0,0.0,0.0,0.0,0.0,0.0,0.0,0.0,0.0,0.0,0.0,0.0,0.0,0.0,0.0,0.0,0.0,0.0,0.0,0.0,0.0,0.0,0.0,0.0,0.0,0.0,0.0,0.0,-2.2876,-2.2885,-2.2904,-2.3087,-2.3462,-2.348,-2.3721,-2.4183,-2.4183,-2.4192,-2.4202,-2.4202,-2.4413,-2.4757,-2.4757,-2.4977,-2.5405,-2.5405,-2.5812,-2.6554,-2.6564,-2.6582,-2.6591,-2.6591,-2.6591,-2.6591,-2.6591,-2.6591,-2.6591,-2.6591,-2.5852,-2.4842,-2.4842,-2.4047,-2.3038,-2.3038,-2.2191,-2.1231,-2.1231,-2.0385,-1.9424,-1.9424,-1.9424,-1.9424,-1.9424,-1.9424,-1.9424,-1.9424,-1.9424,-1.9424,-1.9424,-1.9424,-1.9424,-1.9424,-1.9424,-1.9424,-1.9424,-1.9424,-1.9424,-1.9424,-1.9424,-1.9424,-1.9424,-1.9424,-1.9424,-1.9424,-1.9424,-1.9424,-1.9424,-1.9424,-1.9424,-1.9424,-1.9424,-1.9424,-1.9424,-1.9424,-1.9424,-1.9424,-1.9424,-1.9424,-1.9424,-1.9424,-1.9424,-0.738,0.0,0.0,0.0,0.0,0.0,0.0,0.0,0.0,0.0,0.0,0.0,0.0,0.0,0.0,0.0,0.0,0.0,0.0,0.0,0.0,0.0,0.0,0.0,0.0,0.0,0.0,0.0,-2.2025,-2.2153,-2.2437,-2.2739,-2.2959,-2.3068,-2.3068,-2.3261,-2.3712,-2.3712,-2.3859,-2.4202,-2.4202,-2.4266,-2.4376,-2.4376,-2.4606,-2.4941,-2.4941,-2.5234,-2.5729,-2.6067,-2.637,-2.6591,-2.6591,-2.6591,-2.6591,-2.6591,-2.6591,-2.6591,-2.6591,-2.6364,-2.6081,-2.6081,-2.5284,-2.427,-2.427,-2.3488,-2.2523,-2.2523,-2.1623,-2.05,-1.9655,-1.9424,-1.9424,-1.9424,-1.9424,-1.9424,-1.9424,-1.9424,-1.9424,-1.9424,-1.9424,-1.9424,-1.9424,-1.9424,-1.9424,-1.9424,-1.9424,-1.9424,-1.9424,-1.9424,-1.9424,-1.9424,-1.9424,-1.9424,-1.9424,-1.9424,-1.9424,-1.9424,-1.9424,-1.9424,-1.9424,-1.9424,-1.9424,-1.9424,-1.9424,-1.9424,-1.9424,-1.9424,-1.9424,-1.9424,-1.9424,-1.9424,0.0,0.0,0.0,0.0,0.0,0.0,0.0,0.0,0.0,0.0,0.0,0.0,0.0,0.0,0.0,0.0,0.0,0.0,0.0,0.0,0.0,0.0,0.0,0.0,0.0,0.0,0.0,-2.1696,-2.1696,-2.1797,-2.2025,-2.2272,-2.2474,-2.2638,-2.2648,-2.284,-2.3242,-2.3251,-2.3453,-2.3895,-2.3895,-2.3987,-2.4202,-2.4202,-2.4339,-2.4569,-2.4569,-2.4799,-2.5194,-2.5424,-2.5865,-2.6325,-2.6325,-2.6435,-2.6591,-2.6591,-2.6591,-2.6591,-2.6591,-2.6591,-2.6591,-2.6591,-2.6136,-2.5569,-2.5569,-2.4723,-2.3768,-2.3768,-2.2862,-2.168,-2.0443,-2.0162,-2.0046,-1.954,-1.9424,-1.9424,-1.9424,-1.9424,-1.9424,-1.9424,-1.9424,-1.9424,-1.9424,-1.9424,-1.9424,-1.9424,-1.9424,-1.9424,-1.9424,-1.9424,-1.9424,-1.9424,-1.9424,-1.9424,-1.9424,-1.9424,-1.9424,-1.9424,-1.9424,-1.9424,-1.9424,-1.9424,-1.9424,-1.9424,-1.9424,-1.9424,-1.9424,-1.9424,-1.9424,-1.9424,-1.9424,-1.9424,0.0,0.0,0.0,0.0,0.0,0.0,0.0,-1.179,0.0,0.0,0.0,0.0,0.0,0.0,0.0,0.0,0.0,0.0,0.0,0.0,0.0,0.0,0.0,0.0,0.0,-2.1668,-2.1696,-2.1696,-2.1696,-2.1696,-2.1696,-2.1696,-2.1851,-2.2199,-2.2217,-2.2419,-2.2831,-2.284,-2.3041,-2.3425,-2.3471,-2.373,-2.4137,-2.4183,-2.4202,-2.4202,-2.4202,-2.4413,-2.4711,-2.4711,-2.5231,-2.5957,-2.5993,-2.6241,-2.6527,-2.6573,-2.6591,-2.6591,-2.6591,-2.6591,-2.6591,-2.6591,-2.6591,-2.6591,-2.6591,-2.5852,-2.4953,-2.4834,-2.4047,-2.2918,-2.1737,-2.1288,-2.0952,-1.988,-1.9482,-1.9424,-1.9424,-1.9424,-1.9424,-1.9424,-1.9424,-1.9424,-1.9424,-1.9424,-1.9424,-1.9424,-1.9424,-1.9424,-1.9424,-1.9424,-1.9424,-1.9424,-1.9424,-1.9424,-1.9424,-1.9424,-1.9424,-1.9424,-1.9424,-1.9424,-1.9424,-1.9424,-1.9424,-1.9424,-1.9424,-1.9424,-1.9424,-1.9424,-1.9424,-1.9424,-1.9424,-1.9424,0.0,0.0,0.0,0.0,0.0,0.0,0.0,-1.2128,0.0,0.0,0.0,0.0,0.0,0.0,0.0,0.0,0.0,0.0,0.0,0.0,0.0,0.0,0.0,0.0,0.0,-2.1495,-2.1696,-2.1696,-2.1696,-2.1696,-2.1696,-2.1696,-2.1733,-2.1806,-2.1806,-2.1998,-2.24,-2.24,-2.2611,-2.3023,-2.3343,-2.3535,-2.3675,-2.4055,-2.4202,-2.4202,-2.4202,-2.4248,-2.4321,-2.4321,-2.4808,-2.5571,-2.5892,-2.6067,-2.6177,-2.6463,-2.6591,-2.6591,-2.6591,-2.6591,-2.6591,-2.6591,-2.6591,-2.6591,-2.6591,-2.6418,-2.6026,-2.5064,-2.4612,-2.4158,-2.2982,-2.1907,-2.1117,-2.0895,-2.0104,-1.9424,-1.9424,-1.9424,-1.9424,-1.9424,-1.9424,-1.9424,-1.9424,-1.9424,-1.9424,-1.9424,-1.9424,-1.9424,-1.9424,-1.9424,-1.9424,-1.9424,-1.9424,-1.9424,-1.9424,-1.9424,-1.9424,-1.9424,-1.9424,-1.9424,-1.9424,-1.9424,-1.9424,-1.9424,-1.9424,-1.9424,-1.9424,-1.9424,-1.9424,-1.9424,-1.9424,-1.9424,0.0,0.0,0.0,-1.2756,0.0,0.0,0.0,0.0,0.0,0.0,0.0,0.0,0.0,0.0,0.0,0.0,0.0,0.0,0.0,0.0,0.0,0.0,0.0,0.0,0.0,-2.0888,-2.1165,-2.141,-2.142,-2.1476,-2.1678,-2.1696,-2.1696,-2.1696,-2.1696,-2.1787,-2.1989,-2.1989,-2.219,-2.2602,-2.2794,-2.3105,-2.3499,-2.3749,-2.396,-2.4202,-2.4202,-2.4202,-2.4202,-2.4202,-2.445,-2.4854,-2.5267,-2.5543,-2.5764,-2.6123,-2.627,-2.6307,-2.6518,-2.6591,-2.6591,-2.6591,-2.6591,-2.6591,-2.6591,-2.6591,-2.6364,-2.5119,-2.4778,-2.439,-2.2587,-2.1623,-2.1067,-2.0443,-1.9815,-1.9424,-1.9424,-1.9424,-1.9424,-1.9424,-1.9424,-1.9424,-1.9424,-1.9424,-1.9424,-1.9424,-1.9424,-1.9424,-1.9424,-1.9424,-1.9424,-1.9424,-1.9424,-1.9424,-1.9424,-1.9424,-1.9424,-1.9424,-1.9424,-1.9424,-1.9424,-1.9424,-1.9299,-1.9152,-1.9005,-1.8931,-1.8931,-1.8931,-1.9085,-1.9424,-1.9424,-1.9424,0.0,0.0,0.0,0.0,0.0,-1.3038,0.0,0.0,0.0,0.0,0.0,0.0,0.0,0.0,0.0,0.0,0.0,0.0,0.0,0.0,0.0,0.0,0.0,0.0,0.0,-1.9783,-2.0283,-2.0842,-2.0732,-2.0924,-2.1531,-2.1568,-2.1604,-2.1696,-2.1696,-2.1696,-2.1696,-2.1696,-2.1851,-2.2172,-2.2245,-2.262,-2.3261,-2.3343,-2.3648,-2.4082,-2.4082,-2.4128,-2.4202,-2.4202,-2.4202,-2.4248,-2.462,-2.4977,-2.5307,-2.5754,-2.5901,-2.5947,-2.6233,-2.6353,-2.6353,-2.6353,-2.6353,-2.638,-2.6536,-2.6536,-2.6254,-2.5101,-2.4778,-2.427,-2.2135,-2.1345,-2.0952,-1.9989,-1.9591,-1.9424,-1.9424,-1.9424,-1.9424,-1.9424,-1.9424,-1.9424,-1.9424,-1.9424,-1.9424,-1.9424,-1.9424,-1.9424,-1.9424,-1.9424,-1.9424,-1.9424,-1.9424,-1.9424,-1.9424,-1.9424,-1.9424,-1.9424,-1.9312,-1.9279,-1.9279,-1.9225,-1.9085,-1.8844,-1.8611,-1.849,-1.849,-1.849,-1.8738,-1.9256,-1.9256,-1.9256,0.0,0.0,0.0,0.0,-1.5129,0.0,0.0,0.0,0.0,0.0,0.0,0.0,0.0,0.0,0.0,0.0,0.0,0.0,0.0,0.0,0.0,0.0,0.0,0.0,0.0,0.0,-1.8823,-1.9939,-1.9393,-1.9632,-2.1099,-2.1181,-2.1346,-2.1678,-2.1696,-2.1696,-2.1696,-2.1696,-2.1714,-2.176,-2.2117,-2.2327,-2.2428,-2.2803,-2.3187,-2.3563,-2.3563,-2.3822,-2.4202,-2.4202,-2.4202,-2.4248,-2.462,-2.4812,-2.4895,-2.5341,-2.5488,-2.5445,-2.5543,-2.5561,-2.5561,-2.5561,-2.5561,-2.5647,-2.6371,-2.6325,-2.5891,-2.5023,-2.4778,-2.4501,-2.3151,-2.2021,-2.1181,-2.101,-2.0155,-1.9424,-1.9424,-1.9424,-1.9424,-1.9424,-1.9424,-1.9424,-1.9424,-1.9424,-1.9424,-1.9424,-1.9424,-1.9424,-1.9424,-1.9424,-1.9424,-1.9424,-1.9424,-1.9424,-1.9424,-1.9424,-1.9424,-1.9424,-1.9118,-1.8978,-1.8978,-1.8724,-1.8577,-1.8544,-1.851,-1.849,-1.849,-1.849,-1.8524,-1.8591,-1.8591,-1.8591,0.0,0.0,0.0,0.0,0.0,0.0,0.0,0.0,-1.2854,0.0,0.0,0.0,0.0,0.0,0.0,0.0,0.0,0.0,0.0,0.0,0.0,0.0,0.0,0.0,0.0,0.0,0.0,0.0,0.0,-1.8605,-1.9989,-2.0512,-2.0952,-2.1355,-2.1568,-2.1696,-2.1696,-2.1696,-2.1696,-2.1696,-2.1861,-2.2062,-2.2327,-2.2465,-2.2767,-2.3169,-2.3398,-2.359,-2.3813,-2.4101,-2.4202,-2.422,-2.4395,-2.4468,-2.4514,-2.4876,-2.5032,-2.5111,-2.5341,-2.5424,-2.5424,-2.5424,-2.5424,-2.5488,-2.5775,-2.581,-2.5323,-2.3834,-2.3384,-2.3045,-2.1351,-2.0558,-2.0162,-2.0162,-1.9764,-1.9424,-1.9424,-1.9424,-1.9424,-1.9424,-1.9424,-1.9424,-1.9424,-1.9424,-1.9424,-1.9424,-1.9424,-1.9424,-1.9424,-1.9219,-1.9112,-1.9112,-1.8958,-1.8858,-1.8858,-1.8858,-1.8858,-1.8858,-1.8744,-1.8671,-1.8671,-1.839,-1.823,-1.823,-1.8056,-1.7963,-1.7963,-1.7963,-1.7963,-1.7969,-1.833,-1.849,-1.6056,0.0,0.0,0.0,0.0,0.0,0.0,0.0,0.0,0.0,0.0,0.0,0.0,0.0,0.0,0.0,0.0,0.0,0.0,0.0,0.0,0.0,0.0,0.0,0.0,0.0,0.0,0.0,0.0,0.0,-1.9054,-1.9806,-2.0466,-2.1089,-2.1476,-2.1696,-2.1696,-2.1696,-2.1696,-2.1696,-2.1696,-2.1842,-2.2117,-2.2117,-2.2346,-2.2748,-2.3041,-2.3288,-2.3517,-2.3868,-2.4101,-2.4202,-2.4202,-2.4202,-2.4238,-2.4551,-2.4661,-2.4707,-2.4992,-2.5084,-2.5111,-2.5221,-2.5185,-2.513,-2.535,-2.5298,-2.4864,-2.3178,-2.2735,-2.23,-2.0514,-2.0075,-1.9961,-1.9676,-1.9562,-1.9562,-1.9562,-1.9347,-1.924,-1.9512,-1.9347,-1.9125,-1.9125,-1.9259,-1.9424,-1.9424,-1.9299,-1.9245,-1.9245,-1.8991,-1.8804,-1.8804,-1.8617,-1.849,-1.849,-1.849,-1.8457,-1.8377,-1.837,-1.833,-1.8243,-1.8036,-1.7862,-1.7862,-1.7695,-1.7582,-1.7582,-1.7582,-1.7582,-1.7595,-1.8036,-1.8237,0.0,0.0,0.0,-1.512,0.0,0.0,0.0,0.0,-1.3635,0.0,0.0,0.0,0.0,0.0,0.0,0.0,0.0,0.0,0.0,0.0,0.0,0.0,0.0,0.0,0.0,0.0,0.0,0.0,0.0,0.0,-1.8586,-1.9118,-1.9888,-2.1071,-2.1476,-2.1696,-2.1696,-2.1696,-2.1696,-2.1696,-2.1696,-2.1696,-2.1714,-2.1714,-2.1925,-2.23,-2.2309,-2.2767,-2.3499,-2.3508,-2.3794,-2.4202,-2.4202,-2.4202,-2.4202,-2.422,-2.422,-2.422,-2.4238,-2.4238,-2.4312,-2.4666,-2.4578,-2.4385,-2.5185,-2.5157,-2.4621,-2.3773,-2.3551,-2.3286,-2.2065,-2.1742,-2.1418,-2.0325,-2.0052,-2.0052,-2.0052,-1.9264,-1.8836,-1.9895,-1.9264,-1.8517,-1.8517,-1.8991,-1.9424,-1.9424,-1.9125,-1.8938,-1.8938,-1.8684,-1.8504,-1.8504,-1.8497,-1.849,-1.849,-1.849,-1.837,-1.8029,-1.8009,-1.7923,-1.7622,-1.7602,-1.7595,-1.7595,-1.7589,-1.7582,-1.7582,-1.7582,-1.7582,-1.7582,-1.7602,-1.7609,0.0,0.0,-1.8064,-1.6175,0.0,0.0,0.0,0.0,0.0,0.0,0.0,0.0,0.0,0.0,0.0,0.0,0.0,0.0,0.0,0.0,0.0,0.0,0.0,0.0,0.0,0.0,0.0,0.0,0.0,0.0,0.0,-1.8018,-1.9081,-2.0292,-2.097,-2.1412,-2.1687,-2.1696,-2.1696,-2.1696,-2.1696,-2.1696,-2.1696,-2.1696,-2.1769,-2.1906,-2.2163,-2.2437,-2.273,-2.327,-2.3572,-2.3776,-2.4101,-2.4202,-2.4202,-2.4202,-2.4202,-2.4202,-2.4202,-2.4202,-2.422,-2.4367,-2.4321,-2.4257,-2.4532,-2.4523,-2.4245,-2.3436,-2.3176,-2.2965,-2.2023,-2.1818,-2.1711,-2.1325,-2.1225,-2.1225,-2.1225,-2.0954,-2.0799,-2.1163,-2.0954,-2.0691,-2.0691,-2.0219,-1.9591,-1.8897,-1.8704,-1.8637,-1.8637,-1.8377,-1.8142,-1.8142,-1.8009,-1.7889,-1.7889,-1.7889,-1.7849,-1.7749,-1.7742,-1.7695,-1.7589,-1.7582,-1.7582,-1.7582,-1.7582,-1.7582,-1.7582,-1.7582,-1.7582,-1.7582,-1.7582,-1.7582,-1.8054,-1.8374,0.0,-1.689,-1.6321,0.0,-1.4093,0.0,0.0,0.0,0.0,0.0,0.0,0.0,0.0,0.0,0.0,0.0,0.0,0.0,0.0,0.0,0.0,0.0,0.0,0.0,-1.2505,-1.3056,0.0,0.0,0.0,0.0,-1.8458,-1.9668,-2.0622,-2.131,-2.1687,-2.1696,-2.1696,-2.1696,-2.1696,-2.1696,-2.1696,-2.1696,-2.1696,-2.1705,-2.1961,-2.2153,-2.2318,-2.2849,-2.3233,-2.3526,-2.3831,-2.4073,-2.4202,-2.4202,-2.4202,-2.4202,-2.4202,-2.4202,-2.4202,-2.4202,-2.4202,-2.4202,-2.4202,-2.4202,-2.4108,-2.3547,-2.3414,-2.3313,-2.2814,-2.2655,-2.2551,-2.214,-2.2035,-2.2035,-2.2035,-2.1771,-2.1605,-2.1982,-2.1763,-2.1499,-2.1499,-2.0864,-2.0092,-1.9201,-1.8666,-1.833,-1.833,-1.807,-1.7883,-1.7883,-1.7702,-1.7582,-1.7582,-1.7582,-1.7582,-1.7582,-1.7582,-1.7582,-1.7582,-1.7582,-1.7582,-1.7582,-1.7582,-1.7582,-1.7582,-1.7582,-1.7582,-1.7582,-1.7582,-1.7582]},{"header":{"parameterUnit":"m.s-1","parameterCategory":1,"la1":30.6,"la2":29.2853,"lo1":-89.7004,"lo2":-87.6739,"dy":0.0162,"dx":0.0183,"nx":112,"ny":82,"refTime":"2025-07-06T12:00:00:Z","depth":0,"parameterNumber":3,"parameterNumberName":"V-component_of_WINDS"},"data":[0.0,0.0,0.0,0.0,0.0,0.0,0.0,0.0,0.0,0.0,0.0,0.0,0.0,0.0,0.0,0.0,0.0,0.0,0.0,0.0,0.0,0.0,0.0,0.0,0.0,0.0,0.0,0.0,0.0,0.0,0.0,0.0,0.0,0.0,0.0,0.0,0.0,0.0,0.0,0.0,0.0,0.0,0.0,0.0,0.0,0.0,0.0,0.0,0.0,0.0,0.0,0.0,0.0,0.0,0.0,0.0,0.0,0.0,0.0,0.0,0.0,0.0,0.0,0.0,0.0,0.0,0.0,0.0,0.0,0.0,0.0,0.0,0.0,0.0,0.0,0.0,0.0,0.0,0.0,0.0,0.0,0.0,0.0,0.0,0.0,0.0,0.0,0.0,0.0,0.0,0.0,-2.6052,-3.0381,-3.3045,-3.3157,-3.2221,-2.9973,-2.6135,0.0,0.0,0.0,0.0,0.0,0.0,0.0,0.0,0.0,0.0,0.0,0.0,0.0,0.0,0.0,0.0,0.0,0.0,0.0,0.0,0.0,0.0,0.0,0.0,0.0,0.0,0.0,0.0,0.0,0.0,0.0,0.0,0.0,0.0,0.0,0.0,0.0,0.0,0.0,0.0,0.0,0.0,0.0,0.0,0.0,0.0,0.0,0.0,0.0,0.0,0.0,0.0,0.0,0.0,0.0,0.0,0.0,0.0,0.0,0.0,0.0,0.0,0.0,0.0,0.0,0.0,0.0,0.0,0.0,0.0,0.0,0.0,0.0,0.0,0.0,0.0,0.0,0.0,0.0,0.0,0.0,0.0,0.0,0.0,0.0,0.0,0.0,0.0,0.0,0.0,0.0,0.0,0.0,0.0,0.0,0.0,0.0,0.0,0.0,0.0,0.0,0.0,0.0,0.0,-2.3118,-2.9211,-3.1738,-3.328,-3.3956,-3.2035,-2.9619,-2.6888,0.0,0.0,0.0,0.0,0.0,0.0,0.0,0.0,0.0,0.0,0.0,0.0,0.0,0.0,0.0,0.0,0.0,0.0,0.0,0.0,0.0,0.0,0.0,0.0,0.0,0.0,0.0,0.0,0.0,0.0,0.0,0.0,0.0,0.0,0.0,0.0,0.0,0.0,0.0,0.0,0.0,0.0,0.0,0.0,0.0,0.0,0.0,0.0,0.0,0.0,0.0,0.0,0.0,0.0,0.0,0.0,0.0,0.0,0.0,0.0,0.0,0.0,0.0,0.0,0.0,0.0,0.0,0.0,0.0,0.0,0.0,0.0,0.0,0.0,0.0,0.0,0.0,0.0,0.0,0.0,0.0,0.0,0.0,0.0,0.0,0.0,0.0,0.0,0.0,0.0,0.0,0.0,0.0,0.0,0.0,0.0,0.0,0.0,0.0,0.0,0.0,0.0,0.0,-2.3021,-2.6414,-3.079,-3.2704,-3.3788,-3.416,-3.2388,-3.002,-2.7149,-2.3882,0.0,0.0,0.0,0.0,0.0,0.0,0.0,0.0,0.0,0.0,0.0,0.0,0.0,0.0,0.0,0.0,0.0,0.0,0.0,0.0,0.0,0.0,0.0,0.0,0.0,0.0,0.0,0.0,0.0,0.0,0.0,0.0,0.0,0.0,0.0,0.0,0.0,0.0,0.0,0.0,0.0,0.0,0.0,0.0,0.0,0.0,0.0,0.0,0.0,0.0,0.0,0.0,0.0,0.0,0.0,0.0,0.0,0.0,0.0,0.0,0.0,0.0,0.0,0.0,0.0,0.0,0.0,0.0,0.0,0.0,0.0,0.0,0.0,0.0,0.0,0.0,0.0,0.0,0.0,0.0,0.0,0.0,0.0,0.0,0.0,0.0,0.0,0.0,0.0,0.0,0.0,0.0,0.0,0.0,0.0,0.0,0.0,0.0,0.0,0.0,0.0,0.0,-2.6805,-2.9359,-3.1831,-3.3343,-3.4197,-3.4197,-3.2388,-3.0023,-2.7186,-2.3566,0.0,0.0,0.0,0.0,0.0,0.0,0.0,0.0,0.0,0.0,0.0,0.0,0.0,0.0,0.0,0.0,0.0,0.0,0.0,0.0,0.0,0.0,0.0,0.0,0.0,0.0,0.0,0.0,0.0,0.0,0.0,0.0,0.0,0.0,0.0,0.0,0.0,0.0,0.0,0.0,0.0,0.0,0.0,0.0,0.0,0.0,0.0,0.0,0.0,0.0,0.0,0.0,0.0,0.0,0.0,0.0,0.0,0.0,0.0,0.0,0.0,0.0,0.0,0.0,0.0,0.0,0.0,0.0,0.0,0.0,0.0,0.0,0.0,0.0,0.0,0.0,0.0,0.0,0.0,0.0,0.0,0.0,0.0,0.0,0.0,0.0,0.0,0.0,0.0,0.0,0.0,0.0,0.0,0.0,0.0,0.0,0.0,0.0,0.0,0.0,0.0,0.0,-2.7345,-3.0233,-3.2667,-3.3677,-3.4197,-3.4197,-3.1348,-2.8832,-2.7112,-2.251,0.0,0.0,0.0,0.0,0.0,0.0,0.0,0.0,0.0,0.0,0.0,0.0,0.0,0.0,0.0,0.0,0.0,0.0,0.0,0.0,0.0,0.0,0.0,0.0,0.0,0.0,0.0,0.0,0.0,0.0,0.0,0.0,0.0,0.0,0.0,0.0,0.0,0.0,0.0,0.0,0.0,0.0,0.0,0.0,0.0,0.0,0.0,0.0,0.0,0.0,0.0,0.0,0.0,0.0,0.0,0.0,0.0,0.0,0.0,0.0,0.0,0.0,0.0,0.0,0.0,0.0,0.0,0.0,0.0,0.0,0.0,0.0,0.0,0.0,0.0,0.0,0.0,0.0,0.0,0.0,0.0,0.0,0.0,0.0,0.0,0.0,0.0,0.0,0.0,0.0,0.0,0.0,0.0,0.0,0.0,0.0,0.0,0.0,0.0,0.0,0.0,0.0,-2.7401,-3.0326,0.0,-3.3714,-3.4197,-3.4197,-3.2165,-2.9791,-2.7223,0.0,0.0,0.0,0.0,0.0,0.0,0.0,0.0,0.0,0.0,0.0,0.0,0.0,0.0,0.0,0.0,0.0,0.0,0.0,0.0,0.0,0.0,0.0,0.0,0.0,0.0,0.0,0.0,0.0,0.0,0.0,0.0,0.0,0.0,0.0,0.0,0.0,0.0,0.0,0.0,0.0,0.0,0.0,0.0,0.0,0.0,0.0,0.0,0.0,0.0,0.0,0.0,0.0,0.0,0.0,0.0,0.0,0.0,0.0,0.0,0.0,0.0,0.0,0.0,0.0,0.0,0.0,0.0,0.0,0.0,0.0,0.0,0.0,0.0,0.0,0.0,0.0,0.0,0.0,0.0,0.0,0.0,0.0,0.0,0.0,0.0,0.0,0.0,0.0,0.0,0.0,0.0,0.0,0.0,0.0,0.0,0.0,0.0,0.0,0.0,0.0,0.0,-2.473,-2.795,-3.0716,0.0,-3.3863,-3.4197,-3.4197,-3.2258,-2.9913,-2.7277,0.0,0.0,0.0,0.0,0.0,0.0,0.0,0.0,0.0,0.0,0.0,0.0,0.0,0.0,0.0,0.0,0.0,0.0,0.0,0.0,0.0,0.0,0.0,0.0,0.0,0.0,0.0,0.0,0.0,0.0,0.0,0.0,0.0,0.0,0.0,0.0,0.0,0.0,0.0,0.0,0.0,0.0,0.0,0.0,0.0,0.0,0.0,0.0,0.0,0.0,0.0,0.0,0.0,0.0,0.0,0.0,0.0,0.0,0.0,0.0,0.0,0.0,0.0,0.0,0.0,0.0,0.0,0.0,0.0,0.0,0.0,0.0,0.0,0.0,0.0,0.0,0.0,0.0,0.0,0.0,0.0,0.0,0.0,0.0,0.0,0.0,0.0,0.0,0.0,0.0,0.0,0.0,0.0,0.0,0.0,0.0,0.0,0.0,0.0,0.0,0.0,0.0,-2.6342,-2.9162,-3.1533,-3.3937,-3.4197,-3.4197,-3.4197,-3.1273,-2.8769,0.0,0.0,0.0,0.0,0.0,0.0,0.0,0.0,0.0,0.0,0.0,0.0,0.0,0.0,0.0,0.0,0.0,0.0,0.0,0.0,0.0,0.0,0.0,0.0,0.0,0.0,0.0,0.0,0.0,0.0,0.0,0.0,0.0,0.0,0.0,0.0,0.0,0.0,0.0,0.0,0.0,0.0,0.0,0.0,0.0,0.0,0.0,0.0,0.0,0.0,0.0,0.0,0.0,0.0,0.0,0.0,0.0,0.0,0.0,0.0,0.0,0.0,0.0,0.0,0.0,0.0,0.0,0.0,0.0,0.0,0.0,0.0,0.0,0.0,0.0,0.0,0.0,0.0,0.0,0.0,0.0,0.0,0.0,0.0,0.0,0.0,0.0,0.0,0.0,0.0,0.0,0.0,0.0,0.0,0.0,0.0,0.0,0.0,0.0,0.0,0.0,0.0,0.0,-2.6435,-2.9646,-3.2147,-3.3993,-3.4197,-3.4197,-3.4197,-3.2295,-2.9951,-2.7277,0.0,0.0,0.0,0.0,0.0,0.0,0.0,0.0,0.0,0.0,0.0,0.0,0.0,0.0,0.0,0.0,0.0,0.0,0.0,0.0,0.0,0.0,0.0,0.0,0.0,0.0,0.0,0.0,0.0,0.0,0.0,0.0,0.0,0.0,0.0,0.0,0.0,0.0,0.0,0.0,0.0,0.0,0.0,0.0,0.0,0.0,0.0,0.0,0.0,0.0,0.0,0.0,0.0,0.0,0.0,0.0,0.0,0.0,0.0,0.0,0.0,0.0,0.0,0.0,0.0,0.0,0.0,0.0,0.0,0.0,0.0,0.0,0.0,0.0,0.0,0.0,0.0,0.0,0.0,0.0,0.0,0.0,0.0,0.0,0.0,0.0,0.0,0.0,0.0,0.0,0.0,0.0,0.0,0.0,0.0,0.0,0.0,0.0,0.0,0.0,0.0,0.0,-2.6491,-2.9851,-3.2555,-3.4506,-3.4401,-3.4327,-3.4692,-3.3224,-3.0926,-2.7737,0.0,0.0,0.0,0.0,0.0,0.0,0.0,0.0,0.0,0.0,0.0,0.0,0.0,0.0,0.0,0.0,0.0,0.0,0.0,0.0,0.0,0.0,0.0,0.0,0.0,0.0,0.0,0.0,0.0,0.0,0.0,0.0,0.0,0.0,0.0,0.0,0.0,0.0,0.0,0.0,0.0,0.0,0.0,0.0,0.0,0.0,0.0,0.0,0.0,0.0,0.0,0.0,0.0,0.0,0.0,0.0,0.0,0.0,0.0,0.0,0.0,0.0,0.0,0.0,0.0,0.0,0.0,0.0,0.0,0.0,0.0,0.0,0.0,0.0,0.0,0.0,0.0,0.0,0.0,0.0,0.0,0.0,0.0,0.0,0.0,0.0,0.0,0.0,0.0,0.0,0.0,0.0,0.0,0.0,0.0,0.0,0.0,0.0,0.0,0.0,0.0,0.0,-2.6687,-3.0037,-3.2927,-3.525,-3.486,-3.4729,-3.5436,-3.4042,-3.1742,-2.8519,0.0,0.0,0.0,0.0,0.0,0.0,0.0,0.0,0.0,0.0,0.0,0.0,0.0,0.0,0.0,0.0,0.0,0.0,0.0,0.0,0.0,0.0,0.0,0.0,0.0,0.0,0.0,0.0,0.0,0.0,0.0,0.0,0.0,0.0,0.0,0.0,0.0,0.0,0.0,0.0,0.0,0.0,0.0,0.0,0.0,0.0,0.0,0.0,0.0,0.0,0.0,0.0,0.0,0.0,0.0,0.0,0.0,0.0,0.0,0.0,-2.6869,0.0,0.0,0.0,0.0,0.0,0.0,0.0,0.0,0.0,0.0,0.0,0.0,0.0,0.0,0.0,0.0,0.0,0.0,0.0,0.0,0.0,0.0,0.0,0.0,0.0,0.0,0.0,0.0,0.0,0.0,0.0,0.0,0.0,0.0,0.0,0.0,0.0,0.0,0.0,0.0,0.0,-2.7576,-3.1379,-3.4141,-3.538,-3.59,-3.5993,-3.5547,-3.4544,-3.2597,-2.9414,0.0,0.0,0.0,0.0,0.0,0.0,0.0,0.0,0.0,0.0,0.0,0.0,0.0,0.0,0.0,0.0,0.0,0.0,0.0,0.0,0.0,0.0,0.0,0.0,0.0,0.0,0.0,0.0,0.0,0.0,0.0,0.0,0.0,0.0,0.0,0.0,0.0,0.0,0.0,0.0,0.0,0.0,0.0,0.0,0.0,0.0,0.0,0.0,0.0,0.0,0.0,0.0,0.0,0.0,0.0,0.0,0.0,0.0,0.0,0.0,0.0,-3.0,0.0,0.0,0.0,0.0,0.0,0.0,0.0,0.0,0.0,0.0,0.0,0.0,0.0,0.0,0.0,0.0,0.0,0.0,0.0,0.0,0.0,0.0,0.0,0.0,0.0,0.0,0.0,0.0,0.0,0.0,0.0,0.0,0.0,0.0,0.0,0.0,0.0,0.0,0.0,0.0,-2.8502,-3.2031,-3.4829,-3.6495,-3.6681,-3.6686,-3.6649,-3.5529,-3.3775,-3.1336,-2.8909,0.0,0.0,0.0,0.0,0.0,0.0,0.0,0.0,0.0,0.0,0.0,0.0,0.0,0.0,0.0,0.0,0.0,0.0,0.0,0.0,0.0,0.0,0.0,0.0,0.0,0.0,0.0,0.0,0.0,0.0,0.0,0.0,0.0,0.0,0.0,0.0,0.0,0.0,0.0,0.0,0.0,0.0,0.0,0.0,0.0,0.0,0.0,0.0,0.0,0.0,0.0,0.0,0.0,-3.5956,-3.6486,-3.6261,-3.7286,-3.8022,-3.8385,-3.6494,-3.5808,-3.5721,0.0,0.0,0.0,0.0,0.0,0.0,0.0,0.0,0.0,0.0,0.0,0.0,0.0,0.0,0.0,0.0,0.0,0.0,0.0,0.0,0.0,0.0,0.0,0.0,0.0,-3.5577,-3.481,0.0,0.0,0.0,0.0,0.0,0.0,0.0,0.0,0.0,0.0,0.0,0.0,-2.9597,-3.284,-3.5627,-3.7671,-3.7429,-3.7318,-3.7856,-3.6551,-3.499,-3.3317,-3.1142,-2.8919,0.0,0.0,0.0,0.0,0.0,0.0,0.0,0.0,0.0,0.0,0.0,0.0,0.0,0.0,0.0,0.0,0.0,0.0,0.0,0.0,0.0,0.0,0.0,0.0,0.0,0.0,0.0,0.0,0.0,0.0,0.0,0.0,-1.8451,-2.1072,0.0,0.0,0.0,0.0,0.0,0.0,0.0,0.0,0.0,0.0,0.0,0.0,0.0,-3.3496,-3.5324,-3.7423,-3.852,-3.8657,-4.2221,-4.3505,-4.2802,-4.4383,-4.5148,-4.5191,-4.4907,0.0,-3.7456,-3.5572,0.0,0.0,0.0,0.0,0.0,0.0,0.0,0.0,0.0,0.0,0.0,0.0,0.0,0.0,0.0,0.0,0.0,0.0,0.0,0.0,0.0,0.0,-3.902,-3.7815,-3.8121,-3.826,0.0,-3.3903,-3.0858,-2.7932,-2.6419,0.0,0.0,0.0,0.0,0.0,0.0,0.0,-3.1264,-3.5002,-3.7541,-3.7856,-3.8432,-3.8544,-3.7949,-3.7071,-3.5844,-3.4141,-3.2444,-3.1057,-3.0087,-2.7214,0.0,0.0,0.0,0.0,0.0,0.0,0.0,0.0,0.0,0.0,0.0,0.0,0.0,0.0,0.0,0.0,0.0,0.0,0.0,0.0,0.0,0.0,0.0,0.0,0.0,0.0,0.0,0.0,0.0,-1.8469,-2.1648,-2.3265,-2.3971,-2.4142,0.0,0.0,0.0,0.0,0.0,0.0,0.0,0.0,0.0,-3.5503,-3.6747,-3.8396,-4.0474,-4.1974,-4.2943,-4.3405,-4.5146,-4.5769,-4.5435,-4.616,-4.6494,-4.6494,-4.6494,-4.5064,-4.2537,-3.9998,-3.8029,-3.6385,0.0,0.0,0.0,0.0,-3.4514,-3.512,-3.7318,-3.8078,0.0,0.0,0.0,0.0,0.0,0.0,0.0,0.0,0.0,0.0,0.0,0.0,0.0,-4.0933,-4.1547,-4.1931,-4.113,-3.9658,-3.7164,0.0,-3.2068,-3.0716,-2.5935,0.0,0.0,0.0,0.0,0.0,-3.3668,-3.6267,-3.8061,-3.8525,-3.8897,-3.8952,-3.8599,-3.7838,-3.6872,-3.5677,-3.4048,-3.2809,-3.2017,-2.9777,-2.797,0.0,0.0,0.0,0.0,0.0,0.0,0.0,0.0,0.0,0.0,0.0,0.0,0.0,0.0,0.0,0.0,0.0,0.0,0.0,0.0,0.0,0.0,0.0,0.0,0.0,0.0,0.0,0.0,-2.1633,-2.4704,-2.5415,-2.7289,-2.7932,0.0,0.0,0.0,0.0,0.0,0.0,-3.3944,-3.6194,-3.8244,-3.9954,-4.1334,-4.2873,-4.4618,-4.5268,-4.59,-4.6494,-4.6717,-4.681,-4.681,-4.7014,-4.7107,-4.7107,-4.7107,-4.7107,-4.6884,-4.3801,-4.1876,-4.0631,-3.8558,-3.7405,-3.7082,-3.8321,-3.8932,-3.9461,-4.1857,-4.2704,-4.2509,-4.1402,0.0,-3.9356,-3.6486,0.0,0.0,0.0,0.0,-3.7994,-3.9345,-4.0778,-4.212,-4.323,-4.3929,-4.4181,-4.3526,-4.3456,-4.2007,0.0,-3.6892,-3.584,-3.0377,0.0,0.0,0.0,0.0,-3.3578,-3.5615,-3.7227,-3.8432,-3.9045,-3.9101,-3.9101,-3.9101,-3.8358,-3.7559,-3.6742,-3.5343,-3.416,-3.3336,-3.1998,-3.0514,-2.8865,0.0,0.0,0.0,0.0,0.0,0.0,0.0,0.0,0.0,0.0,0.0,0.0,0.0,0.0,0.0,0.0,0.0,0.0,0.0,0.0,0.0,0.0,0.0,0.0,0.0,0.0,0.0,0.0,0.0,-2.792,-3.0753,0.0,0.0,0.0,0.0,-3.293,-3.4626,-3.6603,-3.8816,-4.0643,-4.2623,-4.4872,-4.5767,-4.6234,-4.6364,-4.642,-4.6457,-4.6513,-4.7274,-4.7646,-4.7664,-4.8426,-4.8779,-4.8779,-4.8779,-4.8779,-4.8593,-4.6122,-4.5064,-4.4912,-4.3965,-4.3556,-4.3537,-4.3612,-4.4169,-4.4912,-4.5061,-4.5117,-4.513,-4.5173,-4.3267,-4.0913,-4.0833,-3.9615,0.0,0.0,-4.054,-4.1905,-4.275,-4.3554,-4.4146,-4.424,-4.4124,-4.4017,-4.3965,-4.4102,-4.3459,0.0,-3.9685,-3.8327,-3.5639,0.0,-3.3873,-3.3026,-3.434,-3.5708,-3.6545,-3.8056,-3.9064,-3.9101,-3.9101,-3.9101,-3.9101,-3.8358,-3.7559,-3.6742,-3.59,-3.5045,-3.4179,-3.3336,-3.2173,-3.0601,-2.8128,0.0,0.0,0.0,0.0,0.0,0.0,0.0,0.0,0.0,0.0,0.0,0.0,0.0,0.0,0.0,0.0,0.0,0.0,0.0,0.0,0.0,0.0,0.0,0.0,0.0,0.0,0.0,0.0,-3.1894,-3.4457,0.0,0.0,-3.5566,-3.6676,-3.7782,-3.94,-4.1171,-4.3062,-4.4243,-4.523,-4.6048,-4.6847,-4.7516,-4.8036,-4.8556,-4.9094,-4.9652,-4.9949,-5.0079,-5.0098,-5.0376,-5.0506,-5.0506,-5.0506,-5.0506,-5.0432,-4.9577,-4.8277,-4.6754,-4.5937,-4.5602,-4.5602,-4.5602,-4.5807,-4.6067,-4.6067,-4.6067,-4.6099,-4.6221,-4.5596,-4.4809,-4.4864,-4.4065,-4.3184,-4.3466,-4.3571,-4.3661,-4.3858,-4.4086,-4.427,-4.4147,-4.4051,-4.4005,-4.4005,-4.4051,-4.3855,-4.2962,-4.2178,-4.0723,-3.7666,-3.7763,-3.7811,-3.6497,-3.767,-3.8975,-3.9747,-4.0346,-4.0698,-4.0698,-4.0253,-3.9937,-3.9937,-3.8692,-3.7559,-3.6742,-3.5423,-3.4302,-3.3466,-3.2667,-3.173,-3.0666,-2.9252,-2.6935,0.0,0.0,0.0,0.0,0.0,0.0,0.0,0.0,0.0,0.0,0.0,0.0,0.0,0.0,0.0,0.0,0.0,0.0,0.0,0.0,0.0,0.0,0.0,0.0,0.0,0.0,-3.3856,-3.4922,-3.7466,-3.8822,-3.8037,-3.9157,-4.0531,-4.1943,-4.328,-4.4655,-4.603,-4.6624,-4.7144,-4.7701,-4.824,-4.8909,-4.9745,-5.0283,-5.0822,-5.1398,-5.1398,-5.1398,-5.1398,-5.1398,-5.1398,-5.1398,-5.1398,-5.1398,-5.1398,-5.1398,-5.0432,-4.8909,-4.8351,-4.8147,-4.811,-4.7813,-4.772,-4.7701,-4.7404,-4.7125,-4.6936,-4.7061,-4.6981,-4.6829,-4.6888,-4.6502,-4.6046,-4.6046,-4.5623,-4.5096,-4.4726,-4.4639,-4.4534,-4.411,-4.4005,-4.4005,-4.4005,-4.4005,-4.4005,-4.4005,-4.3651,-4.2555,-4.0053,-4.05,-4.0764,-3.9425,-4.0128,-4.0996,-4.1534,-4.159,-4.159,-4.159,-4.1107,-4.068,-4.042,-3.9101,-3.7949,-3.7164,-3.5535,-3.4401,-3.3875,-3.2797,-3.1831,-3.1013,-2.9657,-2.7891,-2.5708,0.0,0.0,0.0,0.0,0.0,0.0,0.0,0.0,0.0,0.0,0.0,0.0,0.0,0.0,0.0,0.0,0.0,0.0,0.0,0.0,0.0,0.0,0.0,-2.9619,-3.3782,-3.6829,-3.6885,-3.9765,-4.1404,-4.0624,-4.2686,-4.4432,-4.5305,-4.6104,-4.6903,-4.7738,-4.7776,-4.85,-5.0098,-5.0153,-5.0562,-5.1435,-5.1435,-5.1454,-5.1472,-5.1472,-5.1472,-5.1472,-5.1472,-5.1472,-5.1472,-5.1472,-5.1472,-5.1472,-5.1472,-5.1472,-5.1472,-5.1416,-5.1398,-5.1305,-5.045,-5.019,-5.0098,-4.9243,-4.8426,-4.7791,-4.7903,-4.7407,-4.6785,-4.6919,-4.6858,-4.6735,-4.6735,-4.6624,-4.6308,-4.5528,-4.5342,-4.5119,-4.4246,-4.4042,-4.4023,-4.4005,-4.4005,-4.4005,-4.4005,-4.4005,-4.3745,-4.2965,-4.2835,-4.2575,-4.1776,-4.1664,0.0,-4.1664,-4.1664,-4.1664,-4.1664,-4.1646,-4.1311,-4.0531,-3.9621,-3.8767,-3.7949,-3.6365,-3.5454,-3.5454,-3.3875,-3.263,-3.1849,-2.9489,-2.8226,-2.8189,0.0,0.0,0.0,0.0,0.0,0.0,0.0,0.0,0.0,0.0,0.0,0.0,0.0,0.0,0.0,0.0,0.0,0.0,0.0,0.0,0.0,0.0,-3.4692,-3.4692,-3.7405,-3.9821,-4.0977,-4.2983,-4.4191,-4.3968,-4.5082,-4.6141,-4.6977,-4.7256,-4.798,-4.9373,-4.9447,-4.993,-5.1008,-5.1045,-5.1435,-5.2271,-5.2271,-5.2568,-5.3144,-5.3144,-5.3144,-5.3144,-5.3144,-5.3144,-5.3144,-5.3144,-5.3144,-5.3144,-5.3144,-5.3144,-5.3032,-5.1862,-5.1398,-5.1361,-5.1138,-5.1045,-5.0952,-5.0079,-4.9633,-4.9355,-4.8793,-4.8475,-4.8306,-4.834,-4.7913,-4.7434,-4.7434,-4.6973,-4.6438,-4.6234,-4.616,-4.5955,-4.5138,-4.4934,-4.4766,-4.4135,-4.4005,-4.4005,-4.4005,-4.4005,-4.3931,-4.3708,-4.367,-4.3596,-4.3373,-4.3336,0.0,-4.3336,-4.3336,-4.3336,-4.3336,-4.2816,-4.237,-4.2166,-4.0271,-3.8767,-3.7949,-3.5807,-3.455,-3.455,-3.3559,-3.2908,-3.2667,-3.1998,-3.1087,0.0,0.0,0.0,0.0,0.0,0.0,0.0,0.0,0.0,0.0,0.0,0.0,0.0,0.0,0.0,0.0,0.0,0.0,0.0,0.0,0.0,0.0,-3.6253,-3.8502,-3.9157,-4.0494,-4.1999,-4.3652,-4.4711,-4.5565,-4.6234,-4.6735,-4.7348,-4.8147,-4.8519,-4.9113,-5.006,-5.045,-5.1026,-5.1881,-5.1899,-5.2289,-5.3088,-5.3107,-5.3348,-5.3813,-5.3813,-5.398,-5.4314,-5.4314,-5.4314,0.0,-5.4314,-5.411,-5.3813,-5.3813,-5.3813,0.0,0.0,0.0,0.0,0.0,-5.1695,-5.1323,-5.0822,-5.0636,-5.058,-5.0098,-4.9707,-4.941,-4.941,-4.8834,-4.8203,-4.8203,-4.7868,-4.7423,-4.7088,-4.6995,-4.6791,-4.5992,-4.5547,-4.5157,-4.4655,-4.4265,-4.4005,-4.4005,-4.4005,0.0,-4.4005,-4.4005,-4.4005,-4.4005,-4.4005,-4.4005,-4.4005,-4.4005,-4.4005,-4.4005,-4.3578,-4.3169,-4.2835,-4.1163,0.0,0.0,0.0,-3.5442,-3.4773,-3.4302,0.0,0.0,0.0,0.0,0.0,0.0,0.0,0.0,-3.2634,-3.2601,0.0,0.0,0.0,0.0,0.0,0.0,0.0,0.0,0.0,0.0,0.0,0.0,0.0,0.0,0.0,0.0,-3.9565,-4.1237,-4.2853,-4.3076,-4.3633,-4.5119,-4.5454,-4.6122,-4.7553,-4.7868,-4.8277,-4.8983,-4.98,-5.0302,-5.0395,0.0,0.0,0.0,0.0,-5.3125,-5.3943,-5.3943,-5.398,-5.4091,-5.4091,-5.4463,-5.515,-5.515,-5.515,-5.515,-5.515,-5.4741,-5.4073,-5.398,-5.3887,-5.3813,-5.3813,-5.3813,-5.372,-5.2995,-5.2289,-5.1658,-5.1565,0.0,0.0,-5.1435,-5.0878,-5.0228,-5.0135,-4.9596,-4.902,-4.8927,-4.8909,-4.8742,-4.8017,-4.785,-4.7627,-4.6828,-4.6085,-4.5547,-4.5454,-4.4748,-4.4153,-4.4153,-4.4079,-4.4005,-4.4005,-4.4005,-4.4005,-4.4005,-4.4005,-4.4005,-4.4005,-4.4005,-4.4005,-4.4005,0.0,0.0,-4.3002,-4.2203,-4.1386,-4.0601,-3.9045,-3.7541,-3.6105,-3.6142,-3.616,-3.6049,-3.6848,-3.7912,-3.925,-4.0104,-4.0583,-4.055,-3.6067,-3.5479,0.0,0.0,0.0,0.0,0.0,0.0,0.0,0.0,0.0,0.0,0.0,0.0,0.0,0.0,0.0,-3.9542,-4.1274,-4.2909,-4.4581,-4.4822,-4.4934,-4.5249,-4.6438,-4.7367,-4.7664,-4.8872,-4.9707,-4.9875,-5.0655,-5.1435,-5.2085,-5.2289,0.0,-5.3553,-5.3571,-5.3961,-5.476,-5.4779,-5.5131,-5.5819,0.0,0.0,-5.606,-5.606,-5.606,-5.606,-5.606,-5.5967,-5.5763,-5.5057,-5.4407,-5.3813,-5.3813,-5.3813,-5.3775,-5.3627,-5.3478,-5.3237,-5.2587,-5.2364,-5.2271,-5.1602,-5.1286,-5.1026,-5.032,-4.9986,0.0,-4.9076,-4.8909,-4.8872,-4.8723,-4.8667,-4.8481,-4.7664,-4.7348,-4.7051,-4.6401,-4.5621,-4.5045,-4.5045,-4.4488,-4.4005,-4.4005,-4.4005,-4.4005,-4.4005,-4.4005,-4.4005,-4.4005,-4.4005,-4.4005,-4.4005,-4.4005,-4.3949,-4.3782,-4.302,-4.2222,-4.1423,-4.0438,-3.9784,-3.9468,-4.0067,-4.0118,-3.9468,-4.0248,-4.0494,-4.0155,-4.0958,-4.1702,-4.2296,-4.068,-3.9918,0.0,0.0,0.0,0.0,0.0,0.0,0.0,0.0,0.0,0.0,0.0,-3.4135,0.0,0.0,-3.9807,-4.1869,-4.3243,-4.4339,-4.5175,-4.5992,-4.6494,-4.6494,-4.7218,-4.7868,-4.8259,-4.9392,-5.0098,-5.0098,-5.1286,-5.2178,-5.2587,-5.2977,-5.3571,-5.4388,-5.4407,-5.4816,-5.5652,-5.5652,-5.5874,-5.6302,-5.6302,-5.6506,-5.6896,-5.6896,-5.6896,-5.6896,-5.6896,-5.6673,-5.6265,-5.5837,-5.541,-5.502,-5.4574,-5.4166,-5.3813,-5.3813,-5.3813,-5.3738,-5.3348,-5.32,-5.3144,-5.2735,-5.2327,-5.1918,-5.1491,-5.1082,-5.058,-4.9745,-4.9503,-4.941,-4.9002,-4.8909,-4.8797,-4.8407,-4.7999,-4.759,-4.7181,-4.6475,-4.5769,-4.5379,-4.4952,-4.4506,-4.4079,-4.4005,-4.4005,-4.4005,-4.4005,-4.4005,-4.4005,-4.4005,-4.4005,-4.4005,-4.4005,-4.4005,-4.4005,-4.3262,-4.263,-4.2222,-4.1441,-4.0996,-4.0996,-4.1386,-4.1404,-4.101,-4.1776,-4.1999,-4.159,-4.2407,-4.3002,-4.3392,-4.2983,-4.2593,0.0,0.0,0.0,0.0,0.0,0.0,0.0,0.0,-3.2518,-3.4302,-3.5882,-3.7517,-3.9454,-4.0513,-4.1776,-4.3912,-4.4841,-4.5398,-4.5714,-4.6884,-4.7757,-4.7906,-4.7924,-4.8259,-4.9057,-4.9875,-5.0432,-5.058,-5.1992,-5.2828,-5.2828,-5.3608,-5.4333,-5.4983,-5.5169,-5.567,-5.6525,-5.6525,-5.6617,-5.6766,-5.6766,-5.7119,-5.7732,-5.7732,-5.7732,-5.7732,-5.7732,-5.7286,-5.6525,-5.6525,-5.645,-5.6227,-5.554,-5.4871,-5.4258,-5.3924,-5.3813,-5.3813,-5.3813,-5.3813,-5.3813,-5.3813,-5.3367,-5.281,-5.2661,-5.2159,-5.1454,-5.0599,-5.0228,-4.9949,-4.9299,-4.902,-4.8909,-4.8909,-4.8407,-4.7924,-4.7924,-4.7293,-4.6531,-4.5881,-4.5639,-4.5249,-4.4395,-4.4246,-4.4191,-4.4023,-4.4005,-4.4005,-4.4005,-4.4005,-4.4005,-4.4005,-4.4005,-4.4005,-4.4005,-4.341,-4.302,-4.302,-4.2407,-4.2073,-4.2073,-4.2073,-4.2073,-4.2073,-4.2705,-4.302,-4.302,-4.367,-4.4005,-4.4005,-4.4005,-4.4005,-2.4564,-2.6224,0.0,-3.0899,-3.1076,-3.2255,0.0,0.0,-3.7764,-4.0141,-4.1349,-4.2073,-4.2333,-4.3039,-4.3931,-4.4971,-4.5231,-4.5788,-4.7237,-4.759,-4.798,-4.8686,-4.8779,-4.9076,-4.9893,-5.0748,-5.1546,-5.2271,-5.3162,-5.3683,-5.3683,-5.4444,-5.4927,-5.5001,-5.5763,-5.6543,-5.736,-5.7379,-5.7732,-5.8438,-5.8438,-5.8494,-5.8586,-5.8586,-5.8586,-5.8586,-5.8586,-5.8122,-5.7379,-5.7379,-5.6952,-5.6302,-5.619,-5.6097,-5.5837,-5.4351,-5.3813,-5.3813,-5.3813,-5.3813,-5.3813,-5.3813,-5.3738,-5.3534,-5.2828,-5.2549,-5.2308,-5.1472,-5.0711,-5.0079,-4.9986,-4.9447,-4.8909,-4.8909,-4.8834,-4.8779,-4.8779,-4.8129,-4.7534,-4.746,-4.6847,-4.6104,-4.5287,-4.5138,-4.4878,-4.4116,-4.4005,-4.4005,-4.4005,-4.4005,-4.4005,-4.4005,-4.4005,-4.4005,-4.4005,-4.3912,-4.3875,-4.3875,-4.3782,-4.3726,-4.3726,-4.3726,-4.3726,-4.3726,-4.3819,-4.3875,-4.3875,-4.3968,-4.4005,-4.4005,-4.4005,-4.4005,-2.8418,0.0,0.0,0.0,-3.4966,-3.6611,-3.9409,-4.0022,-4.0422,-4.1924,-4.2916,-4.3503,-4.3503,-4.3763,-4.4283,0.0,-4.5677,-4.6401,-4.7534,-4.7701,-4.7813,-4.8166,-4.8203,-4.8519,-4.9317,-5.0618,-5.1546,-5.1881,-5.3088,-5.3998,-5.4481,-5.4834,-5.5466,-5.6432,-5.6822,-5.7379,-5.8196,-5.8215,-5.8382,-5.8716,-5.8716,-5.8716,-5.8716,-5.8716,-5.8716,-5.8716,-5.8716,-5.8512,-5.8215,-5.8215,-5.8011,-5.7658,-5.7175,-5.7008,-5.6859,-5.5689,-5.4946,-5.45,-5.45,-5.4203,-5.3813,-5.3813,-5.3813,-5.3738,-5.3404,-5.3311,-5.3144,-5.2327,-5.1844,-5.1342,-5.0358,-4.9856,-4.9485,-4.902,-4.8909,-4.8909,-4.8909,-4.8649,-4.8259,-4.7794,-4.7423,-4.694,-4.6141,-4.5992,-4.5714,-4.4878,-4.4321,-4.4005,-4.4005,-4.4005,-4.4005,-4.4005,-4.4005,-4.4005,-4.4005,-4.4005,-4.4005,-4.4005,-4.4005,-4.4005,-4.4005,-4.4005,-4.4005,-4.4005,-4.4005,-4.4005,-4.4005,-4.4005,-4.4005,-4.4005,-4.4525,-4.4748,-3.0732,0.0,0.0,-3.5942,-3.8247,-4.0115,-4.0225,-4.1228,-4.2341,-4.2915,-4.3553,-4.4005,-4.4005,-4.4005,0.0,-4.5454,-4.6122,-4.6865,-4.7887,-4.785,-4.7776,-4.7999,-4.785,-4.8017,-4.8816,-5.0209,-5.1231,-5.1695,-5.3032,-5.4166,-5.4964,-5.5447,-5.6265,-5.7472,-5.7732,-5.8122,-5.8698,-5.8716,-5.8716,-5.8716,-5.8716,-5.8716,-5.8716,-5.8716,-5.8716,-5.8716,-5.8716,-5.8716,-5.8716,-5.8716,-5.8716,-5.8642,-5.8066,-5.7843,-5.7769,-5.7175,-5.6283,-5.5373,-5.5373,-5.4834,-5.4128,-5.4128,-5.398,-5.3813,-5.3813,-5.3813,-5.3683,-5.3088,-5.2772,-5.2327,-5.1101,-5.0618,-5.0246,-4.9429,-4.9243,-4.9169,-4.8946,-4.8909,-4.8723,-4.8147,-4.8036,-4.7776,-4.6977,-4.6828,-4.655,-4.5751,-4.5082,-4.4525,-4.4061,-4.4005,-4.4005,-4.4005,-4.4005,-4.4005,-4.4005,-4.4005,-4.4005,-4.4005,-4.4005,-4.4005,-4.4005,-4.4005,-4.4005,-4.4005,-4.4005,-4.4116,-4.4358,-4.4358,-4.4469,-4.4711,-4.5342,-4.5621,0.0,0.0,-3.6787,-3.894,-4.0609,-4.2083,-4.3354,-4.374,-4.3841,-4.386,-4.3942,-4.4005,-4.4005,-4.4005,-4.4544,-4.6197,-4.6475,-4.7051,-4.8649,-4.8184,-4.7999,-4.8779,-4.8166,-4.8017,0.0,-4.9652,-5.0822,-5.2438,-5.333,-5.4166,-5.4964,-5.6543,-5.7453,-5.7509,-5.8271,-5.8679,-5.8716,-5.8716,-5.8716,-5.8716,-5.8716,-5.8716,-5.8716,-5.8716,-5.8716,-5.8716,-5.8716,-5.8716,-5.8716,-5.8716,-5.8716,-5.8716,-5.8679,-5.8661,-5.8661,-5.8642,-5.7621,-5.6265,-5.6265,-5.5689,-5.4964,-5.4964,-5.4444,-5.3813,-5.3813,-5.3813,-5.3794,-5.3775,-5.32,-5.2587,-5.2549,-5.1955,-5.1138,-5.0283,-5.006,-4.9856,-4.9076,-4.8909,-4.889,-4.8872,-4.8872,-4.8612,-4.7794,-4.7664,-4.7386,-4.6587,-4.6438,-4.5844,-4.4209,-4.4005,-4.4005,-4.4005,-4.4005,-4.4005,-4.4005,-4.4005,-4.4005,-4.4005,-4.4005,-4.4005,-4.4005,-4.4005,-4.4005,-4.4005,-4.4005,-4.4413,-4.5249,-4.5249,-4.5658,-4.642,-4.6438,-4.6457,0.0,0.0,-3.86,-4.1143,-4.2758,-4.3832,-4.4284,-4.4512,-4.4482,-4.3929,-4.3503,-4.3206,-4.3206,-4.3206,-4.3745,-4.5435,-4.6141,-4.7051,-4.8667,-4.8667,-4.8407,-4.8147,-4.8333,0.0,0.0,0.0,0.0,-5.1714,-5.3051,-5.4407,-5.58,-5.6915,-5.7751,-5.8289,-5.8568,-5.8716,-5.8716,-5.8716,-5.8716,-5.8716,-5.8716,-5.8716,-5.8716,-5.8716,-5.8716,-5.8716,-5.8716,-5.8716,-5.8716,-5.8716,-5.8716,-5.8716,-5.8716,-5.8716,-5.8716,-5.8716,-5.8364,-5.7825,-5.7286,-5.6562,-5.5782,-5.5206,-5.4834,-5.45,-5.3961,-5.3813,-5.3813,-5.3813,-5.3608,-5.3274,-5.2735,-5.2401,-5.1992,-5.1156,-5.0525,-5.0042,-4.9763,-4.928,-4.8909,-4.8909,-4.8909,-4.8816,-4.8537,-4.85,-4.8221,-4.7423,-4.6828,-4.6104,-4.4989,-4.4859,-4.4636,-4.4061,-4.4005,-4.4005,-4.4005,-4.4005,-4.4005,-4.4005,-4.4544,-4.4859,-4.4859,-4.5379,-4.5658,-4.5658,-4.5658,-4.5807,-4.6104,-4.6104,-4.6234,-4.6513,-4.7051,-4.7293,0.0,-3.8509,-3.9945,-4.2971,-4.4436,-4.5057,-4.4799,-4.4866,-4.469,-4.3634,-4.2854,-4.2277,-4.1999,-4.1683,-4.2203,-4.4469,-4.5268,-4.6475,-4.8983,-4.9076,-4.8927,-4.902,-4.9224,0.0,0.0,0.0,0.0,-5.1769,-5.333,-5.4834,-5.6227,-5.7342,-5.8178,-5.8679,-5.8716,-5.8716,-5.8716,-5.8716,-5.8716,-5.8716,-5.8716,-5.8716,-5.8716,-5.8716,-5.8716,-5.8716,-5.8716,-5.8716,-5.8716,-5.8716,-5.8716,-5.8716,-5.8716,-5.8716,-5.8716,-5.8716,-5.8716,-5.8642,-5.8122,-5.7398,-5.6636,-5.6079,-5.5707,-5.5317,-5.4481,-5.424,-5.4184,-5.3887,-5.3813,-5.3683,-5.3162,-5.3032,-5.2828,-5.2029,-5.1398,-5.0841,-5.0228,-4.9689,-4.9243,-4.8964,-4.8909,-4.8909,-4.8909,-4.8909,-4.8723,-4.8203,-4.7683,-4.6958,-4.5862,-4.5732,-4.5509,-4.4952,-4.4896,-4.4896,-4.4896,-4.4896,-4.4896,-4.4896,-4.5417,-4.5732,-4.5732,-4.6234,-4.6494,-4.6494,-4.6494,-4.6643,-4.6921,-4.6921,-4.707,-4.7367,-4.7887,-4.8129,-3.8625,-3.9767,-4.0985,-4.4393,-4.5584,-4.5718,-4.5017,-4.4899,-4.4485,-4.29,-4.1939,-4.1126,0.0,0.0,-4.0141,-4.3299,-4.3986,-4.5528,-4.954,-4.9485,-4.9633,0.0,0.0,0.0,0.0,0.0,0.0,-5.2735,0.0,-5.541,-5.632,-5.7862,-5.8716,-5.8716,-5.8716,-5.8716,-5.8716,-5.8716,-5.8716,-5.8716,-5.8716,-5.8716,-5.8716,-5.8716,-5.8716,-5.8716,-5.8716,-5.8716,-5.8716,-5.8716,-5.8716,-5.8716,-5.8716,-5.8716,-5.8716,-5.8716,-5.8716,-5.8716,-5.8716,-5.8215,-5.7565,-5.7509,-5.6989,-5.6209,-5.5336,-5.5039,-5.4853,-5.4091,-5.3831,-5.3813,-5.3813,-5.3813,-5.3608,-5.2847,-5.2624,-5.2159,-5.058,-5.0209,-4.993,-4.9132,-4.8927,-4.8909,-4.8909,-4.8909,-4.8909,-4.8909,-4.8909,-4.8333,-4.6754,-4.655,-4.655,-4.6494,-4.6494,-4.6494,-4.6494,-4.6494,-4.6494,-4.6494,-4.6531,-4.655,-4.655,-4.6605,-4.6624,-4.6624,-4.6624,-4.6995,-4.7757,-4.7757,-4.8147,-4.8909,-4.8909,-4.8927,-3.955,-4.1304,-4.3112,-4.5495,-4.5985,-4.5883,-4.5789,-4.4918,-4.3488,-4.1292,-3.9769,-3.8209,0.0,0.0,0.0,-4.107,-4.3875,0.0,-4.9763,-5.0506,0.0,0.0,0.0,-5.32,-5.3998,-5.4091,0.0,0.0,-5.515,-5.5652,-5.7119,-5.8159,-5.8716,-5.8716,-5.8716,-5.8716,-5.8716,-5.8716,-5.8716,-5.8716,-5.8716,-5.8716,-5.8716,-5.8716,-5.8716,-5.8716,-5.8716,-5.8716,-5.8716,-5.8716,-5.8716,-5.8716,-5.8716,-5.8716,-5.8716,-5.8716,-5.8716,-5.8716,-5.8716,-5.8586,-5.8308,-5.7695,-5.736,-5.7045,-5.6227,-5.5522,-5.4964,-5.476,-5.4258,-5.3813,-5.3813,-5.3813,-5.3757,-5.3553,-5.3051,-5.2475,-5.2048,-5.1491,-5.0822,-4.9968,-4.9317,-4.8909,-4.8909,-4.8909,-4.8909,-4.8909,-4.8909,-4.8537,-4.7516,-4.7386,-4.7163,-4.655,-4.6494,-4.6494,-4.6494,-4.6494,-4.6494,-4.6494,-4.7051,-4.7386,-4.7386,-4.798,-4.8296,-4.8296,-4.8296,-4.8389,-4.8593,-4.8593,-4.8704,-4.8909,-4.8909,-4.9224,-4.1202,-4.3005,-4.4764,-4.6255,-4.6384,-4.5864,-4.4723,-4.3572,-4.1767,-3.8289,-3.657,0.0,0.0,0.0,0.0,0.0,0.0,0.0,-4.967,-5.0878,-5.1955,0.0,-5.4054,0.0,-5.5503,-5.5577,-5.593,0.0,-5.6376,-5.6525,-5.7453,-5.8271,-5.8716,-5.8716,-5.8716,-5.8716,-5.8716,-5.8716,-5.8716,-5.8716,-5.8716,-5.8716,-5.8716,-5.8716,-5.8716,-5.8716,0.0,-5.8716,-5.8716,-5.8716,-5.8716,-5.8716,-5.8716,-5.8716,-5.8716,-5.8716,-5.8716,-5.8716,-5.8716,-5.8716,-5.8642,-5.8178,-5.8029,-5.7881,-5.7082,-5.6246,-5.5503,-5.5113,-5.4426,-5.3813,-5.3813,-5.3813,-5.3813,-5.3813,-5.346,-5.3032,-5.2679,-5.2252,-5.1676,-5.0841,-5.0005,-4.9429,-4.9429,-4.9132,-4.8909,-4.8909,-4.8909,-4.8742,-4.8277,-4.824,-4.8054,-4.7608,-4.7553,-4.7553,-4.7553,-4.7553,-4.7553,-4.7553,-4.798,-4.824,-4.824,-4.8667,-4.8909,-4.8909,-4.8909,-4.8909,-4.8909,-4.8909,-4.9076,-4.9429,-4.9429,-4.9875,-4.2996,-4.4437,-4.5811,-4.6637,-4.6582,-4.5616,-4.2869,-4.1544,-3.9553,-3.4827,0.0,0.0,-3.0378,0.0,-3.403,-3.7225,0.0,-4.4506,-4.941,-5.0766,-5.2215,-5.4871,-5.5169,-5.5559,-5.6525,-5.6617,-5.6915,-5.7621,-5.7658,-5.7658,-5.7658,-5.8326,-5.8716,-5.8716,-5.8716,-5.8716,-5.8716,-5.8716,-5.8716,-5.8716,-5.8716,-5.8716,-5.8716,-5.8716,-5.8716,-5.8716,0.0,0.0,-5.8716,-5.8716,-5.8716,-5.8716,-5.8716,-5.8716,-5.8716,-5.8716,-5.8716,-5.8716,-5.8716,-5.8716,-5.8716,-5.8716,-5.8716,-5.8586,-5.7881,-5.7026,-5.6134,-5.5391,-5.4518,-5.3813,-5.3813,-5.3813,-5.3813,-5.3813,-5.3813,-5.3608,-5.2921,-5.2679,-5.2401,-5.1695,-5.0859,-5.0246,-5.0135,-4.9522,-4.902,-4.8927,-4.8909,-4.8909,-4.8909,-4.8909,-4.8909,-4.8909,-4.8909,-4.8909,-4.8909,-4.8909,-4.8909,-4.8909,-4.8909,-4.8909,-4.8909,-4.8909,-4.8909,-4.8909,-4.9002,-4.9057,-4.9057,-4.9187,-4.9596,-5.0283,-5.0283,-5.0729,-4.3436,-4.4437,-4.5345,-4.6262,-4.5952,-4.4719,-4.2027,-3.9765,0.0,0.0,0.0,-2.9413,-2.7756,0.0,0.0,-3.6495,0.0,0.0,0.0,0.0,0.0,0.0,0.0,0.0,0.0,0.0,0.0,0.0,0.0,0.0,-5.8494,-5.8624,-5.8716,-5.8716,-5.8716,-5.8716,-5.8716,-5.8716,-5.8716,-5.8716,-5.8716,-5.8716,-5.8716,-5.8716,-5.8716,-5.8716,-5.8716,0.0,-5.8716,-5.8716,-5.8716,-5.8716,-5.8716,-5.8716,-5.8716,-5.8716,-5.8716,-5.8716,-5.8716,-5.8716,-5.8716,-5.8716,-5.8716,-5.8679,-5.8531,-5.7472,-5.6265,-5.6116,-5.4983,-5.3813,-5.3813,-5.3813,-5.3813,-5.3813,-5.3813,-5.3775,-5.3627,-5.307,-5.2568,-5.2419,-5.1732,-5.0952,-5.0228,-4.9986,-4.967,-4.9002,-4.8909,-4.8909,-4.8909,-4.8909,-4.8909,-4.8909,-4.8909,-4.8909,-4.8909,-4.8909,-4.8909,-4.8909,-4.8909,-4.8909,-4.8909,-4.8909,-4.8909,-4.8909,-4.9559,-4.9893,-4.9893,-5.0618,-5.1045,-5.1175,-5.1175,-5.1602,-4.3723,-4.4906,-4.6031,-4.6317,-4.5508,-4.3704,-4.0155,0.0,0.0,0.0,0.0,-2.7005,-2.582,0.0,0.0,0.0,0.0,0.0,0.0,0.0,0.0,0.0,0.0,0.0,0.0,0.0,0.0,0.0,0.0,0.0,-5.8716,-5.8716,-5.8716,-5.8716,-5.8716,-5.8716,-5.8716,-5.8716,-5.8716,-5.8716,-5.8716,-5.8716,-5.8716,-5.8716,-5.8716,-5.8716,-5.8716,0.0,-5.8716,-5.8716,-5.8716,-5.8716,-5.8716,-5.8716,-5.8716,-5.8716,-5.8716,-5.8716,-5.8716,-5.8716,-5.8716,-5.8716,-5.8716,-5.8716,-5.8716,-5.7583,-5.6302,-5.6302,-5.5094,-5.3813,-5.3813,-5.3813,-5.3813,-5.3813,-5.3813,-5.3813,-5.3813,-5.3497,-5.3218,-5.3218,-5.2568,-5.1899,-5.1472,-5.0692,-4.9986,-4.9577,-4.9169,-4.8909,-4.8909,-4.8909,-4.8909,-4.8909,-4.8909,-4.8909,-4.8909,-4.8909,-4.8909,-4.8909,-4.8909,-4.8909,-4.8909,-4.8909,-4.9113,-4.9522,-4.9912,-5.032,-5.0785,-5.1193,-5.1621,-5.2029,-5.2029,-5.2457,-4.4039,-4.5318,-4.6462,-4.6318,-4.5172,-4.2887,-3.834,-3.545,0.0,0.0,0.0,0.0,-2.4799,0.0,0.0,0.0,0.0,0.0,0.0,0.0,0.0,0.0,0.0,0.0,0.0,0.0,0.0,0.0,0.0,0.0,-5.8716,-5.8716,-5.8716,-5.8716,-5.8716,-5.8716,-5.8716,-5.8716,-5.8716,-5.8716,-5.8716,-5.8716,-5.8716,-5.8716,-5.8716,-5.8716,-5.8716,0.0,0.0,-5.8716,-5.8716,-5.8716,-5.8716,-5.8716,-5.8716,-5.8716,-5.8716,-5.8716,-5.8716,-5.8716,-5.8716,-5.8716,-5.8716,-5.8716,-5.8716,-5.7713,-5.6525,-5.6357,-5.5224,-5.4017,-5.385,-5.3813,-5.3813,-5.3813,-5.3813,-5.3813,-5.3813,-5.3813,-5.3813,-5.3813,-5.3292,-5.281,-5.2624,-5.1509,-5.058,-5.0395,-4.9689,-4.9169,-4.9169,-4.902,-4.8909,-4.8909,-4.8909,-4.8909,-4.8909,-4.8909,-4.8909,-4.8909,-4.8909,-4.8983,-4.915,-4.9169,-4.954,-5.0358,-5.0562,-5.0971,-5.1658,-5.1825,-5.2234,-5.2865,-5.2865,-5.32,-4.4453,-4.5178,-4.5308,-4.582,-4.4964,-4.2686,-3.7588,0.0,0.0,0.0,-2.5541,-2.4718,-2.5375,0.0,0.0,0.0,0.0,0.0,0.0,0.0,0.0,0.0,0.0,0.0,0.0,0.0,0.0,0.0,0.0,0.0,0.0,-5.8716,-5.8716,-5.8716,-5.8716,-5.8716,-5.8716,-5.8716,-5.8716,-5.8716,-5.8716,-5.8716,-5.8716,-5.8716,-5.8716,-5.8716,-5.8716,0.0,0.0,-5.8716,-5.8716,-5.8716,-5.8716,-5.8716,-5.8716,-5.8716,-5.8716,-5.8716,-5.8716,-5.8716,-5.8716,-5.8716,-5.8716,-5.8716,-5.8716,-5.8103,-5.7249,-5.6506,-5.5633,-5.4723,-5.3998,-5.3813,-5.3813,-5.3813,-5.3813,-5.3813,-5.3813,-5.3813,-5.3813,-5.3813,-5.3738,-5.346,-5.2735,-5.2475,-5.2122,-5.1398,-5.0543,-4.9986,-4.9986,-4.9355,-4.8909,-4.8909,-4.8909,-4.8909,-4.8909,-4.8909,-4.8909,-4.8909,-4.8909,-4.9243,-4.9968,-4.9986,-5.0395,-5.1268,-5.1992,-5.2419,-5.2494,-5.3218,-5.3627,-5.3701,-5.3701,-5.3738,-4.3195,-4.4469,-4.5141,-4.5224,-4.4124,-4.1891,-3.7487,0.0,0.0,-2.7542,-2.556,-2.4558,-2.4892,-2.5615,0.0,0.0,0.0,0.0,0.0,0.0,0.0,0.0,0.0,0.0,0.0,0.0,0.0,0.0,0.0,0.0,0.0,-5.8716,-5.8716,-5.8716,-5.8716,-5.8716,-5.8716,-5.8716,-5.8716,-5.8716,-5.8716,-5.8716,-5.8716,-5.8716,-5.8716,-5.8716,-5.8716,0.0,0.0,-5.8716,-5.8716,-5.8716,-5.8716,-5.8716,-5.8716,-5.8716,-5.8716,-5.8716,-5.8716,-5.8716,-5.8716,-5.8716,-5.8716,-5.8716,-5.8716,-5.8141,-5.7342,-5.6525,-5.567,-5.4816,-5.4017,-5.3813,-5.3813,-5.3813,-5.3813,-5.3813,-5.3813,-5.3813,-5.3813,-5.3813,-5.3813,-5.3701,-5.3385,-5.2921,-5.2494,-5.2178,-5.1416,-5.0878,-5.0878,-5.0153,-4.9633,-4.9633,-4.9187,-4.8909,-4.8909,-4.9355,-4.9633,-4.9633,-5.0116,-5.0543,-5.0878,-5.0878,-5.1268,-5.2104,-5.2438,-5.2847,-5.333,-5.3645,-5.3813,-5.3813,-5.3813,-5.3813,-4.1941,-4.3612,-4.4593,-4.4817,-4.3448,-4.1048,0.0,0.0,-3.0431,-2.7203,-2.5448,-2.45,-2.45,-2.4964,-2.5949,0.0,0.0,0.0,0.0,0.0,0.0,0.0,0.0,0.0,0.0,0.0,0.0,0.0,0.0,0.0,0.0,-5.8716,-5.8716,-5.8716,-5.8716,-5.8716,-5.8716,-5.8716,-5.8716,-5.8716,-5.8716,-5.8716,-5.8716,-5.8716,-5.8716,-5.8716,0.0,0.0,0.0,-5.8716,-5.8716,-5.8716,-5.8716,-5.8716,-5.8716,-5.8716,-5.8716,-5.8716,-5.8716,-5.8716,-5.8716,-5.8716,-5.8716,-5.8716,-5.8716,-5.8308,-5.7639,-5.6599,-5.5503,-5.4518,-5.3961,-5.3813,-5.3813,-5.3813,-5.3813,-5.3813,-5.3813,-5.3813,-5.3813,-5.3813,-5.3813,-5.3813,-5.3813,-5.333,-5.2958,-5.2958,-5.2271,-5.1751,-5.1751,-5.1008,-5.0488,-5.0488,-4.9986,-4.954,-4.928,-5.0005,-5.0488,-5.0488,-5.1063,-5.1509,-5.1751,-5.1751,-5.2122,-5.294,-5.2958,-5.3237,-5.3813,-5.3813,-5.3813,-5.3813,-5.3813,-5.3813,-4.1066,-4.2699,-4.3342,-4.4664,-4.3141,-4.0262,0.0,-3.2815,-2.9587,-2.6377,-2.5076,-2.45,-2.45,-2.4518,-2.5299,-2.7706,0.0,0.0,0.0,0.0,0.0,0.0,0.0,0.0,0.0,0.0,0.0,0.0,0.0,0.0,0.0,-5.8716,-5.8716,-5.8716,-5.8716,-5.8716,-5.8716,-5.8716,-5.8716,-5.8716,-5.8716,-5.8716,-5.8716,-5.8716,-5.8716,0.0,0.0,0.0,0.0,-5.8716,-5.8716,-5.8716,-5.8716,-5.8716,-5.8716,-5.8716,-5.8716,-5.8716,-5.8716,-5.8716,-5.8716,-5.8716,-5.8716,-5.8716,-5.8716,-5.8698,-5.8364,-5.6747,-5.5113,-5.3813,-5.3813,-5.3813,-5.3813,-5.3813,-5.3813,-5.3813,-5.3813,-5.3813,-5.3813,-5.3813,-5.3813,-5.3813,-5.3813,-5.3794,-5.3794,-5.3794,-5.3107,-5.2587,-5.2587,-5.1881,-5.1398,-5.1398,-5.1379,-5.1026,-5.0172,-5.0896,-5.1398,-5.1398,-5.1398,-5.1769,-5.2549,-5.2587,-5.2977,-5.3775,-5.3794,-5.3794,-5.3813,-5.3813,-5.3813,-5.3813,-5.3813,-5.3813,-3.5137,-3.6593,-3.7516,-3.7481,-3.6888,-3.5563,-3.2691,-3.0835,-2.8975,-2.6256,-2.5057,-2.45,-2.45,-2.45,-2.5671,-2.9229,-3.0251,0.0,0.0,0.0,0.0,0.0,0.0,0.0,0.0,0.0,0.0,0.0,0.0,0.0,0.0,-5.8716,-5.8716,-5.8716,-5.8716,-5.8716,-5.8716,-5.8716,-5.8716,-5.8716,-5.8716,-5.8716,-5.8716,-5.8716,0.0,0.0,0.0,0.0,0.0,-5.8716,-5.8716,-5.8716,-5.8716,-5.8716,-5.8716,-5.8716,-5.8716,-5.8716,-5.8716,-5.8716,-5.8716,-5.8716,-5.8716,-5.8716,-5.8716,-5.8716,-5.8364,-5.6747,-5.5503,-5.45,-5.3943,-5.3813,-5.3813,-5.3813,-5.3813,-5.3813,-5.3813,-5.3813,-5.3813,-5.3813,-5.3813,-5.3813,-5.3813,-5.3813,-5.3813,-5.3813,-5.359,-5.3423,-5.3423,-5.2717,-5.2215,-5.2215,-5.2215,-5.1881,-5.1063,-5.1751,-5.2215,-5.2215,-5.2735,-5.3144,-5.3423,-5.3423,-5.3553,-5.3813,-5.3813,-5.3813,-5.3813,-5.3813,-5.3813,-5.3813,-5.3813,-5.3813,0.0,-3.32,-3.4184,-3.4103,-3.3617,-3.2624,-3.055,-2.9227,-2.7854,-2.5689,-2.4853,-2.45,-2.45,-2.45,-2.554,-2.869,-2.9991,0.0,0.0,0.0,0.0,0.0,0.0,0.0,0.0,0.0,0.0,0.0,0.0,0.0,0.0,0.0,-5.8716,-5.8716,-5.8716,-5.8716,-5.8716,-5.8716,-5.8716,-5.8716,-5.8716,-5.8716,-5.8716,-5.8716,0.0,0.0,0.0,0.0,0.0,-5.8716,-5.8716,-5.8716,-5.8716,-5.8716,-5.8716,-5.8716,-5.8716,-5.8716,-5.8716,-5.8716,-5.8716,-5.8716,-5.8716,-5.8716,-5.8716,-5.8494,-5.7992,-5.6673,-5.567,-5.4816,-5.4017,-5.3813,-5.3813,-5.3813,-5.3813,-5.3813,-5.3813,-5.3813,-5.3813,-5.3813,-5.3813,-5.3813,-5.3813,-5.3813,-5.3813,-5.3813,-5.3813,-5.3813,-5.3813,-5.3367,-5.3051,-5.3051,-5.3051,-5.2847,-5.2345,-5.2754,-5.3051,-5.3051,-5.3534,-5.3813,-5.3813,-5.3813,-5.3813,-5.3813,-5.3813,-5.3813,-5.3813,-5.3813,-5.3813,-5.3813,-5.3813,-5.3813,0.0,-3.1681,-3.255,-3.3319,-3.2414,-3.0946,-2.9396,-2.7891,0.0,-2.4816,-2.45,-2.4574,-2.4816,-2.4741,-2.5317,-2.7278,0.0,0.0,0.0,0.0,0.0,0.0,0.0,0.0,0.0,0.0,0.0,0.0,0.0,0.0,0.0,0.0,-5.8716,-5.8716,-5.8716,-5.8716,-5.8716,-5.8716,-5.8716,-5.8716,-5.8716,-5.8716,-5.8716,-5.8716,0.0,0.0,0.0,0.0,0.0,-5.8716,-5.8716,-5.8716,-5.8716,-5.8716,-5.8716,-5.8716,-5.8716,-5.8716,-5.8716,-5.8716,-5.8716,-5.8716,-5.8716,-5.8716,-5.8716,-5.8196,-5.7416,-5.6543,-5.5726,-5.489,-5.4017,-5.3813,-5.3813,-5.3813,-5.3813,-5.3813,-5.3813,-5.3813,-5.3813,-5.3813,-5.3813,-5.3813,-5.3813,-5.3813,-5.3813,-5.3813,-5.3813,-5.3813,-5.3813,-5.3813,-5.3813,-5.3813,-5.3813,-5.3813,-5.3813,-5.3813,-5.3813,-5.3813,-5.3813,-5.3813,-5.3813,-5.3813,-5.3813,-5.3813,-5.3813,-5.3813,-5.3813,-5.3813,-5.3813,-5.3813,-5.3813,-5.3813,-2.4903,0.0,-2.7149,-2.6725,-2.6847,-2.6802,0.0,-2.5783,-2.5708,0.0,0.0,0.0,0.0,-2.7204,0.0,0.0,0.0,0.0,0.0,0.0,0.0,0.0,0.0,0.0,0.0,0.0,0.0,0.0,0.0,0.0,0.0,0.0,-5.8716,-5.8716,-5.8716,-5.8716,-5.8716,-5.8716,-5.8716,-5.8716,-5.8716,-5.8716,-5.8716,-5.8716,0.0,0.0,0.0,0.0,-5.8716,-5.8716,-5.8716,-5.8716,-5.8716,-5.8716,-5.8716,-5.8716,-5.8716,-5.8716,-5.8716,-5.8716,-5.8716,-5.8716,-5.8716,-5.8716,-5.8716,-5.8586,-5.8122,-5.671,-5.6153,-5.567,-5.4184,-5.3813,-5.3813,-5.3813,-5.3813,-5.3813,-5.3813,-5.3813,-5.3813,-5.3813,-5.3813,-5.3813,-5.3813,-5.3813,-5.3813,-5.3813,-5.3813,-5.3813,-5.3813,-5.3813,-5.3813,-5.3813,-5.3813,-5.3813,-5.3813,-5.3813,-5.3813,-5.3813,-5.3813,-5.3813,-5.3813,-5.3813,-5.3813,-5.3813,-5.3813,-5.3813,-5.3813,-5.3813,-5.3813,-5.3813,-5.3813,-5.3813,-2.3088,-2.4644,-2.6042,-2.5597,-2.5857,-2.608,-2.5653,0.0,0.0,0.0,0.0,0.0,0.0,0.0,0.0,0.0,0.0,0.0,0.0,0.0,0.0,0.0,0.0,0.0,0.0,0.0,0.0,0.0,0.0,0.0,0.0,0.0,-5.8716,-5.8716,-5.8716,-5.8716,-5.8716,-5.8716,-5.8716,-5.8716,-5.8716,-5.8716,-5.8716,-5.8716,-5.8716,0.0,0.0,0.0,-5.8716,-5.8716,-5.8716,-5.8716,-5.8716,-5.8716,-5.8716,-5.8716,-5.8716,-5.8716,-5.8716,-5.8716,-5.8716,-5.8716,-5.8716,-5.8716,-5.8716,-5.8716,-5.8364,-5.6747,-5.6302,-5.5912,-5.424,-5.3813,-5.3813,-5.3813,-5.3813,-5.3813,-5.3813,-5.3813,-5.3813,-5.3813,-5.3813,-5.3813,-5.3813,-5.3813,-5.3813,-5.3813,-5.3813,-5.3813,-5.3813,-5.3813,-5.3813,-5.3813,-5.3813,-5.3813,-5.3813,-5.3813,-5.3813,-5.3813,-5.3813,-5.3813,-5.3813,-5.3813,-5.3813,-5.3813,-5.3813,-5.3813,-5.3813,-5.3813,-5.3813,-5.3813,-5.3813,-5.3813,-2.3097,-2.5291,-2.7185,-2.6814,-2.6907,-2.7055,-2.6925,0.0,0.0,0.0,0.0,0.0,0.0,0.0,0.0,0.0,0.0,0.0,0.0,0.0,0.0,0.0,0.0,0.0,0.0,0.0,0.0,0.0,0.0,0.0,0.0,0.0,-5.8716,-5.8716,-5.8716,-5.8716,-5.8716,-5.8716,-5.8716,-5.8716,-5.8716,-5.8716,-5.8716,-5.8716,-5.8716,0.0,0.0,0.0,-5.8716,-5.8716,-5.8716,-5.8716,-5.8716,-5.8716,-5.8716,-5.8716,-5.8716,-5.8716,-5.8716,-5.8716,-5.8716,-5.8716,-5.8716,-5.8716,-5.8716,-5.8624,-5.8215,-5.6729,-5.6302,-5.5912,-5.424,-5.3813,-5.3813,-5.3813,-5.3813,-5.3813,-5.3813,-5.3813,-5.3813,-5.3813,-5.3813,-5.3813,-5.3813,-5.3813,-5.3813,-5.3813,-5.3813,-5.3813,-5.3813,-5.3813,-5.3813,-5.3813,-5.3813,-5.3813,-5.3813,-5.3813,-5.3813,-5.3813,-5.3813,-5.3813,-5.3813,-5.3813,-5.3813,-5.3813,-5.3813,-5.3813,-5.3813,-5.3813,-5.3813,-5.3813,-5.3813,-5.3813,-2.3683,-2.6609,-2.8505,-2.6414,-2.6907,-2.7743,0.0,0.0,0.0,0.0,0.0,0.0,0.0,0.0,0.0,0.0,0.0,0.0,0.0,0.0,0.0,0.0,0.0,0.0,0.0,0.0,0.0,0.0,0.0,0.0,0.0,0.0,-5.8716,-5.8716,-5.8716,-5.8716,-5.8716,-5.8716,-5.8716,-5.8716,-5.8716,-5.8716,-5.8716,-5.8716,-5.8716,0.0,0.0,-5.8716,-5.8716,-5.8716,-5.8716,-5.8716,-5.8716,-5.8716,-5.8716,-5.8716,-5.8716,-5.8716,-5.8716,-5.8716,-5.8716,-5.8716,-5.8716,-5.8716,-5.8716,-5.8234,-5.749,-5.6562,-5.6302,-5.5912,-5.424,-5.3813,-5.3813,-5.3813,-5.3813,-5.3813,-5.3813,-5.3813,-5.3813,-5.3813,-5.3813,-5.3813,-5.3813,-5.3813,-5.3813,-5.3813,-5.3813,-5.3813,-5.3813,-5.3813,-5.3813,-5.3813,-5.3813,-5.3813,-5.3813,-5.3813,-5.3813,-5.3813,-5.3813,-5.3813,-5.3813,-5.3813,-5.3813,-5.3813,-5.3813,-5.3813,-5.3813,-5.3813,-5.3813,-5.3813,-5.3813,-5.3813,-2.2606,-2.4918,-2.6897,-2.7548,-2.9564,-3.131,0.0,0.0,0.0,0.0,0.0,0.0,0.0,0.0,0.0,0.0,0.0,0.0,0.0,0.0,0.0,0.0,0.0,0.0,0.0,0.0,0.0,0.0,0.0,0.0,0.0,0.0,-5.8716,-5.8716,-5.8716,-5.8716,-5.8716,-5.8716,-5.8716,-5.8716,-5.8716,-5.8716,-5.8716,-5.8716,-5.8716,-5.8716,0.0,-5.8716,-5.8716,-5.8716,-5.8716,-5.8677,-5.8468,-5.8385,-5.8385,-5.8385,-5.8385,-5.8406,-5.8635,-5.8716,-5.8716,-5.8716,-5.8716,-5.8716,-5.8716,-5.8438,-5.7899,-5.6655,-5.5967,-5.5317,-5.411,-5.3813,-5.3813,-5.3813,-5.3813,-5.3813,-5.3813,-5.3813,-5.3813,-5.3813,-5.3813,-5.3813,-5.3813,-5.3813,-5.3813,-5.3813,-5.3813,-5.3813,-5.3813,-5.3813,-5.3813,-5.3813,-5.3813,-5.3813,-5.3813,-5.3813,-5.3813,-5.3813,-5.3813,-5.3813,-5.3813,-5.3813,-5.3813,-5.3813,-5.3813,-5.3813,-5.3813,-5.3813,-5.3813,-5.3813,-5.3813,-5.3813,-2.2097,-2.3655,-2.5485,-2.8374,0.0,0.0,0.0,0.0,0.0,0.0,0.0,0.0,0.0,0.0,0.0,0.0,0.0,0.0,0.0,0.0,0.0,0.0,0.0,0.0,0.0,0.0,0.0,0.0,0.0,0.0,0.0,0.0,-5.8716,-5.8716,-5.8716,-5.8716,-5.8716,-5.8716,-5.8716,-5.8716,-5.8716,-5.8716,-5.8716,-5.8716,-5.8716,-5.8716,-5.8716,-5.8716,-5.8716,-5.8716,-5.8716,-5.8656,-5.8363,-5.8172,-5.8105,-5.8105,-5.8037,-5.8033,-5.8338,-5.8489,-5.8553,-5.8553,-5.8635,-5.8716,-5.8716,-5.8586,-5.8122,-5.671,-5.567,-5.4816,-5.4017,-5.3813,-5.3813,-5.3813,-5.3813,-5.3813,-5.3813,-5.3813,-5.3813,-5.3813,-5.3813,-5.3813,-5.3813,-5.3813,-5.3813,-5.3813,-5.3813,-5.3813,-5.3813,-5.3813,-5.3813,-5.3813,-5.3813,-5.3813,-5.3813,-5.3813,-5.3813,-5.3813,-5.3813,-5.3813,-5.3813,-5.3813,-5.3813,-5.3813,-5.3813,-5.3813,-5.3813,-5.3813,-5.3813,-5.3813,-5.3813,-5.3813,-2.3655,-2.4946,-2.6042,-2.7761,0.0,0.0,0.0,0.0,0.0,0.0,0.0,0.0,0.0,0.0,0.0,0.0,0.0,0.0,0.0,0.0,0.0,0.0,0.0,0.0,0.0,0.0,0.0,0.0,0.0,0.0,0.0,0.0,0.0,-5.8716,-5.8716,-5.8716,-5.8716,-5.8716,-5.8716,-5.8716,-5.8716,-5.8716,-5.8716,-5.8716,-5.8716,-5.8716,-5.8716,-5.8716,-5.8716,-5.8716,-5.8716,-5.8696,-5.8656,-5.8428,-5.8105,-5.8105,-5.7895,-5.7631,-5.7673,-5.7872,-5.8127,-5.8127,-5.8385,-5.8716,-5.8716,-5.8196,-5.7416,-5.6543,-5.567,-5.4816,-5.4017,-5.3813,-5.3813,-5.3813,-5.3813,-5.3813,-5.3813,-5.3813,-5.3813,-5.3813,-5.3813,-5.3813,-5.3813,-5.3813,-5.3813,-5.3813,-5.3813,-5.3813,-5.3813,-5.3813,-5.3813,-5.3813,-5.3813,-5.3813,-5.3813,-5.3813,-5.3813,-5.3813,-5.3813,-5.3813,-5.3813,-5.3813,-5.3813,-5.3813,-5.3813,-5.3813,-5.3813,-5.3813,-5.3813,-5.3813,-5.3813,-5.3813,-2.2542,-2.4286,-2.6228,-2.8374,0.0,0.0,0.0,0.0,0.0,0.0,0.0,0.0,0.0,0.0,0.0,0.0,0.0,0.0,0.0,0.0,0.0,0.0,0.0,0.0,0.0,0.0,0.0,0.0,0.0,0.0,0.0,0.0,0.0,-5.7212,-5.7212,-5.7453,-5.7955,-5.7955,-5.8215,-5.8716,-5.8716,-5.8716,-5.8716,-5.8716,-5.8716,-5.8716,-5.8716,-5.8716,-5.8716,-5.8716,-5.8553,-5.8279,-5.7826,-5.754,-5.7419,-5.7419,-5.7637,-5.7918,-5.7918,-5.8164,-5.8489,-5.8489,-5.8593,-5.8716,-5.8716,-5.8141,-5.7342,-5.6525,-5.567,-5.4816,-5.4017,-5.3813,-5.3813,-5.3813,-5.3813,-5.3813,-5.3813,-5.3813,-5.3813,-5.3813,-5.3813,-5.3813,-5.3813,-5.3813,-5.3813,-5.3813,-5.3813,-5.3813,-5.3813,-5.3813,-5.3813,-5.3813,-5.3813,-5.3813,-5.3813,-5.3813,-5.3813,-5.3813,-5.3813,-5.3813,-5.3813,-5.3813,-5.3813,-5.3813,-5.3813,-5.3813,-5.3813,-5.3813,-5.3813,-5.3813,-5.3813,-5.3813,-2.2293,-2.3999,0.0,0.0,0.0,0.0,0.0,0.0,0.0,0.0,0.0,0.0,0.0,0.0,0.0,0.0,0.0,0.0,0.0,0.0,0.0,0.0,0.0,0.0,0.0,0.0,0.0,0.0,0.0,0.0,0.0,0.0,0.0,0.0,-5.6302,-5.6562,-5.7119,-5.7119,-5.7398,-5.7955,-5.7955,-5.8215,-5.8716,-5.8716,-5.8716,-5.8677,-5.8572,-5.8511,-5.8511,-5.8403,-5.8186,-5.7895,-5.7388,-5.7112,-5.7028,-5.7138,-5.7345,-5.7594,-5.7713,-5.7941,-5.8186,-5.8316,-5.8425,-5.8532,-5.8656,-5.8141,-5.7342,-5.6525,-5.567,-5.4816,-5.4017,-5.3813,-5.3813,-5.3813,-5.3813,-5.3813,-5.3813,-5.3813,-5.3813,-5.3813,-5.3813,-5.3813,-5.3813,-5.3813,-5.3813,-5.3813,-5.3813,-5.3813,-5.3813,-5.3813,-5.3813,-5.3813,-5.3813,-5.3813,-5.3813,-5.3813,-5.3813,-5.3813,-5.3813,-5.3813,-5.3813,-5.3813,-5.3813,-5.3813,-5.3813,-5.3813,-5.3813,-5.3813,-5.3813,-5.3813,-5.3813,-5.3813,-2.3434,0.0,0.0,0.0,0.0,0.0,0.0,0.0,0.0,0.0,0.0,0.0,0.0,0.0,0.0,0.0,0.0,0.0,0.0,0.0,0.0,0.0,0.0,0.0,0.0,0.0,0.0,0.0,0.0,0.0,0.0,0.0,0.0,0.0,-5.6283,-5.6283,-5.6302,-5.6302,-5.6302,-5.6302,-5.6302,-5.7156,-5.8698,-5.8677,-5.8677,-5.8696,-5.8279,-5.8082,-5.806,-5.7726,-5.7583,-5.7601,-5.7601,-5.7356,-5.7054,-5.7437,-5.7105,-5.6465,-5.6873,-5.7003,-5.7079,-5.748,-5.7844,-5.819,-5.8574,-5.8141,-5.7323,-5.6525,-5.567,-5.4816,-5.4017,-5.3813,-5.3813,-5.3813,-5.3813,-5.3813,-5.3813,-5.3813,-5.3813,-5.3813,-5.3813,-5.3813,-5.3813,-5.3813,-5.3813,-5.3813,-5.3813,-5.3813,-5.3813,-5.3813,-5.3813,-5.3813,-5.3813,-5.3813,-5.3813,-5.3813,-5.3813,-5.3813,-5.3813,-5.3813,-5.3813,-5.3813,-5.3813,-5.3813,-5.3813,-5.3813,-5.3813,-5.3813,-5.3813,-5.3813,-5.3813,-5.3813,-2.2571,0.0,0.0,0.0,0.0,0.0,0.0,0.0,0.0,0.0,0.0,0.0,0.0,0.0,0.0,0.0,0.0,0.0,0.0,0.0,0.0,0.0,0.0,0.0,0.0,0.0,0.0,0.0,0.0,0.0,0.0,0.0,0.0,0.0,-5.4537,-5.4816,-5.5391,-5.5391,-5.5551,-5.5879,-5.5879,-5.6559,-5.7841,-5.7555,-5.791,-5.8656,-5.8029,-5.7872,-5.806,-5.7419,-5.7181,-5.7156,-5.6873,-5.6847,-5.6977,-5.6821,-5.6977,-5.7264,-5.7363,-5.7565,-5.7831,-5.8231,-5.8446,-5.8532,-5.8656,-5.7751,-5.6617,-5.6376,-5.5261,-5.411,-5.3868,-5.3813,-5.3813,-5.3813,-5.3813,-5.3813,-5.3813,-5.3813,-5.3813,-5.3813,-5.3813,-5.3813,-5.3813,-5.3813,-5.3813,-5.3813,-5.3813,-5.3813,-5.3813,-5.3813,-5.3813,-5.3813,-5.3813,-5.3813,-5.3813,-5.3813,-5.3813,-5.3813,-5.3813,-5.3813,-5.3813,-5.3813,-5.3813,-5.3813,-5.3813,-5.3813,-5.3813,-5.3813,-5.3813,-5.3813,-5.3813,-5.3813,0.0,0.0,0.0,0.0,0.0,0.0,0.0,0.0,0.0,0.0,0.0,0.0,0.0,0.0,0.0,0.0,0.0,0.0,0.0,0.0,0.0,0.0,0.0,0.0,0.0,0.0,0.0,0.0,0.0,0.0,0.0,0.0,0.0,0.0,-5.3813,-5.4035,-5.4518,-5.4518,-5.4603,-5.4754,-5.4754,-5.522,-5.6116,-5.6195,-5.6621,-5.7294,-5.6664,-5.6358,-5.6291,-5.6147,-5.6027,-5.5955,-5.6019,-5.6199,-5.6402,-5.6274,-5.6447,-5.6793,-5.7076,-5.7302,-5.7558,-5.8097,-5.8341,-5.8489,-5.8656,-5.7583,-5.6302,-5.6302,-5.5094,-5.3813,-5.3813,-5.3813,-5.3813,-5.3813,-5.3813,-5.3813,-5.3813,-5.3813,-5.3813,-5.3813,-5.3813,-5.3813,-5.3813,-5.3813,-5.3813,-5.3813,-5.3813,-5.3813,-5.3813,-5.3813,-5.3813,-5.3813,-5.3813,-5.3813,-5.3813,-5.3813,-5.3813,-5.3813,-5.3813,-5.3813,-5.3813,-5.3813,-5.3813,-5.3813,-5.3813,-5.3813,-5.3813,-5.3813,-5.3813,-5.3813,-5.3813,-5.3813,0.0,0.0,0.0,0.0,0.0,0.0,0.0,0.0,0.0,0.0,0.0,0.0,0.0,0.0,0.0,0.0,0.0,0.0,0.0,0.0,0.0,0.0,0.0,0.0,0.0,0.0,0.0,0.0,0.0,0.0,0.0,0.0,0.0,-5.3698,-5.3737,-5.3737,-5.3698,-5.3737,-5.3561,0.0,-5.3157,-5.3353,-5.375,-5.4642,-5.5043,-5.5028,-5.4665,-5.4174,-5.3625,-5.4288,-5.443,-5.4272,-5.508,-5.5396,-5.5455,-5.5823,-5.5762,-5.5601,-5.6311,-5.6537,-5.667,-5.7437,-5.7835,-5.808,-5.8461,-5.7452,-5.617,-5.619,-5.5039,-5.3813,-5.3813,-5.3813,-5.3813,-5.3813,-5.3813,-5.3813,-5.3813,-5.3813,-5.3813,-5.3813,-5.3813,-5.3813,-5.3813,-5.3813,-5.3813,-5.3813,-5.3813,-5.3813,-5.3813,-5.3813,-5.3813,-5.3813,-5.3813,-5.3813,-5.3813,-5.3813,-5.3813,-5.3813,-5.3813,-5.3813,-5.3813,-5.3813,-5.3813,-5.3813,-5.3813,-5.3793,-5.3793,-5.3793,-5.3793,-5.3756,-5.3793,-5.3793,0.0,0.0,0.0,0.0,0.0,0.0,0.0,0.0,0.0,0.0,0.0,0.0,0.0,0.0,0.0,0.0,0.0,0.0,0.0,0.0,0.0,0.0,0.0,0.0,0.0,0.0,0.0,0.0,0.0,0.0,0.0,0.0,0.0,-5.3023,-5.3258,-5.3279,-5.3023,-5.3277,-5.2969,0.0,-5.2119,-5.1896,-5.1554,-5.3091,-5.3835,-5.3939,-5.3938,-5.3718,-5.3296,-5.3454,-5.3496,-5.351,-5.4255,-5.4553,-5.4624,-5.5355,-5.5572,-5.5631,-5.651,-5.6809,-5.6964,-5.7932,-5.784,-5.7433,-5.7564,-5.6475,-5.5198,-5.5259,-5.4574,-5.3813,-5.3813,-5.3813,-5.3813,-5.3813,-5.3813,-5.3813,-5.3813,-5.3813,-5.3813,-5.3813,-5.3813,-5.3813,-5.3813,-5.3813,-5.3813,-5.3813,-5.3813,-5.3813,-5.3813,-5.3813,-5.3813,-5.3813,-5.3813,-5.3813,-5.3813,-5.3813,-5.3813,-5.3813,-5.3813,-5.3813,-5.3813,-5.3813,-5.3813,-5.3813,-5.3813,-5.3774,-5.3715,-5.3715,-5.3657,-5.3579,-5.3676,-5.3715,0.0,0.0,0.0,0.0,0.0,0.0,0.0,0.0,0.0,0.0,0.0,0.0,0.0,0.0,0.0,0.0,0.0,0.0,0.0,0.0,0.0,0.0,0.0,0.0,0.0,0.0,0.0,0.0,0.0,0.0,0.0,-5.1337,-5.1843,-5.2204,-5.2254,-5.2353,-5.2554,-5.2626,-5.2289,-5.1608,-5.1608,-5.1322,-5.082,-5.1739,-5.2191,-5.2278,-5.2324,-5.2161,-5.1871,-5.2239,-5.231,-5.2283,-5.3002,-5.3281,-5.3351,-5.3769,-5.3908,-5.4091,-5.5389,-5.598,-5.6291,-5.723,-5.7394,-5.7119,-5.6739,-5.5761,-5.482,-5.4862,-5.4269,-5.3658,-5.3658,-5.3658,-5.3658,-5.3658,-5.3736,-5.3813,-5.3813,-5.3813,-5.3813,-5.3813,-5.3813,-5.3813,-5.3813,-5.3813,-5.3813,-5.3813,-5.3813,-5.3813,-5.3813,-5.3813,-5.3813,-5.3813,-5.3813,-5.3813,-5.3813,-5.3813,-5.3813,-5.3813,-5.3813,-5.3813,-5.3813,-5.3813,-5.3813,-5.3813,-5.3774,-5.3716,-5.3714,-5.3636,-5.3578,-5.3499,-5.3578,-5.3598,0.0,0.0,0.0,0.0,0.0,0.0,0.0,0.0,0.0,0.0,0.0,0.0,0.0,0.0,0.0,0.0,0.0,0.0,0.0,0.0,0.0,0.0,0.0,0.0,0.0,0.0,0.0,0.0,0.0,0.0,-4.9631,-4.9945,-5.0461,-5.1133,-5.09,-5.1053,-5.1669,-5.1634,-5.1408,-5.1023,-5.1139,-5.0973,-5.0657,-5.0657,-5.0684,-5.0739,-5.0684,-5.0537,-5.0383,-5.0991,-5.1095,-5.0994,-5.1705,-5.1998,-5.2046,-5.2136,-5.2188,-5.2408,-5.4014,-5.4786,-5.5215,-5.6113,-5.6555,-5.6596,-5.5879,-5.5104,-5.4458,-5.4478,-5.3998,-5.3499,-5.3499,-5.3499,-5.3499,-5.3499,-5.3638,-5.3755,-5.3755,-5.3755,-5.3755,-5.3755,-5.3755,-5.3755,-5.3755,-5.3755,-5.3737,-5.3756,-5.3774,-5.3756,-5.3813,-5.3813,-5.3813,-5.3813,-5.3813,-5.3793,-5.3774,-5.3793,-5.3793,-5.3774,-5.3793,-5.3793,-5.3774,-5.3774,-5.3774,-5.3755,-5.3715,-5.3694,-5.3656,-5.3519,-5.3459,-5.3439,-5.3459,-5.3479,0.0,0.0,0.0,0.0,0.0,0.0,0.0,0.0,0.0,0.0,0.0,0.0,0.0,0.0,0.0,0.0,0.0,0.0,0.0,0.0,0.0,0.0,0.0,0.0,0.0,0.0,0.0,0.0,0.0,0.0,-4.8429,-4.8906,-4.9243,-4.935,-4.9376,-4.929,-4.9094,-4.998,-5.014,-4.9604,-4.999,-5.0149,-5.0109,-5.0109,-5.0235,-5.0425,-5.0206,-5.008,-5.0068,-5.0172,-5.0178,-5.0235,-5.0976,-5.1269,-5.1338,-5.1946,-5.2188,-5.2351,-5.3572,-5.4037,-5.4271,-5.5368,-5.5302,-5.4758,-5.4699,-5.4131,-5.3506,-5.3627,-5.3573,-5.3499,-5.3499,-5.3499,-5.3499,-5.3499,-5.3519,-5.3539,-5.3539,-5.3539,-5.3539,-5.3539,-5.3539,-5.3539,-5.3539,-5.3539,-5.3559,-5.3619,-5.3638,-5.3678,-5.3793,-5.3813,-5.3813,-5.3813,-5.3813,-5.3793,-5.3715,-5.3774,-5.3793,-5.3715,-5.3774,-5.3774,-5.3715,-5.3715,-5.3657,-5.3539,-5.3656,-5.3656,-5.3519,-5.34,-5.3295,-5.3248,-5.3316,-5.3339,0.0,0.0,0.0,0.0,0.0,0.0,0.0,0.0,0.0,0.0,0.0,0.0,0.0,0.0,0.0,0.0,0.0,0.0,0.0,0.0,0.0,0.0,0.0,0.0,0.0,0.0,0.0,0.0,0.0,-4.7079,-4.7079,-4.7294,-4.765,-4.8091,-4.7998,-4.8064,-4.833,-4.8653,-4.8878,-4.9035,-4.924,-4.9579,-5.0011,-5.0011,-5.0051,-5.0178,-5.0051,-5.0011,-5.0011,-5.0011,-5.0011,-5.0045,-5.0373,-5.0493,-5.0528,-5.0856,-5.0976,-5.1146,-5.2388,-5.3025,-5.3414,-5.4228,-5.444,-5.4308,-5.3913,-5.3508,-5.3272,-5.3314,-5.3334,-5.3334,-5.3334,-5.3334,-5.3334,-5.3334,-5.3334,-5.3334,-5.3334,-5.3418,-5.3499,-5.3499,-5.3499,-5.3499,-5.3499,-5.3539,-5.3579,-5.3599,-5.3659,-5.3717,-5.3775,-5.3716,-5.3658,-5.3678,-5.3639,-5.3619,-5.3598,-5.3619,-5.3619,-5.3598,-5.3619,-5.3619,-5.3598,-5.3598,-5.3558,-5.3499,-5.3479,-5.3459,-5.338,-5.3295,-5.323,-5.3185,-5.323,-5.3233,0.0,0.0,0.0,0.0,0.0,0.0,0.0,0.0,0.0,0.0,0.0,0.0,0.0,0.0,0.0,0.0,0.0,0.0,0.0,0.0,0.0,0.0,0.0,0.0,0.0,0.0,0.0,0.0,0.0,-4.6211,-4.6211,-4.6137,-4.6368,-4.6963,-4.6725,-4.6847,-4.7403,-4.743,-4.7775,-4.8517,-4.8517,-4.8913,-4.9717,-4.9717,-4.9821,-5.0011,-5.0011,-5.0011,-5.0011,-5.0011,-5.0011,-5.0011,-5.0011,-5.0011,-5.0011,-5.0011,-5.0011,-5.0166,-5.1304,-5.2033,-5.2584,-5.3135,-5.3658,-5.3977,-5.339,-5.3185,-5.3185,-5.3185,-5.3185,-5.3185,-5.3185,-5.3185,-5.3185,-5.3185,-5.3185,-5.3185,-5.3185,-5.3314,-5.3418,-5.3418,-5.3418,-5.3418,-5.3418,-5.3459,-5.3499,-5.3499,-5.3579,-5.3658,-5.3658,-5.3559,-5.3501,-5.3559,-5.3499,-5.3479,-5.344,-5.3479,-5.3499,-5.344,-5.3479,-5.3481,-5.344,-5.344,-5.3439,-5.3418,-5.3336,-5.3277,-5.33,-5.323,-5.3185,-5.3185,-5.3185,-5.3185,0.0,0.0,0.0,0.0,0.0,0.0,0.0,0.0,0.0,0.0,0.0,0.0,0.0,0.0,0.0,0.0,0.0,0.0,0.0,0.0,0.0,0.0,0.0,0.0,0.0,0.0,0.0,0.0,0.0,-4.6211,-4.6211,-4.5963,-4.5829,-4.5863,-4.5615,-4.5492,-4.5544,-4.6286,-4.7044,-4.7741,-4.7741,-4.8137,-4.8844,-4.8844,-4.9275,-5.0011,-5.0011,-5.0011,-5.0011,-5.0011,-5.0011,-5.0011,-5.0011,-5.0011,-5.0011,-5.0011,-5.0011,-5.008,-5.0655,-5.1211,-5.1747,-5.2298,-5.2834,-5.324,-5.3203,-5.3185,-5.3185,-5.3185,-5.3185,-5.3185,-5.3185,-5.3185,-5.3185,-5.3185,-5.3185,-5.3185,-5.3185,-5.3206,-5.3206,-5.3206,-5.3206,-5.3206,-5.3206,-5.3206,-5.3227,-5.3227,-5.3227,-5.3227,-5.3227,-5.3396,-5.3479,-5.3418,-5.3418,-5.3378,-5.3318,-5.342,-5.3459,-5.3318,-5.342,-5.344,-5.3318,-5.33,-5.3295,-5.3206,-5.3206,-5.323,-5.33,-5.323,-5.3185,-5.3185,-5.3185,-5.3185,0.0,0.0,0.0,0.0,0.0,0.0,0.0,0.0,0.0,0.0,0.0,0.0,0.0,0.0,0.0,0.0,0.0,0.0,0.0,0.0,0.0,0.0,0.0,0.0,0.0,0.0,0.0,0.0,0.0,0.0,-4.4954,-4.4896,-4.5044,-4.552,-4.545,-4.5397,-4.5397,-4.569,-4.6207,-4.6993,-4.6993,-4.7362,-4.8086,-4.8086,-4.8499,-4.9252,-4.9252,-4.9528,-5.0011,-5.0011,-5.0011,-5.0011,-5.0011,-5.0011,-5.0011,-5.0011,-5.0011,-5.004,-5.0206,-5.063,-5.1105,-5.1314,-5.1964,-5.2694,-5.2694,-5.2934,-5.3185,-5.3185,-5.3185,-5.3185,-5.3185,-5.3185,-5.3185,-5.3185,-5.3185,-5.3185,-5.3185,-5.3185,-5.3185,-5.3185,-5.3185,-5.3185,-5.3185,-5.3185,-5.3185,-5.3185,-5.3185,-5.3227,-5.3314,-5.3314,-5.3295,-5.3339,-5.3314,-5.3251,-5.323,-5.3272,-5.3293,-5.3251,-5.3272,-5.3293,-5.323,-5.323,-5.3209,-5.3185,-5.3185,-5.3206,-5.323,-5.3206,-5.3185,-5.3185,-5.3185,-5.3185,0.0,0.0,0.0,0.0,0.0,0.0,0.0,0.0,0.0,0.0,0.0,0.0,0.0,0.0,0.0,0.0,0.0,0.0,0.0,0.0,0.0,0.0,0.0,0.0,0.0,0.0,0.0,0.0,0.0,0.0,-4.3897,-4.3931,-4.4276,-4.501,-4.5044,-4.5139,-4.5397,-4.5397,-4.5656,-4.619,-4.619,-4.6613,-4.731,-4.731,-4.7724,-4.843,-4.843,-4.9045,-5.0011,-5.0011,-5.0011,-5.0011,-5.0011,-5.0011,-5.0011,-5.0011,-5.0011,-5.0011,-5.0011,-5.0359,-5.0803,-5.0803,-5.1398,-5.2132,-5.2132,-5.2518,-5.2934,-5.2934,-5.306,-5.3185,-5.3185,-5.3185,-5.3185,-5.3185,-5.3185,-5.3185,-5.3185,-5.3185,-5.3185,-5.3185,-5.3185,-5.3185,-5.3185,-5.3185,-5.3185,-5.3185,-5.3185,-5.3227,-5.3314,-5.3269,-5.3227,-5.3254,-5.323,-5.3185,-5.3185,-5.3185,-5.3185,-5.3185,-5.3185,-5.3185,-5.3185,-5.3185,-5.3185,-5.3185,-5.3185,-5.3185,-5.3185,-5.3185,-5.3185,-5.3185,-5.3185,-5.3185,0.0,0.0,0.0,0.0,0.0,0.0,0.0,0.0,0.0,0.0,0.0,0.0,0.0,0.0,0.0,0.0,0.0,0.0,0.0,0.0,0.0,0.0,0.0,0.0,0.0,0.0,0.0,0.0,0.0,-4.3138,-4.3155,-4.3189,-4.3534,-4.4242,-4.4276,-4.4613,-4.5363,-4.5363,-4.538,-4.5397,-4.5397,-4.5793,-4.6562,-4.6562,-4.6975,-4.7655,-4.7655,-4.8545,-4.9942,-4.9959,-4.9993,-5.0011,-5.0011,-5.0011,-5.0011,-5.0011,-5.0011,-5.0011,-5.0011,-5.0331,-5.0793,-5.0793,-5.1131,-5.1594,-5.1594,-5.1964,-5.2384,-5.2384,-5.2761,-5.3185,-5.3185,-5.3185,-5.3185,-5.3185,-5.3185,-5.3185,-5.3185,-5.3185,-5.3185,-5.3185,-5.3185,-5.3185,-5.3185,-5.3185,-5.3185,-5.3185,-5.3185,-5.3185,-5.3185,-5.3185,-5.3185,-5.3185,-5.3185,-5.3185,-5.3185,-5.3185,-5.3185,-5.3185,-5.3185,-5.3185,-5.3185,-5.3185,-5.3185,-5.3185,-5.3185,-5.3185,-5.3185,-5.3185,-5.3185,-5.3185,-5.3185,-5.3185,-1.6383,0.0,0.0,0.0,0.0,0.0,0.0,0.0,0.0,0.0,0.0,0.0,0.0,0.0,0.0,0.0,0.0,0.0,0.0,0.0,0.0,0.0,0.0,0.0,0.0,0.0,0.0,0.0,-4.1533,-4.1774,-4.2309,-4.2879,-4.3293,-4.35,-4.35,-4.3862,-4.4596,-4.4596,-4.4872,-4.5397,-4.5397,-4.5518,-4.5725,-4.5725,-4.6155,-4.6906,-4.6906,-4.7458,-4.839,-4.8896,-4.9465,-5.0011,-5.0011,-5.0011,-5.0011,-5.0011,-5.0011,-5.0011,-5.0011,-5.0109,-5.0235,-5.0235,-5.0575,-5.1026,-5.1026,-5.1391,-5.1799,-5.1799,-5.2203,-5.2717,-5.31,-5.3185,-5.3185,-5.3185,-5.3185,-5.3185,-5.3185,-5.3185,-5.3185,-5.3185,-5.3185,-5.3185,-5.3185,-5.3185,-5.3185,-5.3185,-5.3185,-5.3185,-5.3185,-5.3185,-5.3185,-5.3185,-5.3185,-5.3185,-5.3185,-5.3185,-5.3185,-5.3185,-5.3185,-5.3185,-5.3185,-5.3185,-5.3185,-5.3185,-5.3185,-5.3185,-5.3185,-5.3185,-5.3185,-5.3185,-5.3185,-5.3185,0.0,0.0,0.0,0.0,0.0,0.0,0.0,0.0,0.0,0.0,0.0,0.0,0.0,0.0,0.0,0.0,0.0,0.0,0.0,0.0,0.0,0.0,0.0,0.0,0.0,0.0,0.0,-4.0912,-4.0912,-4.1101,-4.1533,-4.1999,-4.2378,-4.2689,-4.2706,-4.3069,-4.3828,-4.3845,-4.4225,-4.4941,-4.4941,-4.5113,-4.5397,-4.5397,-4.5656,-4.6086,-4.6086,-4.6517,-4.7258,-4.7689,-4.8517,-4.951,-4.951,-4.9717,-5.0011,-5.0011,-5.0011,-5.0011,-5.0011,-5.0011,-5.0011,-5.0011,-5.0206,-5.0453,-5.0453,-5.083,-5.1262,-5.1262,-5.1651,-5.2179,-5.2739,-5.2868,-5.2912,-5.3143,-5.3185,-5.3185,-5.3185,-5.3185,-5.3185,-5.3185,-5.3185,-5.3185,-5.3185,-5.3185,-5.3185,-5.3185,-5.3185,-5.3185,-5.3185,-5.3185,-5.3185,-5.3185,-5.3185,-5.3185,-5.3185,-5.3185,-5.3185,-5.3185,-5.3185,-5.3185,-5.3185,-5.3185,-5.3185,-5.3185,-5.3185,-5.3185,-5.3185,-5.3185,-5.3185,-5.3185,-5.3185,-5.3185,0.0,0.0,0.0,0.0,0.0,0.0,0.0,-2.4173,0.0,0.0,0.0,0.0,0.0,0.0,0.0,0.0,0.0,0.0,0.0,0.0,0.0,0.0,0.0,0.0,0.0,-4.086,-4.0912,-4.0912,-4.0912,-4.0912,-4.0912,-4.0912,-4.1205,-4.1861,-4.1895,-4.2275,-4.3051,-4.3069,-4.3448,-4.4173,-4.4259,-4.463,-4.5276,-4.5363,-4.5397,-4.5397,-4.5397,-4.5793,-4.6475,-4.6475,-4.7327,-4.8689,-4.8758,-4.9223,-4.989,-4.9976,-5.0011,-5.0011,-5.0011,-5.0011,-5.0011,-5.0011,-5.0011,-5.0011,-5.0011,-5.0331,-5.0739,-5.0776,-5.1131,-5.1626,-5.2155,-5.2361,-5.2518,-5.2995,-5.3164,-5.3185,-5.3185,-5.3185,-5.3185,-5.3185,-5.3185,-5.3185,-5.3185,-5.3185,-5.3185,-5.3185,-5.3185,-5.3185,-5.3185,-5.3185,-5.3185,-5.3185,-5.3185,-5.3185,-5.3185,-5.3185,-5.3185,-5.3185,-5.3185,-5.3185,-5.3185,-5.3185,-5.3185,-5.3185,-5.3185,-5.3185,-5.3185,-5.3185,-5.3185,-5.3185,-5.3185,-5.3185,0.0,0.0,0.0,0.0,0.0,0.0,0.0,-2.361,0.0,0.0,0.0,0.0,0.0,0.0,0.0,0.0,0.0,0.0,0.0,0.0,0.0,0.0,0.0,0.0,0.0,-4.0532,-4.0912,-4.0912,-4.0912,-4.0912,-4.0912,-4.0912,-4.0981,-4.1119,-4.1119,-4.1481,-4.224,-4.224,-4.2637,-4.3414,-4.4018,-4.438,-4.4527,-4.5121,-4.5397,-4.5397,-4.5397,-4.5483,-4.5621,-4.5621,-4.6535,-4.7965,-4.8568,-4.8896,-4.9103,-4.9769,-5.0011,-5.0011,-5.0011,-5.0011,-5.0011,-5.0011,-5.0011,-5.0011,-5.0011,-5.008,-5.0263,-5.0684,-5.0884,-5.1079,-5.1619,-5.2084,-5.2431,-5.254,-5.289,-5.3185,-5.3185,-5.3185,-5.3185,-5.3185,-5.3185,-5.3185,-5.3185,-5.3185,-5.3185,-5.3185,-5.3185,-5.3185,-5.3185,-5.3185,-5.3185,-5.3185,-5.3185,-5.3185,-5.3185,-5.3185,-5.3185,-5.3185,-5.3185,-5.3185,-5.3185,-5.3185,-5.3185,-5.3185,-5.3185,-5.3185,-5.3185,-5.3185,-5.3185,-5.3185,-5.3185,-5.3185,0.0,0.0,0.0,-2.4054,0.0,0.0,0.0,0.0,0.0,0.0,0.0,0.0,0.0,0.0,0.0,0.0,0.0,0.0,0.0,0.0,0.0,0.0,0.0,0.0,0.0,-3.9284,-3.9911,-4.0267,-4.0284,-4.0498,-4.0877,-4.0912,-4.0912,-4.0912,-4.0912,-4.1084,-4.1464,-4.1464,-4.1843,-4.262,-4.2982,-4.3569,-4.4311,-4.4665,-4.5061,-4.5397,-4.5397,-4.5397,-4.5397,-4.5397,-4.5862,-4.6621,-4.7396,-4.7913,-4.8327,-4.9131,-4.9407,-4.9476,-4.9873,-5.0011,-5.0011,-5.0011,-5.0011,-5.0011,-5.0011,-5.0011,-5.0109,-5.0657,-5.0803,-5.0991,-5.1793,-5.2203,-5.2472,-5.2739,-5.2999,-5.3185,-5.3185,-5.3185,-5.3185,-5.3185,-5.3185,-5.3185,-5.3185,-5.3185,-5.3185,-5.3185,-5.3185,-5.3185,-5.3185,-5.3185,-5.3185,-5.3185,-5.3185,-5.3185,-5.3185,-5.3185,-5.3185,-5.3185,-5.3185,-5.3185,-5.3185,-5.3185,-5.3023,-5.2619,-5.2215,-5.2013,-5.2013,-5.2013,-5.2435,-5.3185,-5.3185,-5.3185,0.0,0.0,0.0,0.0,0.0,-2.4456,0.0,0.0,0.0,0.0,0.0,0.0,0.0,0.0,0.0,0.0,0.0,0.0,0.0,0.0,0.0,0.0,0.0,0.0,0.0,-3.7305,-3.8146,-3.9198,-3.8991,-3.9353,-4.0601,-4.067,-4.0739,-4.0912,-4.0912,-4.0912,-4.0912,-4.0912,-4.1205,-4.1809,-4.1947,-4.2654,-4.3862,-4.4018,-4.4475,-4.5173,-4.5173,-4.5259,-4.5397,-4.5397,-4.5397,-4.5483,-4.6303,-4.6975,-4.7596,-4.831,-4.8586,-4.8672,-4.9338,-4.9562,-4.9562,-4.9562,-4.9562,-4.9614,-4.9907,-4.9907,-4.9901,-5.0622,-5.0803,-5.1026,-5.1988,-5.2338,-5.2518,-5.2934,-5.3103,-5.3185,-5.3185,-5.3185,-5.3185,-5.3185,-5.3185,-5.3185,-5.3185,-5.3185,-5.3185,-5.3185,-5.3185,-5.3185,-5.3185,-5.3185,-5.3185,-5.3185,-5.3185,-5.3185,-5.3185,-5.3185,-5.3185,-5.3185,-5.3059,-5.2968,-5.2968,-5.2821,-5.2435,-5.1775,-5.1132,-5.0802,-5.0802,-5.0802,-5.1481,-5.2726,-5.2726,-5.2726,0.0,0.0,0.0,0.0,-2.8454,0.0,0.0,0.0,0.0,0.0,0.0,0.0,0.0,0.0,0.0,0.0,0.0,0.0,0.0,0.0,0.0,0.0,0.0,0.0,0.0,0.0,-3.5494,-3.7599,-3.6473,-3.6922,-3.9681,-3.9836,-4.0146,-4.0877,-4.0912,-4.0912,-4.0912,-4.0912,-4.0946,-4.1032,-4.1705,-4.2102,-4.2292,-4.3,-4.3724,-4.4432,-4.4432,-4.4803,-4.5397,-4.5397,-4.5397,-4.5483,-4.6303,-4.6665,-4.682,-4.7534,-4.781,-4.7855,-4.7913,-4.7948,-4.7948,-4.7948,-4.7948,-4.8234,-4.9597,-4.951,-4.921,-5.0465,-5.0803,-5.0937,-5.1543,-5.2036,-5.2426,-5.2495,-5.285,-5.3185,-5.3185,-5.3185,-5.3185,-5.3185,-5.3185,-5.3185,-5.3185,-5.3185,-5.3185,-5.3185,-5.3185,-5.3185,-5.3185,-5.3185,-5.3185,-5.3185,-5.3185,-5.3185,-5.3185,-5.3185,-5.3185,-5.3185,-5.2527,-5.2142,-5.2142,-5.1444,-5.1041,-5.0949,-5.0857,-5.0802,-5.0802,-5.0802,-5.0894,-5.1077,-5.1077,-5.1077,0.0,0.0,0.0,0.0,0.0,0.0,0.0,0.0,-2.4112,0.0,0.0,0.0,0.0,0.0,0.0,0.0,0.0,0.0,0.0,0.0,0.0,0.0,0.0,0.0,0.0,0.0,0.0,0.0,0.0,-3.499,-3.7594,-3.8577,-3.9405,-4.0164,-4.067,-4.0912,-4.0912,-4.0912,-4.0912,-4.0912,-4.1222,-4.1602,-4.1992,-4.2361,-4.293,-4.369,-4.4121,-4.4483,-4.4785,-4.5207,-4.5397,-4.5432,-4.5759,-4.5897,-4.5983,-4.6786,-4.7079,-4.7103,-4.7534,-4.7689,-4.7689,-4.7689,-4.7689,-4.781,-4.8476,-4.8413,-4.8515,-5.0109,-5.0579,-5.0862,-5.2188,-5.2694,-5.2868,-5.2868,-5.3039,-5.3185,-5.3185,-5.3185,-5.3185,-5.3185,-5.3185,-5.3185,-5.3185,-5.3185,-5.3185,-5.3185,-5.3185,-5.3185,-5.3185,-5.2803,-5.2509,-5.2509,-5.2087,-5.1811,-5.1811,-5.1811,-5.1811,-5.1811,-5.1499,-5.1298,-5.1298,-5.0527,-5.0086,-5.0086,-4.9609,-4.9352,-4.9352,-4.9352,-4.9352,-4.937,-5.0362,-5.0802,-3.0196,0.0,0.0,0.0,0.0,0.0,0.0,0.0,0.0,0.0,0.0,0.0,0.0,0.0,0.0,0.0,0.0,0.0,0.0,0.0,0.0,0.0,0.0,0.0,0.0,0.0,0.0,0.0,0.0,0.0,-3.5835,-3.7249,-3.8491,-3.9664,-4.0498,-4.0912,-4.0912,-4.0912,-4.0912,-4.0912,-4.0912,-4.1188,-4.1705,-4.1705,-4.2137,-4.2896,-4.3448,-4.3914,-4.4345,-4.4889,-4.5207,-4.5397,-4.5397,-4.5397,-4.5466,-4.6052,-4.6259,-4.6345,-4.6879,-4.7052,-4.7103,-4.731,-4.7241,-4.7138,-4.7551,-4.7579,-4.7763,-4.9425,-4.9888,-5.0234,-5.1746,-5.2127,-5.2171,-5.2279,-5.2322,-5.2322,-5.2322,-5.2443,-5.2504,-5.2361,-5.2443,-5.2546,-5.2546,-5.2913,-5.3185,-5.3185,-5.3023,-5.2876,-5.2876,-5.2179,-5.1665,-5.1665,-5.1151,-5.0802,-5.0802,-5.0802,-5.071,-5.049,-5.0472,-5.0362,-5.0123,-4.9554,-4.9243,-4.9243,-4.8618,-4.8306,-4.8306,-4.8306,-4.8306,-4.8343,-4.9554,-5.0105,0.0,0.0,0.0,-2.8437,0.0,0.0,0.0,0.0,-2.5577,0.0,0.0,0.0,0.0,0.0,0.0,0.0,0.0,0.0,0.0,0.0,0.0,0.0,0.0,0.0,0.0,0.0,0.0,0.0,0.0,0.0,-3.4956,-3.5956,-3.7404,-3.9629,-4.0498,-4.0912,-4.0912,-4.0912,-4.0912,-4.0912,-4.0912,-4.0912,-4.0946,-4.0946,-4.1343,-4.205,-4.2068,-4.293,-4.4311,-4.4328,-4.4751,-4.5397,-4.5397,-4.5397,-4.5397,-4.5432,-4.5432,-4.5432,-4.5466,-4.5466,-4.5604,-4.6389,-4.6104,-4.5742,-4.7241,-4.7189,-4.6921,-4.8207,-4.8555,-4.8682,-4.9269,-4.9412,-4.9554,-4.9991,-5.0101,-5.0101,-5.0101,-5.0514,-5.0717,-5.0185,-5.0514,-5.0875,-5.0875,-5.2179,-5.3185,-5.3185,-5.2546,-5.2032,-5.2032,-5.1334,-5.0839,-5.0839,-5.082,-5.0802,-5.0802,-5.0802,-5.0472,-4.9702,-4.9647,-4.9242,-4.8416,-4.8361,-4.8343,-4.8343,-4.8324,-4.8306,-4.8306,-4.8306,-4.8306,-4.8306,-4.8361,-4.8379,0.0,0.0,-3.3973,-3.042,0.0,0.0,0.0,0.0,0.0,0.0,0.0,0.0,0.0,0.0,0.0,0.0,0.0,0.0,0.0,0.0,0.0,0.0,0.0,0.0,0.0,0.0,0.0,0.0,0.0,0.0,0.0,-3.3886,-3.5887,-3.8163,-3.9439,-4.0377,-4.0894,-4.0912,-4.0912,-4.0912,-4.0912,-4.0912,-4.0912,-4.0912,-4.105,-4.1309,-4.1792,-4.2309,-4.2861,-4.388,-4.4449,-4.4716,-4.5207,-4.5397,-4.5397,-4.5397,-4.5397,-4.5397,-4.5397,-4.5397,-4.5432,-4.5707,-4.5621,-4.55,-4.6017,-4.6,-4.6081,-4.7393,-4.7781,-4.8013,-4.9031,-4.9293,-4.9341,-4.9487,-4.9552,-4.9552,-4.9552,-4.9667,-4.9753,-4.9557,-4.9667,-4.9798,-4.9798,-5.0518,-5.1204,-5.1568,-5.1389,-5.1206,-5.1206,-5.049,-5.0014,-5.0014,-4.9481,-4.915,-4.915,-4.915,-4.904,-4.8765,-4.8746,-4.8618,-4.8324,-4.8306,-4.8306,-4.8306,-4.8306,-4.8306,-4.8306,-4.8306,-4.8306,-4.8306,-4.8306,-4.8306,-3.4044,-3.4648,0.0,-3.1765,-3.0696,0.0,-2.6506,0.0,0.0,0.0,0.0,0.0,0.0,0.0,0.0,0.0,0.0,0.0,0.0,0.0,0.0,0.0,0.0,0.0,0.0,0.0,-2.3457,-2.4491,0.0,0.0,0.0,0.0,-3.4714,-3.6991,-3.8784,-4.0077,-4.0894,-4.0912,-4.0912,-4.0912,-4.0912,-4.0912,-4.0912,-4.0912,-4.0912,-4.0929,-4.1412,-4.1774,-4.2085,-4.3086,-4.381,-4.4363,-4.482,-4.5156,-4.5397,-4.5397,-4.5397,-4.5397,-4.5397,-4.5397,-4.5397,-4.5397,-4.5397,-4.5397,-4.5397,-4.5397,-4.558,-4.6464,-4.6706,-4.6887,-4.7696,-4.7901,-4.795,-4.8163,-4.8211,-4.8211,-4.8211,-4.833,-4.8384,-4.8235,-4.8313,-4.8431,-4.8431,-4.8708,-4.9263,-5.0349,-5.0426,-5.0362,-5.0362,-4.9646,-4.9132,-4.9132,-4.8636,-4.8306,-4.8306,-4.8306,-4.8306,-4.8306,-4.8306,-4.8306,-4.8306,-4.8306,-4.8306,-4.8306,-4.8306,-4.8306,-4.8306,-4.8306,-4.8306,-4.8306,-4.8306,-4.8306]}]]